[[{"header":{"parameterUnit":"m.s-1","parameterCategory":1,"la1":30.6,"la2":28.766,"lo1":-90.7593,"lo2":-88.6598,"dy":0.0162,"dx":0.0183,"nx":116,"ny":114,"refTime":"2024-06-10T18:00:00:Z","depth":0,"parameterNumber":2,"parameterNumberName":"U-component_of_WINDS"},"data":[0.0,0.0,0.0,0.0,0.0,0.0,0.0,0.0,0.0,0.0,0.0,0.0,0.0,0.0,0.0,0.0,0.0,0.0,0.0,0.0,0.0,0.0,0.0,0.0,0.0,0.0,0.0,0.0,0.0,0.0,0.0,0.0,0.0,0.0,0.0,0.0,0.0,0.0,0.0,0.0,0.0,0.0,0.0,0.0,0.0,0.0,0.0,0.0,0.0,0.0,0.0,0.0,0.0,0.0,0.0,0.0,0.0,0.0,0.0,0.0,0.0,0.0,0.0,0.0,0.0,0.0,0.0,0.0,0.0,0.0,0.0,0.0,0.0,0.0,0.0,0.0,0.0,0.0,0.0,0.0,0.0,0.0,0.0,0.0,0.0,0.0,0.0,0.0,0.0,0.0,0.0,0.0,0.0,0.0,0.0,0.0,0.0,0.0,0.0,0.0,0.0,0.0,0.0,0.0,0.0,0.0,0.0,0.0,0.0,0.0,0.0,0.0,0.0,0.0,0.0,0.0,0.0,0.0,0.0,0.0,0.0,0.0,0.0,0.0,0.0,0.0,0.0,0.0,0.0,0.0,0.0,0.0,0.0,0.0,0.0,0.0,0.0,0.0,0.0,0.0,0.0,0.0,0.0,0.0,0.0,0.0,0.0,0.0,0.0,0.0,0.0,0.0,0.0,0.0,0.0,0.0,0.0,0.0,0.0,0.0,0.0,0.0,0.0,0.0,0.0,0.0,0.0,0.0,0.0,0.0,0.0,0.0,0.0,0.0,0.0,0.0,0.0,0.0,0.0,0.0,0.0,0.0,0.0,0.0,0.0,0.0,0.0,0.0,0.0,0.0,0.0,0.0,0.0,0.0,0.0,0.0,0.0,0.0,0.0,0.0,0.0,0.0,0.0,0.0,0.0,0.0,0.0,0.0,0.0,0.0,0.0,0.0,0.0,0.0,0.0,0.0,0.0,0.0,0.0,0.0,0.0,0.0,0.0,0.0,0.0,0.0,0.0,0.0,0.0,0.0,0.0,0.0,0.0,0.0,0.0,0.0,0.0,0.0,0.0,0.0,0.0,0.0,0.0,0.0,0.0,0.0,0.0,0.0,0.0,0.0,0.0,0.0,0.0,0.0,0.0,0.0,0.0,0.0,0.0,0.0,0.0,0.0,0.0,0.0,0.0,0.0,0.0,0.0,0.0,0.0,0.0,0.0,0.0,0.0,0.0,0.0,0.0,0.0,0.0,0.0,0.0,0.0,0.0,0.0,0.0,0.0,0.0,0.0,0.0,0.0,0.0,0.0,0.0,0.0,0.0,0.0,0.0,0.0,0.0,0.0,0.0,0.0,0.0,0.0,0.0,0.0,0.0,0.0,0.0,0.0,0.0,0.0,0.0,0.0,0.0,0.0,0.0,0.0,0.0,0.0,0.0,0.0,0.0,0.0,0.0,0.0,0.0,0.0,0.0,0.0,0.0,0.0,0.0,0.0,0.0,0.0,0.0,0.0,0.0,0.0,0.0,0.0,0.0,0.0,0.0,0.0,0.0,0.0,0.0,0.0,0.0,0.0,0.0,0.0,0.0,0.0,0.0,0.0,0.0,0.0,0.0,0.0,0.0,0.0,0.0,0.0,0.0,0.0,0.0,0.0,0.0,0.0,0.0,0.0,0.0,0.0,0.0,0.0,0.0,0.0,0.0,0.0,0.0,0.0,0.0,0.0,0.0,0.0,0.0,0.0,0.0,0.0,0.0,0.0,0.0,0.0,0.0,0.0,0.0,0.0,0.0,0.0,0.0,0.0,0.0,0.0,0.0,0.0,0.0,0.0,0.0,0.0,0.0,0.0,0.0,0.0,0.0,0.0,0.0,0.0,0.0,0.0,0.0,0.0,0.0,0.0,0.0,0.0,0.0,0.0,0.0,0.0,0.0,0.0,0.0,0.0,0.0,0.0,0.0,0.0,0.0,0.0,0.0,0.0,0.0,0.0,0.0,0.0,0.0,0.0,0.0,0.0,0.0,0.0,0.0,0.0,0.0,0.0,0.0,0.0,0.0,0.0,0.0,0.0,0.0,0.0,0.0,0.0,0.0,0.0,0.0,0.0,0.0,0.0,0.0,0.0,0.0,0.0,0.0,0.0,0.0,0.0,0.0,0.0,0.0,0.0,0.0,0.0,0.0,0.0,0.0,0.0,0.0,0.0,0.0,0.0,0.0,0.0,0.0,0.0,0.0,0.0,0.0,0.0,0.0,0.0,0.0,0.0,0.0,0.0,0.0,0.0,0.0,0.0,0.0,0.0,0.0,0.0,0.0,0.0,0.0,0.0,0.0,0.0,0.0,0.0,0.0,0.0,0.0,0.0,0.0,0.0,0.0,0.0,0.0,0.0,0.0,0.0,0.0,0.0,0.0,0.0,0.0,0.0,0.0,0.0,0.0,0.0,0.0,0.0,0.0,0.0,0.0,0.0,0.0,0.0,0.0,0.0,0.0,0.0,0.0,0.0,0.0,0.0,0.0,0.0,0.0,0.0,0.0,0.0,0.0,0.0,0.0,0.0,0.0,0.0,0.0,0.0,0.0,0.0,0.0,0.0,0.0,0.0,0.0,0.0,0.0,0.0,0.0,0.0,0.0,0.0,0.0,0.0,0.0,0.0,0.0,0.0,0.0,0.0,0.0,0.0,0.0,0.0,0.0,0.0,0.0,0.0,0.0,0.0,0.0,0.0,0.0,0.0,0.0,0.0,0.0,0.0,0.0,0.0,0.0,0.0,0.0,0.0,0.0,0.0,0.0,0.0,0.0,0.0,0.0,0.0,0.0,0.0,0.0,0.0,0.0,0.0,0.0,0.0,0.0,0.0,0.0,0.0,0.0,0.0,0.0,0.0,0.0,0.0,0.0,0.0,0.0,0.0,0.0,0.0,0.0,0.0,0.0,0.0,0.0,0.0,0.0,0.0,0.0,0.0,0.0,0.0,0.0,0.0,0.0,0.0,0.0,0.0,0.0,0.0,0.0,0.0,0.0,0.0,0.0,0.0,0.0,0.0,0.0,0.0,0.0,0.0,0.0,0.0,0.0,0.0,0.0,0.0,0.0,0.0,0.0,0.0,0.0,0.0,0.0,0.0,0.0,0.0,0.0,0.0,0.0,0.0,0.0,0.0,0.0,0.0,0.0,0.0,0.0,0.0,0.0,0.0,0.0,0.0,0.0,0.0,0.0,0.0,0.0,0.0,0.0,0.0,0.0,0.0,0.0,0.0,0.0,0.0,0.0,0.0,0.0,0.0,0.0,0.0,0.0,0.0,0.0,0.0,0.0,0.0,0.0,0.0,0.0,0.0,0.0,0.0,0.0,0.0,0.0,0.0,0.0,0.0,0.0,0.0,0.0,0.0,0.0,0.0,0.0,0.0,0.0,0.0,0.0,0.0,0.0,0.0,0.0,0.0,0.0,0.0,0.0,0.0,0.0,0.0,0.0,0.0,0.0,0.0,0.0,0.0,0.0,0.0,0.0,0.0,0.0,0.0,0.0,0.0,0.0,0.0,0.0,0.0,0.0,0.0,0.0,0.0,0.0,0.0,0.0,0.0,0.0,0.0,0.0,0.0,0.0,0.0,0.0,0.0,0.0,0.0,0.0,0.0,0.0,0.0,0.0,0.0,0.0,0.0,0.0,0.0,0.0,0.0,0.0,0.0,0.0,0.0,0.0,0.0,0.0,0.0,0.0,0.0,0.0,0.0,0.0,0.0,0.0,0.0,0.0,0.0,0.0,0.0,0.0,0.0,0.0,0.0,0.0,0.0,0.0,0.0,0.0,0.0,0.0,0.0,0.0,0.0,0.0,0.0,0.0,0.0,0.0,0.0,0.0,0.0,0.0,0.0,0.0,0.0,0.0,0.0,0.0,0.0,0.0,0.0,0.0,0.0,0.0,0.0,0.0,0.0,0.0,0.0,0.0,0.0,0.0,0.0,0.0,0.0,0.0,0.0,0.0,0.0,0.0,0.0,0.0,0.0,0.0,0.0,0.0,0.0,0.0,0.0,0.0,0.0,0.0,0.0,0.0,0.0,0.0,0.0,0.0,0.0,0.0,0.0,0.0,0.0,0.0,0.0,0.0,0.0,0.0,0.0,0.0,0.0,0.0,0.0,0.0,0.0,0.0,0.0,0.0,0.0,0.0,0.0,0.0,0.0,0.0,0.0,0.0,0.0,0.0,0.0,0.0,0.0,0.0,0.0,0.0,0.0,0.0,0.0,0.0,0.0,0.0,0.0,0.0,0.0,0.0,0.0,0.0,0.0,0.0,0.0,0.0,0.0,0.0,0.0,0.0,0.0,0.0,0.0,0.0,0.0,0.0,0.0,0.0,0.0,0.0,0.0,0.0,0.0,0.0,0.0,0.0,0.0,0.0,0.0,0.0,0.0,0.0,0.0,0.0,0.0,0.0,0.0,0.0,0.0,0.0,0.0,0.0,0.0,0.0,0.0,0.0,0.0,0.0,0.0,0.0,0.0,0.0,0.0,0.0,0.0,0.0,0.0,0.0,0.0,0.0,0.0,0.0,0.0,0.0,0.0,0.0,0.0,0.0,0.0,0.0,0.0,0.0,0.0,0.0,0.0,0.0,0.0,0.0,0.0,0.0,0.0,0.0,0.0,0.0,0.0,0.0,0.0,0.0,0.0,0.0,0.0,0.0,0.0,0.0,0.0,0.0,0.0,0.0,0.0,0.0,0.0,0.0,0.0,0.0,0.0,0.0,0.0,0.0,0.0,0.0,0.0,0.0,0.0,0.0,0.0,0.0,0.0,0.0,0.0,0.0,0.0,0.0,0.0,0.0,0.0,0.0,0.0,0.0,0.0,0.0,0.0,0.0,0.0,0.0,0.0,0.0,0.0,0.0,0.0,0.0,0.0,0.0,0.0,0.0,0.0,0.0,0.0,0.0,0.0,0.0,0.0,0.0,0.0,0.0,0.0,0.0,0.0,0.0,0.0,0.0,0.0,0.0,0.0,0.0,0.0,0.0,0.0,0.0,0.0,0.0,0.0,0.0,0.0,0.0,0.0,0.0,0.0,0.0,0.0,0.0,0.0,0.0,0.0,0.0,0.0,0.0,0.0,0.0,0.0,0.0,0.0,0.0,0.0,0.0,0.0,0.0,0.0,0.0,0.0,0.0,0.0,0.0,0.0,0.0,0.0,0.0,0.0,0.0,0.0,0.0,0.0,0.0,0.0,0.0,0.0,0.0,0.0,0.0,0.0,0.0,0.0,0.0,0.0,0.0,0.0,0.0,0.0,0.0,0.0,0.0,0.0,0.0,0.0,0.0,0.0,0.0,0.0,0.0,0.0,0.0,0.0,0.0,0.0,0.0,0.0,0.0,0.0,0.0,0.0,0.0,0.0,0.0,0.0,0.0,0.0,0.0,0.0,0.0,0.0,0.0,0.0,0.0,0.0,0.0,0.0,0.0,0.0,0.0,0.0,0.0,0.0,0.0,0.0,0.0,0.0,0.0,0.0,0.0,0.0,0.0,0.0,0.0,0.0,0.0,0.0,0.0,0.0,0.0,0.0,0.0,0.0,0.0,0.0,0.0,0.0,0.0,0.0,0.0,0.0,0.0,0.0,0.0,0.0,0.0,0.0,0.0,0.0,0.0,0.0,0.0,0.0,0.0,0.0,0.0,0.0,0.0,0.0,0.0,0.0,0.0,0.0,0.0,0.0,0.0,0.0,0.0,0.0,0.0,0.0,0.0,0.0,0.0,0.0,0.0,0.0,0.0,0.0,0.0,0.0,0.0,0.0,0.0,0.0,0.0,0.0,0.0,0.0,0.0,0.0,0.0,0.0,0.0,0.0,0.0,0.0,0.0,0.0,0.0,0.0,0.0,0.0,0.0,0.0,0.0,0.0,0.0,0.0,0.0,0.0,0.0,0.0,0.0,0.0,0.0,0.0,0.0,0.0,0.0,0.0,0.0,0.0,0.0,0.0,0.0,0.0,0.0,0.0,0.0,0.0,0.0,0.0,0.0,0.0,0.0,0.0,0.0,0.0,0.0,0.0,0.0,0.0,0.0,0.0,0.0,0.0,0.0,0.0,0.0,0.0,0.0,0.0,0.0,0.0,0.0,0.0,0.0,0.0,1.8918,1.8018,0.0,0.0,0.0,0.0,0.0,0.0,0.0,0.0,0.0,0.0,0.0,0.0,0.0,0.0,0.0,0.0,0.0,0.0,0.0,0.0,0.0,0.0,0.0,0.9002,0.9069,0.9284,0.9299,0.938,0.9591,0.0,0.0,0.0,0.0,0.0,0.9189,0.9635,1.0023,1.0355,1.1065,1.1734,1.2367,1.2262,1.2005,1.1622,0.0,0.0,0.0,0.0,0.0,0.0,0.0,0.0,0.0,0.0,0.0,0.0,0.0,0.0,0.0,0.0,0.0,0.0,0.0,0.0,0.0,0.0,0.0,0.0,0.0,0.0,0.0,0.0,0.0,0.0,0.0,0.0,0.0,0.0,0.0,0.0,0.0,0.0,0.0,0.0,0.0,0.0,0.0,0.0,0.0,0.0,0.0,0.0,0.0,0.0,0.0,0.0,0.0,0.0,0.0,0.0,0.0,0.0,0.0,0.0,0.0,0.0,0.0,0.0,0.0,0.0,0.0,0.0,0.0,0.0,2.1289,2.0042,0.0,0.0,0.0,0.0,0.0,0.0,0.0,0.0,0.0,0.0,0.0,0.0,0.0,0.0,0.0,0.0,0.0,0.0,0.0,0.0,0.0,0.9183,0.9327,0.9346,0.9498,0.9888,0.9924,0.9972,1.0115,0.9752,0.0,0.0,0.0,0.9432,0.9536,1.0488,1.1235,1.1735,1.2755,1.3993,1.5442,1.594,1.5583,1.4505,1.3502,0.0,0.0,0.0,0.0,0.0,0.0,0.0,0.0,0.0,0.0,0.0,0.0,0.0,0.0,0.0,0.0,0.0,0.0,0.0,0.0,0.0,0.0,0.0,0.0,0.0,0.0,0.0,0.0,0.0,0.0,0.0,0.0,0.0,0.0,0.0,0.0,0.0,0.0,0.0,0.0,0.0,0.0,0.0,0.0,0.0,0.0,0.0,0.0,0.0,0.0,0.0,0.0,0.0,0.0,0.0,0.0,0.0,0.0,0.0,0.0,0.0,0.0,0.0,2.4605,2.5397,2.7266,2.6653,2.6793,2.7309,2.4128,2.2808,2.2773,2.1363,0.0,0.0,0.0,0.0,0.0,0.0,0.0,0.0,0.0,0.0,0.0,0.0,0.0,0.0,0.0,0.0,0.0,0.0,0.0,0.9535,1.0239,1.0311,1.0666,1.1505,1.1588,1.1636,1.1778,1.0988,0.0,0.0,1.0503,1.0494,1.0527,1.2104,1.2858,1.2713,1.4502,1.6404,1.835,1.8434,1.8702,1.9048,1.7021,1.6118,1.5982,0.0,0.0,0.0,0.0,0.0,0.0,0.0,0.0,0.0,0.0,0.0,0.0,0.0,0.0,0.0,0.0,0.0,0.0,0.0,0.0,0.0,0.0,0.0,0.0,0.0,0.0,0.0,0.0,0.0,0.0,0.0,0.0,0.0,0.0,0.0,0.0,0.0,0.0,0.0,0.0,0.0,1.8108,1.8745,0.0,0.0,0.0,0.0,0.0,0.0,0.0,0.0,0.0,0.0,0.0,0.0,0.0,2.4716,2.5955,2.6742,2.7207,2.7367,2.7964,2.8747,2.9646,2.9557,2.9917,3.0536,2.9414,0.0,2.5093,2.4242,0.0,0.0,0.0,0.0,0.0,0.0,0.0,0.0,0.0,0.0,0.0,0.0,0.0,0.0,0.0,0.0,0.0,0.0,0.0,0.0,0.0,1.1418,1.2152,1.2631,1.3093,1.3183,1.2796,1.2313,1.1873,1.1506,1.1413,1.1409,1.149,1.2964,1.4435,1.5812,1.7391,1.8851,2.0192,2.0192,2.0588,2.1248,2.0274,1.9136,1.7786,1.5571,0.0,0.0,0.0,0.0,0.0,0.0,0.0,0.0,0.0,0.0,0.0,0.0,0.0,0.0,0.0,0.0,0.0,0.0,0.0,0.0,0.0,0.0,0.0,0.0,0.0,0.0,0.0,0.0,0.0,0.0,0.0,0.0,0.0,0.0,0.0,0.0,0.0,0.0,0.0,1.8152,2.0058,2.0146,2.0617,2.0406,0.0,0.0,0.0,0.0,0.0,0.0,0.0,0.0,0.0,2.6122,2.6746,2.7338,2.799,2.9144,2.9917,3.0328,3.068,3.1234,3.1958,3.1958,3.2133,3.2425,3.2099,3.097,2.9216,2.7199,2.5723,2.4695,0.0,0.0,0.0,0.0,2.3983,2.4533,0.0,0.0,0.0,0.0,0.0,0.0,0.0,0.0,0.0,0.0,0.0,0.0,1.1312,1.2624,1.3652,1.4187,1.4771,1.4862,1.4265,1.3736,1.3232,1.2733,1.2426,1.2403,1.2716,1.4448,1.6582,1.9101,1.998,2.0805,2.1584,2.1505,2.1769,2.23,2.23,2.1356,1.9638,1.7588,1.6196,0.0,0.0,0.0,0.0,0.0,0.0,0.0,0.0,0.0,0.0,0.0,0.0,0.0,0.0,0.0,0.0,0.0,0.0,0.0,0.0,0.0,0.0,0.0,0.0,0.0,0.0,0.0,0.0,0.0,0.0,0.0,0.0,0.0,0.0,0.0,0.0,0.0,0.0,2.0089,2.1576,2.1493,2.2358,2.2285,0.0,0.0,0.0,0.0,0.0,0.0,2.5913,2.5797,2.6531,2.8433,2.9388,2.9924,3.0122,3.1212,3.2046,3.2576,3.2576,3.2972,3.3677,3.3677,3.379,3.3954,3.3751,3.3378,3.266,3.0035,2.8412,2.7524,2.6974,2.6962,2.7241,2.6873,2.7097,2.7672,0.0,0.0,0.0,0.0,0.0,0.0,0.0,0.0,0.0,0.0,0.0,1.1477,1.2997,1.3923,1.5055,1.6597,1.676,1.676,1.6723,1.5275,1.4413,1.4382,1.3637,1.3583,1.4364,1.7253,1.9753,2.1803,2.1609,2.1903,2.2617,2.2368,2.2266,2.23,2.23,2.2236,2.2029,2.0447,1.8943,1.7448,0.0,0.0,0.0,0.0,0.0,0.0,0.0,0.0,0.0,0.0,0.0,0.0,0.0,0.0,0.0,0.0,0.0,0.0,0.0,0.0,0.0,0.0,0.0,0.0,0.0,0.0,0.0,0.0,0.0,0.0,0.0,0.0,0.0,0.0,0.0,0.0,0.0,0.0,0.0,2.3056,2.3246,0.0,0.0,0.0,0.0,2.4294,2.5624,2.7127,2.8715,2.8782,2.9781,3.1963,3.21,3.2469,3.3164,3.3249,3.3316,3.3333,3.3333,3.3728,3.4443,3.4443,3.4827,3.5453,3.4742,3.4426,3.4263,3.2711,3.1234,2.9929,2.9895,2.9465,2.8954,2.9634,2.9895,3.0031,0.0,0.0,0.0,0.0,0.0,0.97,0.97,0.97,0.97,0.97,1.1294,1.2652,1.3246,1.54,1.7045,1.761,1.8148,1.8221,1.7704,1.6653,1.6288,1.6788,1.6054,1.6415,1.8131,1.9691,2.0886,2.1732,2.2113,2.2343,2.2433,2.2346,2.23,2.23,2.23,2.23,2.2232,2.1207,2.0173,1.9115,1.7839,1.6153,0.0,0.0,0.0,0.0,0.0,0.0,0.0,0.0,0.0,0.0,0.0,0.0,0.0,0.0,0.0,0.0,0.0,0.0,0.0,0.0,0.0,0.0,0.0,0.0,0.0,0.0,0.0,0.0,0.0,0.0,0.0,0.0,0.0,0.0,0.0,0.0,0.0,2.5018,2.5769,0.0,2.534,2.5663,2.6331,2.7317,2.7876,2.9039,3.1024,3.1125,3.1696,3.2966,3.3467,3.3834,3.4105,3.4579,3.4827,3.4827,3.4827,3.4951,3.5205,3.5205,3.5357,3.5588,3.5323,3.5205,3.5171,3.463,3.3548,3.2212,3.2212,3.2065,3.185,3.2133,3.2212,3.2268,0.0,0.0,0.0,0.0,0.97,0.97,0.97,0.97,0.979,1.0062,1.1976,1.3502,1.4051,1.6501,1.8205,1.8482,1.8983,1.9075,1.8537,1.7759,1.7535,1.8074,1.7852,1.861,2.0528,2.1425,2.2026,2.2318,2.2687,2.2773,2.2601,2.2656,2.2679,2.2675,2.2936,2.3038,2.2983,2.2253,2.1353,2.0342,1.9581,1.8248,1.6615,0.0,0.0,0.0,0.0,0.0,0.0,0.0,0.0,0.0,0.0,0.0,0.0,0.0,0.0,0.0,0.0,0.0,0.0,0.0,0.0,0.0,0.0,0.0,0.0,0.0,0.0,0.0,0.0,0.0,0.0,0.0,0.0,0.0,0.0,0.0,2.6318,2.6618,2.7789,2.8317,2.7679,2.8196,2.9005,3.0042,3.0337,3.1239,3.2948,3.3033,3.3383,3.4123,3.4619,3.5002,3.5278,3.5757,3.6135,3.6383,3.6383,3.6383,3.6383,3.6383,3.6383,3.6383,3.6383,3.6383,3.6383,3.6383,3.5797,3.4872,3.4348,3.414,3.414,3.414,3.414,3.4106,0.0,0.0,0.0,0.9709,0.9707,0.9705,0.9705,0.9702,0.9989,1.0782,1.2318,1.3941,1.5533,1.716,1.8445,1.9224,1.9297,1.9297,1.9297,1.8555,1.8129,1.8166,1.8999,2.0062,2.1357,2.2462,2.3268,2.3698,2.3395,2.3233,2.3239,2.3375,2.3449,2.3464,2.4182,2.4495,2.4444,2.3742,2.2608,2.1227,2.0403,1.9625,1.8812,0.0,0.0,0.0,0.0,0.0,0.0,0.0,0.0,0.0,0.0,0.0,0.0,0.0,0.0,0.0,0.0,0.0,0.0,0.0,0.0,0.0,0.0,0.0,0.0,0.0,0.0,0.0,0.0,0.0,0.0,0.0,0.0,0.0,2.3654,2.6083,2.7835,2.7826,2.921,3.0006,2.9562,3.1222,3.2344,3.2361,3.3039,3.3756,3.4494,3.4567,3.4895,3.5605,3.5656,3.6056,3.6823,3.6823,3.719,3.7899,3.7899,3.7899,3.7899,3.7899,3.7899,3.7899,3.7899,3.7899,3.7899,3.7899,3.7899,3.7741,3.6264,3.5656,3.5639,3.5639,3.5622,3.5504,0.0,0.0,0.978,0.9839,0.9801,0.9779,0.9779,0.9725,0.9989,1.0782,1.2806,1.4554,1.5587,1.7661,1.9056,1.9279,1.9297,1.9297,1.9297,1.8555,1.8623,1.9793,2.1785,2.3024,2.3393,2.3714,2.3804,2.3698,2.4195,2.4186,2.3715,2.4348,2.4474,2.4203,2.441,2.4495,2.4498,2.4271,2.3966,2.3475,2.2188,2.1228,2.0463,0.0,0.0,0.0,0.0,0.0,0.0,0.0,0.0,0.0,0.0,0.0,0.0,0.0,0.0,0.0,0.0,0.0,0.0,0.0,0.0,0.0,0.0,0.0,0.0,0.0,0.0,0.0,0.0,0.0,0.0,0.0,0.0,2.7384,2.7081,2.8152,2.9393,3.0538,3.1274,3.1844,3.2256,3.2786,3.3327,3.3857,3.4071,3.4523,3.5256,3.5848,3.6265,3.6462,3.6986,3.7369,3.7601,3.7601,3.7702,3.7899,3.7899,3.7899,3.7899,3.7899,3.7899,3.7899,3.7899,3.7899,3.7899,3.7899,3.7899,3.786,3.7437,3.6941,3.6473,3.6473,3.609,3.5571,0.0,0.9823,0.986,0.9885,0.9875,0.9834,0.98,0.9772,1.0144,1.1252,1.3208,1.4932,1.6074,1.8063,1.9297,1.9297,1.9297,1.9297,1.9297,1.9177,1.9832,2.1481,2.2937,2.3859,2.4192,2.4192,2.4268,2.4411,2.4736,2.4867,2.4839,2.5506,2.5602,2.5231,2.5542,2.5578,2.5405,2.5096,2.4957,2.4851,2.3684,2.2771,2.1999,2.0923,2.0233,1.9806,1.9284,1.9036,1.8989,1.9324,0.0,0.0,0.0,0.0,0.0,0.0,0.0,0.0,0.0,0.0,0.0,0.0,0.0,0.0,0.0,0.0,0.0,0.0,0.0,0.0,0.0,0.0,0.0,0.0,2.8261,3.0287,3.0365,3.0545,3.1185,3.2623,3.3052,3.3383,3.3812,3.414,3.4635,3.5419,3.547,3.5797,3.6518,3.7009,3.7257,3.7257,3.7686,3.8052,3.8362,3.8362,3.8514,3.8825,3.8825,3.8825,3.8825,3.8825,3.8825,3.8825,3.8825,3.8825,3.8825,3.8825,3.8825,3.8757,0.0,0.0,0.0,0.0,3.6778,3.609,0.0,0.9875,0.991,0.9918,0.9912,0.9886,0.9837,0.9816,1.0364,1.1905,1.343,1.4981,1.6598,1.8205,1.9167,1.9167,1.9332,1.9481,1.9572,2.0331,2.1444,2.2933,2.31,2.3469,2.4174,2.4284,2.4693,2.5398,2.527,2.5564,2.6245,2.6733,2.6764,2.6415,2.7085,2.7147,2.672,2.6071,2.5771,2.5651,2.4927,2.4128,2.3261,2.1952,2.1397,2.1271,2.0884,2.0358,1.9906,2.0425,0.0,0.0,0.0,0.0,0.0,0.0,0.0,0.0,0.0,0.0,0.0,0.0,0.0,0.0,0.0,0.0,0.0,0.0,0.0,0.0,0.0,0.0,0.0,0.0,3.0504,3.2506,3.3383,3.3097,3.3165,3.4189,3.4419,3.4528,3.4613,3.5289,3.6039,3.6745,3.6874,3.7207,3.7866,0.0,0.0,0.0,0.0,3.8464,3.9119,3.9113,3.9457,4.0096,4.0096,4.0096,4.0096,4.0014,4.002,4.0083,4.0007,4.002,4.0083,4.0007,3.9914,3.9722,3.851,3.8018,3.8018,3.7927,3.7483,3.6925,0.0,0.994,0.9989,1.0054,1.0025,0.997,0.9957,0.9917,1.0431,1.1979,1.3017,1.4203,1.5757,1.7362,1.8333,1.8333,1.9522,2.0572,0.0,0.0,2.2657,2.2988,2.3618,2.4043,2.4192,2.4842,2.5248,2.5398,2.6643,2.7143,2.6991,2.7737,2.7897,2.7585,2.7719,2.7552,2.7169,2.7031,2.6781,2.642,2.5676,2.4594,2.3363,2.3079,2.2615,2.2098,2.223,2.2367,2.2513,2.2907,2.2674,2.211,2.1322,0.0,0.0,0.0,0.0,0.0,0.0,0.0,0.0,0.0,0.0,0.0,0.0,0.0,0.0,0.0,0.0,0.0,0.0,0.0,0.0,3.1173,3.2662,3.4054,3.5754,3.5553,3.5173,3.5023,3.4718,3.4726,3.5335,3.6096,3.6631,3.6795,3.7353,3.7753,3.7893,3.8464,3.8791,3.8791,3.9356,3.9745,3.9886,3.9886,3.996,4.0096,4.0096,0.0,4.0077,3.9437,3.9489,4.0064,3.9401,3.9496,4.0052,3.9394,3.8789,3.8279,3.8641,3.8791,3.8723,3.8119,3.7815,3.7686,0.9971,0.9994,1.0065,1.0091,1.0074,1.0047,1.0019,0.9963,1.0528,1.2089,1.2998,1.4112,1.5715,1.6915,1.763,1.7696,1.9105,0.0,0.0,2.2589,2.3173,2.3579,2.3988,2.4192,2.4192,2.4989,2.5597,2.5993,2.7205,2.7895,2.8118,2.8512,2.8499,2.8153,2.8153,2.795,2.7593,2.7593,2.7477,2.7276,2.6895,2.6099,2.5007,2.4017,2.3414,2.311,2.3173,2.3317,2.3505,2.3832,2.3788,2.3453,2.2648,2.2093,2.1426,0.0,0.0,0.0,0.0,0.0,0.0,0.0,0.0,0.0,0.0,0.0,0.0,0.0,0.0,2.6135,0.0,0.0,3.0993,3.3408,3.4831,3.5904,3.6605,3.6618,3.6354,3.5864,3.5362,3.5346,3.6129,3.6564,3.7111,3.785,3.825,3.8616,3.8977,3.9356,3.9542,3.9542,3.9903,4.0096,4.0096,4.0096,4.0096,4.0096,4.0096,4.0096,4.0083,3.9675,3.9496,3.9496,3.9496,3.9496,3.947,3.9066,3.8469,3.7831,3.8241,3.8619,3.8915,3.8535,3.8421,3.8447,1.0021,1.0067,1.0095,1.0095,1.0095,1.0081,1.0038,1.0012,1.0536,1.1971,1.2888,1.3966,1.5446,1.6397,1.7135,1.7717,1.8956,0.0,0.0,2.286,2.3524,2.4174,2.4192,2.4266,2.4433,2.5225,2.603,2.6827,2.764,2.8369,2.9002,2.9002,2.883,2.8524,2.8524,2.832,2.8006,2.8006,2.7964,2.7901,2.7901,2.7539,2.6824,2.5003,2.4177,2.3977,2.3766,2.3698,2.374,2.4086,2.4192,2.4082,2.3433,2.3228,2.2935,2.1426,2.0986,0.0,0.0,0.0,0.0,0.0,0.0,0.0,0.0,0.0,2.5823,2.7433,2.828,2.9423,3.1681,3.2629,3.3592,3.5224,3.6619,3.7378,3.6993,3.7086,3.7047,3.6615,3.5984,3.5915,3.6722,3.6925,3.7562,3.8893,3.9136,3.9474,4.0079,4.0096,4.0096,4.0096,4.0096,4.0096,4.0096,4.0096,4.0096,4.0096,4.0096,4.0096,4.0083,3.9933,3.9604,3.9166,3.9814,3.947,3.8474,3.8628,3.8161,3.7354,3.7354,3.7804,3.8474,3.8635,3.8725,3.8782,0.0,1.0091,1.0095,1.0095,1.0095,1.0093,1.0088,1.0087,1.0383,1.1225,1.2098,1.2944,1.3782,1.5277,1.7082,1.9242,2.0025,0.0,2.2943,2.3694,2.4119,2.4192,2.4192,2.4525,2.5248,2.6046,2.6869,2.7661,2.8479,2.8913,2.9002,2.9002,2.8985,2.8934,2.8934,2.87,2.8334,2.8334,2.8173,2.7901,2.7901,2.7851,2.7628,2.6286,2.5167,2.4284,2.3851,2.3698,2.374,2.4086,2.4192,2.4174,2.4098,2.4064,2.3896,2.299,0.0,2.2694,2.2602,2.3105,2.3827,2.4532,2.5406,2.6628,0.0,0.0,2.9983,3.1595,3.1999,3.2586,3.4285,3.4671,3.5279,3.6956,3.7382,3.7565,3.7736,3.7443,3.7186,3.7124,3.6217,3.5915,3.6722,3.7387,3.8125,3.8943,3.9616,4.0005,4.0096,4.0096,4.0096,4.0096,4.0096,4.0096,4.0096,4.0096,4.0096,4.0096,4.0096,4.0096,4.0077,3.9355,3.9385,3.9965,4.0058,3.8861,3.6919,3.7623,3.7063,3.5757,3.5757,3.6219,3.6949,3.7652,3.7923,3.8029,0.0,1.0095,1.0095,1.0095,1.0095,1.0095,1.0095,1.0095,1.039,1.1203,1.1623,1.2357,1.364,1.4841,1.6363,1.8316,1.9434,2.0773,2.2491,2.3611,2.4192,2.4192,2.4192,2.4582,2.5379,2.6193,2.6995,2.7792,2.8604,2.9002,2.9002,2.9002,2.9002,2.9002,2.9002,2.8911,2.8752,2.8752,2.8673,2.8533,2.8533,2.8533,2.8382,2.6909,2.6077,2.5532,2.4408,2.3993,0.0,0.0,2.4192,2.4192,2.4192,2.4192,2.4137,2.3804,2.4025,0.0,2.4974,2.5674,2.6379,0.0,2.7753,2.8959,2.9968,3.0919,3.1928,3.3066,3.4079,3.511,3.6248,3.645,3.6839,0.0,3.8197,3.8246,3.8358,3.7938,3.7609,3.7609,3.6696,3.6373,3.7133,3.7631,3.8204,3.8943,3.9683,4.0096,4.0096,4.0096,4.0096,4.0096,4.0096,4.0096,4.0096,4.0096,4.0096,4.0096,4.0096,4.0096,4.0083,3.9756,3.9522,3.9394,3.9394,3.8342,3.6653,3.7471,3.689,3.5496,3.5496,3.5693,3.6046,3.6813,3.7404,3.7835,0.0,1.0095,1.0095,1.0095,1.0095,1.0095,1.0095,1.0095,1.0326,1.0964,1.1253,1.204,1.3726,1.4633,1.5722,1.7164,1.8578,2.0083,2.1754,2.3163,2.4012,2.4194,2.4192,2.4582,2.5379,2.6193,2.6995,2.7792,2.8604,2.9002,2.9002,2.9002,2.9002,2.9002,2.9002,2.9002,2.9002,2.9002,2.9002,2.9002,2.9002,2.8877,2.8513,2.7139,2.646,2.6098,2.4706,2.4192,0.0,0.0,2.4025,2.4155,2.3933,2.4025,2.4247,2.447,2.5096,2.5868,2.6445,2.7344,0.0,2.8674,2.9992,3.1253,3.1467,3.2607,3.3859,3.4655,3.5609,3.66,3.7636,3.7658,3.7764,3.8575,3.8891,3.8946,3.8722,3.8432,3.8202,3.8139,3.7106,3.6665,3.7354,3.7535,3.799,3.8926,3.9491,3.9886,4.0096,4.0096,4.0096,4.0096,4.0096,4.0096,4.0096,4.0096,4.0096,4.0096,4.0096,4.0096,4.0096,4.0096,3.9552,3.8608,3.8813,3.7908,3.636,3.7145,3.6684,3.5496,3.5496,3.5496,3.5554,3.6102,3.6677,3.719,0.0,0.0,1.0095,1.0095,1.0095,1.0095,1.0095,1.0095,1.0114,1.0134,1.0887,1.204,1.3726,1.4564,1.5417,1.6437,1.7756,1.9245,2.0925,2.2417,2.3526,2.4165,2.4192,2.4582,2.5379,2.6193,2.6995,2.7792,2.8604,2.9002,2.9002,2.9002,2.9002,2.9002,2.9002,2.9002,2.9002,2.9002,2.9002,2.9002,2.9002,2.8531,2.7756,2.6922,2.6119,2.5322,2.4507,0.0,0.0,2.3302,2.3543,2.4061,2.3283,2.3561,0.0,2.5136,2.5938,2.657,2.6589,0.0,2.9338,3.0895,3.2492,3.3895,3.4674,3.5543,3.6417,3.7213,3.6806,3.6784,3.8373,3.8036,3.7764,3.8575,3.935,3.9592,3.8813,3.8913,3.8963,3.8711,3.7336,3.6615,0.0,3.6986,3.7449,3.8893,3.9011,3.9356,4.0056,4.0096,4.0096,4.0096,4.0096,4.0096,4.0096,4.0096,4.0096,4.0096,4.0096,4.0096,4.0096,4.0096,3.9272,3.7863,3.8587,3.7614,3.5587,3.6329,3.6188,3.5496,3.5496,3.5496,3.5496,3.5529,3.5553,3.5668,0.0,0.0,0.0,1.0095,1.0095,1.0095,1.0095,1.0095,1.0095,1.0095,1.1369,0.0,0.0,0.0,0.0,0.0,1.7283,1.8499,2.0223,2.1723,2.2896,2.3699,2.428,2.4976,2.578,2.605,2.6604,2.74,2.7537,2.7606,2.762,2.8011,2.8206,2.8225,2.8767,2.9002,2.8965,2.8426,2.8513,2.891,2.7834,2.7564,2.7646,2.6308,2.5298,2.4507,0.0,0.0,0.0,2.3098,2.3173,2.3451,2.371,0.0,0.0,2.5805,2.6389,2.7068,2.9203,0.0,3.1775,3.3393,3.4629,3.5532,3.5804,3.649,3.7011,3.6754,3.6901,3.7103,3.7114,3.6894,3.6971,3.776,3.8583,3.9019,3.874,3.9703,3.9995,3.8835,3.8115,0.0,0.0,0.0,0.0,3.821,3.8717,3.9316,4.0056,4.0096,4.0096,4.0096,4.0096,4.0096,4.0096,4.0096,4.0096,4.0096,4.0096,4.0096,4.0096,4.0096,3.9532,3.8573,3.9365,3.8377,3.6283,3.707,3.6646,3.5496,3.5496,3.5496,3.5496,3.5496,3.5496,3.5537,0.0,0.0,0.0,0.0,0.0,0.0,0.0,0.0,0.0,0.0,0.0,0.0,0.0,0.0,0.0,0.0,0.0,0.0,1.8989,2.0534,2.1769,2.2571,2.3422,2.4104,2.4633,2.4928,2.5474,2.6305,2.6478,2.6691,2.7019,2.7408,2.7551,2.7503,2.8028,2.821,2.8109,2.7582,2.7674,2.8051,2.7026,2.6741,2.6804,2.5466,2.447,0.0,0.0,0.0,2.2107,2.2107,2.2508,2.3045,2.3274,0.0,2.5252,2.6295,2.7213,2.8463,3.1109,3.2427,3.3488,3.5415,3.6303,3.6806,3.7096,3.7342,3.7272,3.6472,3.6233,3.602,3.5499,3.5165,3.5444,3.6846,3.7995,3.8795,3.9093,4.0278,4.0714,3.9672,3.9011,3.8487,0.0,0.0,0.0,3.7884,3.8582,3.9316,4.0056,4.0096,4.0096,4.0096,4.0096,4.0096,4.0096,4.0096,4.0096,4.0096,4.0096,4.0096,4.0096,4.0096,3.9656,3.8928,3.945,3.867,3.7047,3.7286,3.6783,3.5871,3.5603,3.5496,3.5496,3.5496,3.5496,3.5496,0.0,0.0,0.0,0.0,0.0,0.0,0.0,0.0,0.0,0.0,0.0,0.0,0.0,0.0,0.0,0.0,0.0,0.0,0.0,0.0,0.0,2.0938,2.1724,2.2189,2.2229,2.297,2.3768,2.4603,2.5357,2.6161,2.7036,2.7062,2.6989,2.6863,2.6888,2.6794,2.6607,2.657,2.6549,2.6549,2.646,2.5972,2.5208,2.4383,0.0,0.0,0.0,0.0,0.0,0.0,0.0,0.0,0.0,0.0,0.0,2.6809,2.85,3.0684,3.2347,3.3381,3.4563,3.696,3.7566,3.7746,3.8465,3.8017,3.7199,3.6288,3.4801,3.3642,0.0,0.0,3.3341,3.5774,3.7584,3.8982,3.9798,4.0667,4.1191,0.0,0.0,0.0,0.0,0.0,0.0,3.7998,0.0,3.9316,4.0056,4.0096,4.0096,4.0096,4.0096,4.0096,4.0096,4.0096,4.0096,4.0096,4.0096,4.0096,4.0096,4.0096,3.9675,3.8955,3.8955,3.8518,3.7733,3.6987,3.6607,3.6469,3.5774,3.5496,3.5496,3.5496,3.5496,3.5496,0.0,0.0,0.0,0.0,0.0,0.0,0.0,0.0,0.0,0.0,0.0,0.0,0.0,0.0,0.0,0.0,0.0,0.0,0.0,0.0,0.0,0.0,2.1241,2.1974,2.2631,2.2856,2.3065,2.3277,2.334,2.3812,2.4681,2.5136,2.566,2.6251,2.6699,2.6867,2.6775,2.6181,2.5901,2.5743,0.0,2.4,2.3662,0.0,0.0,0.0,0.0,0.0,0.0,0.0,0.0,0.0,0.0,2.6355,2.7845,0.0,0.0,3.2476,3.4739,3.5943,3.6846,3.8087,3.8395,3.8289,3.7893,3.7173,3.6013,3.3965,3.2724,3.1644,0.0,0.0,0.0,3.4141,3.6835,0.0,3.9798,4.1611,0.0,4.1246,0.0,4.0524,3.9592,3.9508,0.0,0.0,3.8893,3.9316,4.0056,4.0096,4.0096,4.0096,4.0096,4.0096,4.0096,4.0096,4.0096,4.0096,4.0096,4.0096,4.0096,4.0096,3.9995,3.9795,3.9795,3.9035,3.7777,3.7573,3.6822,3.5758,3.557,3.5496,3.5496,3.5496,3.5496,3.5496,0.0,0.0,0.0,0.0,0.0,0.0,0.0,0.0,0.0,0.0,0.0,0.0,0.0,0.0,0.0,0.0,0.0,0.0,0.0,0.0,0.0,1.8599,1.9774,2.0623,2.1126,2.1506,2.1871,2.2236,0.0,0.0,2.3371,2.3711,2.4077,2.4489,2.4825,2.4926,2.4794,2.4288,0.0,0.0,0.0,0.0,0.0,0.0,0.0,0.0,0.0,0.0,0.0,0.0,0.0,2.5597,2.6762,2.8157,2.972,3.1424,0.0,3.4593,3.6347,3.7412,3.8146,3.8597,3.8432,3.7867,3.667,3.5514,3.3987,3.154,3.0375,0.0,2.8182,2.9268,0.0,0.0,0.0,0.0,3.9684,4.1373,4.2378,0.0,4.1967,0.0,4.0605,4.0605,4.0433,0.0,3.9624,3.9666,4.0072,4.0096,4.0096,4.0096,4.0096,4.0096,4.0096,4.0096,4.0096,4.0096,4.0096,4.0096,4.0096,4.0096,4.0096,4.0096,4.0096,3.9404,3.8253,3.7935,3.7078,3.5951,3.5635,3.5496,3.5496,3.5496,3.5496,3.5496,0.0,0.0,0.0,0.0,0.0,0.0,0.0,0.0,0.0,0.0,0.0,0.0,0.0,0.0,0.0,0.0,0.0,0.0,0.0,0.0,0.0,1.6509,1.7894,1.8718,1.8847,1.9689,2.0477,0.0,0.0,0.0,0.0,0.0,0.0,0.0,0.0,0.0,0.0,0.0,0.0,0.0,0.0,0.0,0.0,0.0,0.0,0.0,0.0,0.0,0.0,0.0,2.5705,2.6164,2.7774,2.9793,3.1754,3.2791,3.4611,3.649,3.7415,3.8179,3.8703,3.8703,3.8014,3.6901,3.5224,3.3518,3.1595,2.9189,0.0,2.7242,2.6426,2.7595,2.9283,3.1097,0.0,3.7055,3.9684,4.0759,4.1823,4.3322,4.2878,4.2323,4.1949,4.1853,4.155,4.0949,4.0405,4.0133,4.0198,4.014,4.0096,4.0096,4.0096,4.0096,4.0096,4.0096,4.0096,4.0096,4.0096,4.0096,4.0096,4.0096,4.0096,4.0096,4.0096,3.9591,3.8704,3.8064,3.7271,3.6392,3.575,3.5496,3.5496,3.5496,3.5496,3.5496,0.0,0.0,0.0,0.0,0.0,0.0,0.0,0.0,0.0,0.0,1.3814,1.4157,0.0,0.0,0.0,0.0,0.0,0.0,0.0,0.0,0.0,0.0,1.6815,1.7264,1.7994,0.0,0.0,0.0,0.0,0.0,0.0,0.0,0.0,0.0,0.0,0.0,0.0,0.0,0.0,0.0,0.0,0.0,0.0,0.0,0.0,0.0,0.0,0.0,0.0,0.0,2.7286,2.8662,3.0271,3.1513,3.2828,3.5018,3.5958,3.6619,3.8079,3.8593,3.8703,3.8703,3.7606,3.6071,3.4394,3.2244,0.0,0.0,2.6379,2.5576,2.4761,2.5931,2.7986,3.0916,3.3543,3.6545,4.0369,4.1585,4.2433,0.0,4.3378,4.3086,4.2598,4.2101,0.0,0.0,4.0405,4.0293,4.0744,4.0331,4.0096,4.0096,4.0096,4.0096,4.0096,4.0096,4.0096,4.0096,4.0096,4.0096,4.0096,4.0096,4.0096,4.0096,4.0096,3.9299,3.7978,3.7842,3.6973,3.5676,3.5546,3.5496,3.5496,3.5496,3.5496,3.5496,0.0,0.0,0.0,0.0,0.0,0.0,0.0,1.1649,1.2685,1.3937,1.4861,1.5567,1.5982,1.5611,0.0,0.0,0.0,0.0,0.0,0.0,0.0,0.0,0.0,1.675,0.0,0.0,0.0,0.0,0.0,0.0,0.0,0.0,0.0,0.0,0.0,0.0,0.0,0.0,0.0,0.0,0.0,0.0,0.0,0.0,0.0,0.0,0.0,0.0,0.0,0.0,2.7096,2.8723,3.0766,3.2247,3.3638,3.5697,3.6604,3.7173,3.8377,3.8703,3.8593,3.8179,3.6835,3.4974,3.2485,0.0,0.0,0.0,2.5036,2.4656,2.4266,2.5527,0.0,2.9206,3.1201,3.3925,3.8021,3.9298,0.0,4.2621,4.3249,4.3281,0.0,4.2152,4.1675,4.1397,4.0582,4.021,4.0467,4.0241,4.0096,4.0096,4.0096,4.0096,4.0096,4.0096,4.0096,4.0096,4.0096,4.0096,4.0096,4.0096,4.0096,4.0096,4.0096,3.9431,3.8337,3.7957,3.7123,3.6031,3.5644,3.5496,3.5496,3.5496,3.5496,3.5496,0.0,0.0,0.0,0.0,0.0,0.0,0.0,1.2293,1.3311,1.4507,1.5698,1.6558,1.6941,1.6209,1.5583,0.0,0.0,0.0,0.0,0.0,0.0,0.0,0.0,0.0,0.0,0.0,0.0,0.0,0.0,0.0,0.0,0.0,0.0,0.0,0.0,0.0,0.0,0.0,0.0,0.0,0.0,0.0,0.0,0.0,0.0,0.0,0.0,0.0,0.0,0.0,2.6107,2.7485,2.9882,3.1736,3.3366,3.5022,3.6196,3.7173,3.8175,3.8575,3.8505,3.7694,3.6101,3.3959,3.0883,2.8815,0.0,0.0,2.4192,2.4192,2.4192,0.0,2.6463,0.0,2.9017,3.1436,3.5701,3.7136,3.8898,0.0,4.3006,0.0,4.2911,4.2223,0.0,4.1979,4.092,4.0223,4.0119,4.0096,4.0096,4.0096,4.0096,4.0096,4.0096,4.0096,4.0096,4.0096,4.0096,4.0096,4.0096,4.0096,4.0096,4.0096,4.0096,3.9643,3.8854,3.8267,3.7565,3.6783,3.603,3.5741,3.5717,3.5554,3.5496,3.5496,0.0,0.0,0.0,0.0,0.0,0.0,0.0,1.2299,1.3769,1.6152,1.5917,1.6115,1.7704,1.7101,1.6269,0.0,0.0,0.0,0.0,0.0,0.0,0.0,0.0,0.0,0.0,0.0,0.0,0.0,0.0,0.0,0.0,0.0,0.0,0.0,0.0,0.0,0.0,0.0,0.0,0.0,0.0,0.0,0.0,0.0,0.0,0.0,0.0,0.0,0.0,0.0,0.0,2.5113,2.7411,2.924,3.0849,3.2479,0.0,0.0,3.7173,3.8142,3.8505,3.7694,3.5686,3.3256,3.0775,0.0,0.0,2.4559,2.4192,2.4192,2.4192,2.4321,2.5165,2.7425,0.0,3.0785,3.5624,3.7624,3.9511,4.1992,0.0,0.0,4.3431,4.2431,4.2038,4.2581,4.1501,4.0607,4.0127,4.0096,4.0096,4.0096,4.0096,4.0096,4.0096,4.0096,4.0096,4.0096,4.0096,4.0096,4.0096,4.0096,4.0096,4.0096,4.0096,3.9643,3.8894,3.8827,3.8365,3.761,3.6813,3.6492,3.6423,3.5757,3.5496,3.5496,0.0,0.0,0.0,0.0,0.0,0.0,1.2062,1.2182,1.3027,1.5586,1.5625,1.5662,1.6356,1.6596,1.6348,0.0,0.0,0.0,0.0,0.0,0.0,0.0,0.0,0.0,0.0,0.0,0.0,0.0,0.0,0.0,0.0,0.0,0.0,0.0,0.0,0.0,0.0,0.0,0.0,0.0,0.0,0.0,0.0,0.0,0.0,0.0,0.0,0.0,0.0,0.0,0.0,0.0,2.476,2.5901,0.0,0.0,3.2662,3.3903,3.5543,3.6615,3.7055,3.6208,3.4519,3.2442,3.0035,0.0,2.6148,2.4522,2.4192,2.4192,2.4192,2.4192,2.4672,2.6127,2.6211,2.7637,3.2008,3.3608,3.5756,3.9676,4.1273,0.0,0.0,0.0,4.1745,4.1621,4.1172,4.0809,4.0595,4.0285,4.0096,4.0096,4.0096,4.0096,4.0096,4.0096,4.0096,4.0096,4.0096,4.0096,4.0096,4.0096,4.0096,4.0096,4.0096,3.992,3.9574,3.9099,3.8724,3.8386,3.7623,3.7024,3.6554,3.6267,3.5879,3.5496,0.0,0.0,0.0,0.0,0.0,1.0717,1.2223,1.2175,1.2812,1.5098,1.5176,1.5215,1.5723,1.5879,1.5781,1.543,0.0,0.0,0.0,0.0,0.0,0.0,0.0,0.0,0.0,0.0,0.0,0.0,0.0,0.0,0.0,0.0,0.0,0.0,0.0,0.0,0.0,0.0,0.0,0.0,0.0,0.0,0.0,0.0,0.0,0.0,0.0,0.0,0.0,0.0,0.0,0.0,0.0,0.0,0.0,0.0,3.0928,3.2234,3.3845,3.5081,3.5712,3.4861,3.3448,3.1617,0.0,2.7399,2.586,2.4486,2.4192,2.4192,2.4192,2.4192,2.4396,2.4952,2.4766,2.5883,2.9677,3.1109,3.3385,0.0,0.0,4.0807,0.0,4.2021,4.1734,4.0961,4.107,4.1093,4.0909,4.0392,4.0096,4.0096,4.0096,4.0096,4.0096,4.0096,4.0096,4.0096,4.0096,4.0096,4.0096,4.0096,4.0096,4.0096,4.0096,4.0096,4.0058,3.9489,3.9256,3.9173,3.8414,3.7652,3.6934,3.6684,3.6126,3.5496,0.0,0.0,0.0,0.0,0.0,0.0,1.1464,1.2344,1.3496,1.5176,1.4648,1.4766,1.6504,1.5156,1.4473,1.5332,0.0,0.0,0.0,0.0,0.0,0.0,0.0,0.0,0.0,0.0,0.0,0.0,0.0,0.0,0.0,0.0,0.0,0.0,0.0,0.0,0.0,0.0,0.0,0.0,0.0,0.0,0.0,0.0,0.0,0.0,0.0,0.0,0.0,0.0,0.0,0.0,0.0,0.0,0.0,0.0,2.8492,3.0574,3.2182,3.379,3.4821,3.4005,3.2602,3.0785,2.8364,2.6568,2.5175,2.4378,2.4192,2.4192,2.4192,2.4192,2.4192,2.421,2.4879,2.6513,2.9751,3.1577,3.3803,0.0,0.0,3.9122,4.0126,4.1727,4.2188,4.099,4.1457,4.1529,4.0932,4.0392,4.0096,4.0096,4.0096,4.0096,4.0096,4.0096,4.0096,4.0096,4.0096,4.0096,4.0096,4.0096,4.0096,4.0096,4.0096,4.0096,4.0096,4.0083,4.0083,4.0014,3.9193,3.8442,3.7683,3.6889,3.6126,3.5496,0.0,0.0,0.0,0.0,0.0,0.0,0.0,1.1328,1.1738,1.3477,1.293,1.2832,1.3984,1.4102,1.4219,1.4492,0.0,0.0,0.0,0.0,0.0,0.0,0.0,0.0,0.0,0.0,0.0,0.0,0.0,0.0,0.0,0.0,0.0,0.0,0.0,0.0,0.0,0.0,0.0,0.0,0.0,0.0,0.0,0.0,0.0,0.0,0.0,0.0,0.0,0.0,0.0,0.0,0.0,0.0,0.0,0.0,0.0,0.0,2.9113,3.0183,3.1018,3.0628,2.9714,2.86,2.7273,2.6159,2.5175,2.4378,2.4192,2.4192,2.4192,2.4192,2.4559,2.5655,2.6041,2.7145,2.9821,0.0,0.0,3.7107,3.9466,4.0772,0.0,0.0,4.1768,4.0961,4.1463,4.1534,4.0932,4.0392,4.0096,4.0096,4.0096,4.0096,4.0096,4.0096,4.0096,4.0096,4.0096,4.0096,4.0096,4.0096,4.0096,4.0096,4.0096,4.0096,4.0096,4.0096,4.0096,4.007,3.9814,3.9242,3.8462,3.7696,3.6919,3.6181,0.0,0.0,0.0,0.0,0.0,0.0,0.0,1.0937,1.1172,1.2266,1.1934,1.1934,1.2793,1.3047,1.3418,1.4043,0.0,0.0,0.0,0.0,0.0,0.0,0.0,0.0,0.0,0.0,0.0,0.0,0.0,0.0,0.0,0.0,0.0,0.0,0.0,0.0,0.0,0.0,0.0,0.0,0.0,0.0,0.0,0.0,0.0,0.0,0.0,0.0,0.0,0.0,0.0,0.0,0.0,0.0,0.0,0.0,2.4116,2.5813,0.0,2.8083,2.8693,2.8573,2.7949,2.7147,2.634,2.5516,2.4805,2.4302,2.4192,2.4192,2.4192,2.4192,2.4522,2.5527,2.5952,2.6998,0.0,0.0,0.0,3.754,0.0,0.0,0.0,4.103,4.1218,4.0631,4.1127,4.1201,4.0619,4.028,4.0096,4.0096,4.0096,4.0096,4.0096,4.0096,4.0096,4.0096,4.0096,4.0096,4.0096,4.0096,4.0096,4.0096,4.0096,4.0096,0.0,4.0096,4.0096,4.0096,4.0096,3.961,3.8813,3.8078,3.7294,3.6492,0.0,0.0,0.0,0.0,0.0,0.0,0.0,0.0,1.1504,1.1504,1.1504,1.1816,1.2637,1.2051,1.2246,1.3867,0.0,0.0,0.0,0.0,0.0,0.0,0.0,0.0,0.0,0.0,0.0,1.8008,1.9004,1.9902,2.0684,0.0,0.0,0.0,0.0,0.0,0.0,0.0,0.0,0.0,0.0,0.0,0.0,0.0,0.0,0.0,0.0,0.0,0.0,0.0,0.0,0.0,0.0,0.0,0.0,0.0,0.0,0.0,0.0,2.7032,0.0,2.7489,2.6953,2.6224,2.5485,2.4748,0.0,2.4192,2.4192,2.421,2.4266,2.4247,2.4266,2.4431,2.5133,0.0,0.0,3.1393,0.0,0.0,3.9259,0.0,3.9514,4.0352,4.0679,4.014,4.0601,4.0667,4.0127,4.0096,4.0096,4.0096,4.0096,4.0096,4.0096,4.0096,4.0096,4.0096,4.0096,4.0096,4.0096,4.0096,4.0096,4.0096,4.0096,4.0096,4.0096,4.0096,4.0096,4.0096,4.0096,3.961,3.8813,3.8078,3.7294,3.6492,0.0,0.0,0.0,0.0,0.0,0.0,0.0,0.0,0.0,0.0,1.0605,1.0684,1.0898,1.1328,1.2031,0.0,0.0,0.0,0.0,0.0,0.0,0.0,0.0,0.0,0.0,0.0,0.0,1.8008,2.0215,2.1387,2.1582,2.1582,0.0,0.0,0.0,0.0,0.0,0.0,0.0,0.0,0.0,0.0,0.0,0.0,0.0,0.0,0.0,1.9317,0.0,0.0,0.0,0.0,0.0,0.0,0.0,0.0,2.1497,2.1866,2.3177,0.0,2.447,2.4314,2.4524,2.4704,0.0,2.4341,2.4192,2.4192,0.0,0.0,2.5007,2.4619,2.4798,2.6654,0.0,2.8772,3.058,0.0,0.0,3.964,4.0662,4.1048,4.0587,4.0764,4.0679,4.014,4.0601,4.0667,4.0127,4.0096,4.0096,4.0096,4.0096,4.0096,4.0096,4.0096,4.0096,4.0096,4.0096,4.0096,4.0096,4.0096,4.0096,4.0096,4.0096,4.0096,4.0096,4.0096,4.0096,4.0096,4.0096,3.961,3.8813,3.8078,3.7294,3.6492,0.0,0.0,0.0,0.0,0.0,0.0,0.0,0.0,0.0,0.0,0.0,0.0,0.0,0.0,0.0,0.0,0.0,0.0,0.0,0.0,0.0,0.0,0.0,0.0,0.0,0.0,0.0,0.0,0.0,2.0918,0.0,0.0,0.0,0.0,0.0,0.0,0.0,0.0,0.0,0.0,0.0,0.0,0.0,0.0,0.0,0.0,1.822,1.8661,0.0,1.9544,1.9965,2.0308,0.0,0.0,0.0,0.0,2.0872,2.0886,2.1369,2.2408,2.3346,2.3225,2.3696,2.4192,2.4192,0.0,0.0,0.0,0.0,0.0,0.0,0.0,0.0,0.0,2.8237,0.0,0.0,0.0,3.9613,4.0623,4.1375,4.1561,0.0,4.0679,4.0417,4.0121,4.0368,4.0411,4.0125,4.0096,4.0096,4.0096,4.0096,4.0096,4.0096,4.0096,4.0096,4.0096,4.0096,4.0096,4.0096,4.0096,4.0096,4.0096,4.0096,4.0096,4.0096,4.0096,4.0096,4.0096,4.0096,3.9827,3.9315,3.8206,3.7522,3.6987,0.0,0.0,0.0,0.0,0.0,0.0,0.0,0.0,0.0,0.0,0.0,0.0,0.0,0.0,0.0,0.0,0.0,0.0,0.0,0.0,0.0,0.0,0.0,0.0,0.0,0.0,0.0,0.0,0.0,0.0,0.0,0.0,2.0312,0.0,0.0,0.0,0.0,0.0,0.0,0.0,0.0,0.0,0.0,0.0,0.0,0.0,0.0,0.0,0.0,1.891,1.9487,2.0117,2.0251,0.0,0.0,0.0,0.0,0.0,2.0443,2.1735,2.3051,2.3051,2.3654,2.4242,2.4202,0.0,0.0,0.0,0.0,0.0,0.0,2.5115,0.0,0.0,0.0,0.0,3.5829,3.8458,4.0229,4.1102,4.1558,0.0,4.0961,4.0406,4.0096,4.0096,4.0096,4.0096,4.0096,4.0096,4.0096,4.0096,4.0096,4.0096,4.0096,4.0096,4.0096,4.0096,4.0096,4.0096,4.0096,4.0096,4.0096,4.0096,4.0096,4.0096,4.0096,4.0096,4.0096,4.0096,4.0096,4.0026,3.9756,3.8451,3.782,3.7404,0.0,0.0,0.0,0.0,0.0,0.0,0.0,0.0,0.0,0.0,0.0,0.0,0.0,0.0,0.0,0.0,0.0,0.0,0.0,0.0,0.0,0.0,0.0,0.0,0.0,0.0,0.0,0.0,0.0,0.0,2.1719,2.2461,2.1152,1.8164,0.0,0.0,0.0,0.0,0.0,0.0,0.0,0.0,0.0,0.0,0.0,0.0,0.0,0.0,0.0,1.8518,1.9081,1.9336,2.0061,0.0,0.0,0.0,0.0,0.0,2.1137,2.1824,2.2344,2.2344,2.3407,2.4415,2.4242,0.0,0.0,0.0,0.0,0.0,0.0,2.6334,2.6901,0.0,0.0,3.3286,0.0,0.0,4.0024,4.0343,0.0,4.1561,4.0961,4.0406,4.0096,4.0096,4.0096,4.0096,4.0096,4.0096,4.0096,4.0096,4.0096,4.0096,4.0096,4.0096,4.0096,4.0096,4.0096,4.0096,4.0096,4.0096,4.0096,4.0096,4.0096,4.0096,4.0096,4.0096,4.0096,4.0096,4.0096,3.9675,3.9059,3.882,3.7894,3.6661,0.0,0.0,0.0,0.0,0.0,0.0,0.0,0.0,0.0,0.0,0.0,0.0,0.0,0.0,0.0,0.0,0.0,0.0,0.0,0.0,0.0,0.0,0.0,0.0,0.0,0.0,0.0,0.0,0.0,2.1894,2.1894,2.1348,1.998,1.7969,0.0,0.0,0.0,0.0,0.0,0.0,0.0,0.0,0.0,0.0,0.0,0.0,0.0,0.0,0.0,0.0,1.8255,1.907,1.9469,0.0,0.0,0.0,0.0,0.0,2.0751,2.168,2.2472,2.2252,2.3604,2.4965,2.4869,0.0,0.0,0.0,0.0,0.0,0.0,0.0,2.8714,3.1194,0.0,3.5778,3.729,3.8884,3.9718,0.0,0.0,4.0217,3.9357,3.9415,3.9508,3.9508,3.9869,3.9937,3.9525,3.9508,3.9316,3.8926,3.891,3.891,3.891,3.9305,3.97,4.0096,4.0096,4.0096,4.0096,4.0096,4.0096,4.0096,4.0096,4.0096,4.0096,4.0096,4.0096,4.0096,4.0096,3.9859,3.945,3.8608,3.7578,3.6492,0.0,0.0,0.0,0.0,0.0,0.0,0.0,0.0,0.0,0.0,0.0,0.0,0.0,0.0,0.0,0.0,0.0,0.0,0.0,0.0,1.4707,1.6035,1.6484,0.0,0.0,0.0,1.9062,2.0605,2.1465,2.1894,2.1875,2.0312,1.9023,1.7969,0.0,0.0,0.0,0.0,0.0,0.0,0.0,0.0,0.0,0.0,0.0,0.0,0.0,0.0,0.0,0.0,0.0,0.0,0.0,0.0,0.0,2.0308,2.0308,2.0346,2.0539,2.1635,2.2696,2.2593,0.0,2.5337,2.5622,0.0,0.0,0.0,0.0,0.0,0.0,2.8916,0.0,3.3917,3.6148,3.7566,3.7746,3.9009,3.9497,3.8436,3.9011,3.9077,3.8007,3.8413,3.8734,3.8734,3.9271,3.9339,3.8768,3.8734,3.8481,3.7916,3.7899,3.7899,3.7899,3.8464,3.9034,3.9599,3.9937,4.0005,3.9836,3.9836,3.9937,4.0096,3.992,3.9937,4.0096,4.0096,4.0096,4.0096,4.0096,4.0096,3.9927,3.8562,3.7674,3.7017,0.0,0.0,0.0,0.0,0.0,0.0,0.0,0.0,0.0,0.0,0.0,0.0,0.0,0.0,0.0,0.0,0.0,0.0,0.0,0.0,1.416,1.4277,1.584,0.0,0.0,1.918,1.9668,2.0605,2.1465,2.1894,2.1875,2.0937,1.9609,1.7969,0.0,0.0,0.0,0.0,0.0,0.0,0.0,0.0,0.0,0.0,0.0,0.0,0.0,0.0,0.0,0.0,0.0,0.0,0.0,0.0,2.0308,2.0308,2.0308,2.0463,2.1214,2.1967,2.2702,2.349,2.427,0.0,2.6258,2.6552,0.0,2.8528,0.0,0.0,0.0,3.1861,3.4045,3.5829,3.6901,3.7764,3.8505,0.0,3.9497,3.8436,3.9011,3.9077,3.8007,3.795,3.7984,3.7984,3.8035,3.8035,3.7984,3.7984,3.795,3.7899,3.7899,3.7899,3.7899,3.795,3.8018,3.8069,3.9446,3.9734,3.9085,3.9085,3.9457,4.0056,3.9389,3.9474,4.0096,4.0096,4.0096,4.0096,4.0096,4.0096,4.0001,3.9133,3.8786,3.8522,0.0,0.0,0.0,0.0,0.0,0.0,0.0,0.0,0.0,0.0,0.0,0.0,0.0,0.0,0.0,0.0,0.0,0.0,0.0,0.0,1.3828,1.4863,1.6055,1.7266,1.8477,1.9023,1.998,2.1406,2.1738,2.1894,2.1855,1.9902,0.0,0.0,0.0,0.0,0.0,0.0,0.0,0.0,0.0,0.0,0.0,0.0,0.0,0.0,0.0,0.0,0.0,0.0,1.6832,1.7738,1.7889,1.9021,2.0193,1.9641,1.9889,2.0366,2.0674,2.1967,2.3207,2.3032,2.4559,0.0,0.0,2.7822,2.8693,3.0803,3.0846,0.0,0.0,0.0,3.4357,3.6031,3.6975,3.7782,3.8597,3.896,3.8773,3.7747,3.7886,3.7646,3.6571,3.6924,3.7224,3.7224,3.7646,3.7702,3.7241,3.7224,3.6992,3.649,3.6467,3.6467,3.6467,3.6975,3.6958,3.649,3.8007,3.8588,3.8328,3.8328,3.8464,3.8717,3.8447,3.8464,3.8774,3.9237,3.9153,3.8774,3.9237,3.97,4.0007,3.9209,3.8901,3.8674,0.0,0.0,0.0,0.0,0.0,0.0,0.0,0.0,0.0,0.0,0.0,0.0,0.0,0.0,0.0,0.0,0.0,0.0,0.0,0.0,1.3103,1.4527,0.0,1.6709,1.7578,1.8691,2.0,2.1484,2.1744,2.1596,2.1018,0.0,0.0,0.0,0.0,0.0,0.0,0.0,0.0,0.0,0.0,0.0,0.0,0.0,0.0,0.0,0.0,0.0,0.0,0.0,1.6369,1.7314,1.7295,1.8487,1.9774,1.9184,1.9795,2.0607,2.0293,2.1985,2.3719,0.0,0.0,0.0,2.8523,2.9123,3.0146,3.2803,3.2919,0.0,0.0,0.0,0.0,0.0,3.7191,3.8069,3.8612,3.8703,3.8336,3.7326,3.7209,3.6771,3.57,3.609,3.6423,3.6423,3.6885,3.6952,3.6457,3.6423,3.6163,3.5622,3.56,3.56,3.56,3.6146,3.6146,3.5616,3.6676,3.7308,3.755,3.755,3.7686,3.7883,3.7652,3.7686,3.7933,3.8447,3.8362,3.795,3.8464,3.896,3.9367,3.9053,3.892,3.8781,0.0,0.0,0.0,0.0,0.0,0.0,0.0,0.0,0.0,0.0,0.0,0.0,0.0,0.0,0.0,0.0,0.0,0.0,0.0,1.1113,0.0,0.0,0.0,1.5789,1.668,1.832,1.9648,2.0586,2.1389,2.0898,1.9187,1.9124,0.0,0.0,0.0,0.0,0.0,0.0,0.0,0.0,0.0,0.0,0.0,0.0,0.0,0.0,0.0,0.0,0.0,0.0,1.6486,1.6794,1.8434,1.8993,1.9012,1.8973,2.0162,2.128,2.0282,2.1993,0.0,0.0,0.0,0.0,2.982,3.0336,3.1103,3.434,0.0,3.5016,3.5019,3.5727,0.0,3.6306,3.7657,3.8681,3.8703,3.8703,3.8336,3.7326,3.7209,3.6771,3.57,3.56,3.56,3.56,3.56,3.56,3.56,3.56,3.56,3.56,3.56,3.56,3.56,3.56,3.56,3.56,3.56,3.6022,3.6795,3.6795,3.719,3.7832,3.7105,3.7201,3.7883,3.7883,3.7883,3.7899,3.7893,3.7893,3.7984,3.8717,3.8994,3.8986,0.0,0.0,0.0,0.0,0.0,0.0,0.0,0.0,0.0,0.0,0.0,0.0,0.0,0.0,0.0,0.0,0.0,0.0,0.0,0.0,0.0,0.0,0.0,0.0,0.0,0.0,1.8102,1.9615,1.9896,1.9436,0.0,0.0,0.0,1.6973,0.0,0.0,0.0,0.0,0.0,0.0,0.0,0.0,0.0,0.0,0.0,0.0,0.0,0.0,0.0,0.0,0.0,0.0,1.6369,1.7984,1.9562,1.7775,1.9255,2.1301,2.0451,2.1863,0.0,0.0,0.0,0.0,0.0,3.0336,0.0,0.0,3.5947,3.66,3.6024,3.6138,0.0,3.7048,3.7544,3.8054,3.8612,3.8703,3.8336,3.7326,3.7209,3.6771,3.57,3.56,3.56,3.56,3.56,3.56,3.56,3.56,3.56,3.56,3.56,3.56,3.56,3.56,3.56,3.56,3.56,3.5723,3.5955,3.5955,3.609,3.6264,3.605,3.6084,3.6281,3.6281,3.6924,3.7849,3.7336,3.7432,3.7933,3.8159,3.8221,3.8141,0.0,0.0,0.0,0.0,0.0,0.0,0.0,0.0,0.0,0.0,0.0,0.0,0.0,0.0,0.0,0.0,0.0,0.0,0.0,0.0,0.0,0.0,0.0,0.0,0.0,1.6325,1.7094,0.0,0.0,0.0,0.0,0.0,0.0,1.7044,0.0,1.7038,0.0,0.0,0.0,0.0,0.0,1.5251,1.5296,0.0,0.0,0.0,0.0,0.0,0.0,0.0,0.0,0.0,1.5771,0.0,1.8608,1.7652,1.9288,2.1316,2.1014,0.0,0.0,0.0,0.0,2.9517,3.1008,0.0,0.0,0.0,0.0,3.6975,3.6806,3.6787,0.0,3.7419,3.7764,3.8142,3.863,3.8703,3.8336,3.7326,3.7209,3.6771,3.57,3.56,3.56,3.56,3.56,3.56,3.56,3.56,3.56,3.56,3.56,3.56,3.56,3.56,3.56,3.56,3.56,3.56,3.56,3.56,3.56,3.56,3.56,3.56,3.56,3.56,3.6146,3.6947,3.6502,3.6586,3.7031,3.7347,3.7455,3.7446,0.0,0.0,0.0,0.0,0.0,0.0,0.0,0.0,0.0,0.0,0.0,0.0,0.0,0.0,0.0,0.0,0.0,0.0,0.0,0.0,0.0,1.2632,1.2842,1.4014,0.0,0.0,0.0,0.0,0.0,0.0,0.0,0.0,1.8431,1.7622,0.0,1.8393,0.0,0.0,0.0,0.0,1.5274,1.5297,1.5296,1.5298,0.0,0.0,0.0,0.0,0.0,0.0,0.0,0.0,1.6138,1.6486,1.6866,1.8138,1.9773,2.1283,2.1728,0.0,0.0,0.0,0.0,0.0,3.2218,3.3848,3.5133,3.6006,0.0,3.6512,3.7254,3.7456,3.7492,3.7492,3.8179,3.8703,3.8703,3.8703,3.8336,3.7326,3.7209,3.6771,3.57,3.56,3.56,3.56,3.56,3.56,3.56,3.56,3.56,3.56,3.56,3.56,3.56,3.56,3.56,3.56,3.56,3.56,3.56,3.56,3.56,3.56,3.56,3.56,3.56,3.56,3.56,3.56,3.56,3.56,3.569,3.6423,3.6682,3.6784,0.0,0.0,0.0,0.0,0.0,0.0,0.0,0.0,0.0,0.0,0.0,0.0,0.0,0.0,0.0,0.0,0.0,0.0,0.0,0.0,1.0885,1.2617,1.3958,1.4922,1.547,1.5489,1.5489,1.5489,0.0,0.0,0.0,0.0,0.0,1.6793,0.0,1.7521,0.0,0.0,0.0,1.5275,1.5244,1.5259,1.5302,1.5299,1.5306,0.0,0.0,0.0,0.0,0.0,0.0,0.0,1.5424,1.6388,1.7385,1.7068,1.8974,2.1221,2.1318,2.3011,0.0,0.0,2.8912,3.14,3.3156,3.3807,3.4296,3.5114,3.5822,3.6343,3.6527,3.7066,3.7492,3.7492,3.8179,3.8703,3.8703,3.8703,3.8336,3.7326,3.7209,3.6771,3.57,3.56,3.56,3.56,3.56,3.56,3.56,3.56,3.56,3.56,3.56,3.56,3.56,3.56,3.56,3.56,3.56,3.56,3.56,3.56,3.56,3.56,3.56,3.56,3.56,3.56,3.56,3.56,3.56,3.56,3.5622,3.5791,3.5864,3.5881,0.0,0.0,0.0,0.0,0.0,0.0,0.0,0.0,0.0,0.0,0.0,0.0,0.0,0.0,0.0,0.0,0.0,0.0,0.0,0.0,1.0886,1.2624,1.4311,1.5192,1.5192,1.4786,1.4786,0.0,0.0,0.0,0.0,0.0,0.0,1.772,0.0,1.7851,0.0,0.0,0.0,1.5244,1.5253,1.5016,1.4677,1.4677,1.4687,1.4661,1.4635,0.0,0.0,0.0,0.0,0.0,0.0,0.0,1.6568,1.6847,1.8385,2.0243,0.0,0.0,0.0,2.8368,0.0,0.0,3.3425,3.3807,3.3917,3.4332,3.5081,3.5804,3.6211,3.6641,3.7048,3.7437,3.7852,3.8267,3.8648,3.8703,3.8336,3.7326,3.7209,3.6771,3.57,3.56,3.56,3.56,3.56,3.56,3.56,3.56,3.56,3.56,3.56,3.56,3.56,3.56,3.56,3.56,3.56,3.56,3.56,3.56,3.56,3.56,3.56,3.56,3.56,3.56,3.56,3.56,3.56,3.56,3.56,3.56,3.56,3.56,0.0,0.0,0.0,0.0,0.0,0.0,0.0,0.0,0.0,0.0,0.0,0.0,0.0,0.0,0.0,0.0,0.0,0.0,0.0,1.0249,1.1041,1.2624,1.4156,1.4979,1.4979,1.4265,1.4246,0.0,0.0,0.0,0.0,0.0,0.0,1.899,0.0,0.0,0.0,0.0,1.5779,1.5002,1.504,1.4545,1.3783,1.3783,1.3783,1.3781,1.3864,1.4361,1.4999,1.5153,0.0,0.0,0.0,0.0,1.5479,1.6839,1.7938,1.9118,0.0,0.0,2.6275,3.0043,3.1188,0.0,3.326,3.3697,3.3807,3.3807,3.4332,3.5008,3.5737,3.5976,3.6288,3.6953,3.7195,3.7525,3.8189,3.8285,3.7903,3.6918,3.6784,3.6368,3.5315,3.5211,3.5267,3.5408,3.5402,3.5475,3.5583,3.56,3.56,3.56,3.56,3.56,3.56,3.56,3.56,3.56,3.56,3.56,3.56,3.56,3.56,3.56,3.56,3.56,3.56,3.56,3.56,3.56,3.56,3.56,3.56,3.56,3.56,3.56,0.0,0.0,0.0,0.0,0.0,0.0,0.0,0.0,0.0,0.0,0.0,1.0095,1.0095,1.0095,0.0,0.0,0.0,0.0,1.0095,0.0,0.0,1.2663,1.3577,1.4071,1.4071,1.3956,1.3956,0.0,0.0,0.0,0.0,0.0,0.0,1.8979,0.0,0.0,0.0,0.0,0.0,1.4165,1.4115,1.3597,1.2875,1.2875,1.2875,1.295,1.3652,1.3975,1.4187,1.4941,1.5192,0.0,0.0,0.0,1.5382,1.6348,1.7603,1.8761,0.0,0.0,2.525,0.0,3.0372,3.1647,0.0,0.0,3.3807,0.0,3.3899,3.4009,3.41,3.4696,3.5203,3.5316,3.5969,3.649,3.66,3.6619,3.625,3.5243,3.5111,3.474,3.3794,3.3683,3.3959,3.4596,3.4646,3.4928,3.5571,3.56,3.56,3.56,3.56,3.56,3.56,3.56,3.56,3.56,3.56,3.56,3.56,3.56,3.56,3.56,3.56,3.56,3.56,3.56,3.56,3.56,3.56,3.56,3.56,3.56,3.56,3.56,0.0,0.0,0.0,0.0,0.0,0.0,0.0,0.0,0.0,0.0,0.0,1.0095,1.0095,1.0095,0.0,0.0,0.0,0.0,1.0095,1.0925,0.0,0.0,0.0,1.3233,1.3233,1.2751,0.0,0.0,0.0,0.0,0.0,1.8102,1.8929,0.0,0.0,0.0,0.0,0.0,0.0,1.3945,1.39,1.3979,1.4004,1.3065,1.3585,1.4756,1.4113,1.4207,0.0,1.5076,1.5192,1.5192,1.5192,0.0,0.0,0.0,1.6578,0.0,2.0089,2.2559,2.5241,0.0,2.9537,3.039,3.1641,0.0,3.3121,3.3121,3.3492,3.3807,3.3807,3.4097,3.4476,3.4927,3.5316,3.5745,3.6233,3.6306,3.5923,3.4924,3.4792,3.442,3.3489,3.3401,3.3536,3.3863,3.388,3.4032,3.4359,3.4376,3.4376,3.4376,3.4376,3.4376,3.4376,3.4376,3.4562,3.4974,3.4974,3.5205,3.56,3.56,3.56,3.56,3.56,3.56,3.56,3.56,3.56,3.56,3.56,3.56,3.56,3.56,3.56,3.56,0.0,0.0,0.0,0.0,0.0,0.0,0.0,0.0,0.0,0.0,0.0,0.0,1.0095,0.0,0.0,0.0,0.0,0.0,1.0095,0.0,0.0,0.0,0.0,0.0,1.2373,0.0,0.0,0.0,0.0,0.0,1.8993,1.8565,2.0179,0.0,2.1444,0.0,0.0,0.0,0.0,0.0,0.0,0.0,1.5115,1.4275,1.5142,1.6601,1.5095,0.0,0.0,0.0,0.0,0.0,0.0,0.0,0.0,0.0,0.0,0.0,0.0,0.0,2.4464,2.7157,2.8308,2.9128,0.0,0.0,3.2054,0.0,3.2779,3.3256,3.3458,3.366,3.4009,3.4604,3.4692,3.4916,3.5572,3.5664,3.5304,3.4329,3.4221,3.3842,3.2934,3.2843,3.2916,3.3107,3.3119,3.3203,3.3384,3.3401,3.3401,3.3401,3.3401,3.3401,3.3401,3.3401,3.3677,3.4223,3.4223,3.4607,3.5323,3.5323,3.5419,3.56,3.56,3.56,3.56,3.56,3.56,3.56,3.56,3.56,3.56,3.56,3.56,3.56,0.0,0.0,0.0,0.0,0.0,0.0,0.0,0.0,0.0,0.0,0.0,0.0,0.0,0.0,0.0,0.0,0.0,0.0,0.0,0.0,0.0,0.0,0.0,0.0,0.0,0.0,0.0,0.0,0.0,0.0,1.9012,1.9793,2.1962,2.5056,2.2559,2.0525,1.8935,0.0,0.0,0.0,0.0,0.0,1.5365,1.687,1.7526,1.7526,0.0,0.0,0.0,0.0,0.0,0.0,0.0,1.5192,1.5192,0.0,0.0,0.0,0.0,2.0737,0.0,2.4095,0.0,0.0,0.0,0.0,3.054,3.132,3.1504,3.1758,3.2516,3.329,3.3807,3.3862,3.3859,3.388,3.392,3.3935,3.3603,3.2714,3.2625,3.2271,3.14,3.1314,3.1601,3.2305,3.2361,3.2655,3.3362,3.3401,3.3401,3.3401,3.3401,3.3401,3.3401,3.3401,3.3418,3.3452,3.3452,3.3846,3.4562,3.4562,3.494,3.56,3.56,3.56,3.56,3.56,3.56,3.56,3.56,3.56,3.56,3.56,3.56,3.56,0.0,0.0,0.0,0.0,0.0,0.0,0.0,0.0,0.0,0.0,0.0,0.0,0.0,1.0095,1.0095,1.0095,0.0,0.0,0.0,0.0,0.0,0.0,0.0,0.0,0.0,0.0,0.0,0.0,0.0,1.3215,1.7392,1.7716,1.9078,2.1285,2.2003,2.1699,2.0506,1.9125,0.0,0.0,0.0,0.0,0.0,1.8527,1.9548,2.0795,0.0,0.0,0.0,0.0,0.0,0.0,1.6022,1.5655,1.5192,1.5192,1.5963,0.0,0.0,0.0,0.0,2.3172,2.4643,2.6038,2.719,2.8473,2.9503,2.9797,3.069,3.1482,3.1773,3.2485,3.3195,3.3715,3.3807,3.3807,3.3807,3.3807,3.3476,3.2604,3.2501,3.2166,3.1276,3.1195,3.1314,3.1572,3.1589,3.1708,3.1968,3.1985,3.1985,3.1985,3.1985,3.1985,3.1985,3.1985,3.2227,3.2689,3.2689,3.3078,3.3795,3.3795,3.4201,3.4895,3.4895,3.5154,3.56,3.56,3.56,3.56,3.56,3.56,3.56,3.56,3.56,3.56,0.0,0.0,0.0,0.0,0.0,0.0,0.0,0.0,0.0,0.0,0.0,0.0,0.0,0.0,1.0848,1.0558,0.0,0.0,0.0,0.0,0.0,0.0,0.0,0.0,0.0,0.0,0.0,0.0,0.0,0.0,0.0,1.6235,1.7385,1.9053,2.0465,2.1082,0.0,0.0,0.0,1.785,0.0,0.0,2.0732,0.0,2.216,0.0,0.0,0.0,0.0,0.0,0.0,0.0,0.0,1.6062,1.5192,1.5192,1.6195,0.0,1.7139,0.0,0.0,0.0,0.0,2.3781,2.5838,2.6867,2.7614,2.8421,2.9457,3.0362,3.0895,3.1436,3.2149,3.3216,3.3281,3.3338,3.3735,3.3687,3.3335,3.2587,3.2501,3.2166,3.1276,3.1195,3.1195,3.1195,3.1195,3.1195,3.1195,3.1195,3.1195,3.1195,3.1195,3.1195,3.1195,3.1195,3.1454,3.1933,3.1933,3.2322,3.3034,3.3034,3.3423,3.4134,3.4393,3.4923,3.56,3.56,3.56,3.56,3.56,3.56,3.56,3.56,3.56,3.56,0.0,0.0,0.0,0.0,0.0,0.0,0.0,0.0,0.0,1.0133,0.0,0.0,0.0,0.0,0.0,1.1504,1.0636,1.0134,1.0134,1.0114,0.0,0.0,0.0,0.0,0.0,0.0,0.0,0.0,0.0,0.0,0.0,0.0,1.7271,1.8803,1.8023,1.8601,2.0193,0.0,2.0231,2.0405,0.0,2.1503,2.1848,0.0,0.0,0.0,2.3224,2.2553,0.0,2.0437,0.0,0.0,0.0,1.6448,1.5269,1.525,1.5868,0.0,0.0,0.0,0.0,0.0,0.0,0.0,2.4922,0.0,2.4835,2.7242,2.7722,2.8212,2.9824,3.0136,3.0665,3.2274,3.2218,3.24,3.3578,3.3418,3.2986,3.2538,3.248,3.2148,3.1276,3.1195,3.1195,3.1195,3.1195,3.1195,3.1195,3.1195,3.1195,3.1195,3.1195,3.1195,3.1195,3.1195,3.1195,3.1195,3.1195,3.1572,3.2276,3.2276,3.2672,3.3401,3.4122,3.4861,3.5571,3.5588,3.56,3.56,3.56,3.56,3.56,3.56,3.56,3.56,0.0,0.0,0.0,0.0,0.0,0.0,1.0095,1.0095,1.0326,0.0,0.0,0.0,0.0,0.0,1.2605,1.2354,1.1543,1.1041,1.1041,1.0442,1.0095,1.0095,1.0095,1.0095,0.0,0.0,0.0,0.0,0.0,0.0,0.0,0.0,0.0,0.0,1.6387,1.7101,1.7542,1.7542,0.0,0.0,2.077,2.1736,0.0,0.0,0.0,0.0,0.0,2.3926,2.3378,0.0,2.192,2.0469,0.0,0.0,0.0,1.6312,1.716,0.0,1.6833,0.0,0.0,0.0,0.0,0.0,0.0,0.0,2.3857,2.5686,2.6054,2.6568,2.8175,2.8469,2.8998,3.0592,3.1266,3.1788,3.2403,3.2397,3.2245,3.2013,3.1986,3.1788,3.1242,3.1195,3.1195,3.1195,3.1195,3.1195,3.1195,3.1195,3.1195,3.1195,3.1195,3.1195,3.1195,3.1195,3.1195,3.1195,3.1195,3.1314,3.15,3.15,3.1911,3.2627,3.2813,3.3637,3.4844,3.5385,3.56,3.56,3.56,3.56,3.56,3.56,3.56,3.56,0.0,0.0,0.0,0.0,0.0,1.1176,1.1176,1.1176,1.1369,0.0,0.0,0.0,0.0,0.0,1.4141,1.3775,1.2312,1.1408,1.1408,1.0577,1.0095,1.0095,1.0442,1.0636,1.0636,0.0,0.0,0.0,0.0,0.0,0.0,0.0,0.0,0.0,1.3926,1.4965,1.5907,0.0,0.0,0.0,2.11,0.0,0.0,2.4206,2.4711,0.0,0.0,0.0,2.4793,2.4498,2.3296,0.0,0.0,1.9198,1.8543,1.7352,1.8218,0.0,0.0,0.0,0.0,0.0,0.0,0.0,2.2894,2.2899,2.3054,0.0,2.5398,2.5799,2.7055,2.7291,2.7716,2.8998,2.9589,3.0329,3.1577,3.1459,3.1216,3.1146,3.0985,3.0725,3.0317,3.0552,3.0734,3.0734,3.1021,3.1195,3.1195,3.1195,3.1195,3.1195,3.1195,3.1195,3.1195,3.1195,3.1195,3.1195,3.1195,3.1195,3.1195,3.1195,3.1432,3.1865,3.2175,3.296,3.4105,3.4838,3.5323,3.56,3.56,3.56,3.56,3.56,3.56,3.56,0.0,0.0,1.1427,1.1524,1.2256,1.2834,1.2834,1.2834,1.2892,0.0,1.3905,1.5093,0.0,0.0,1.6466,1.5694,1.3291,1.1773,1.1676,1.0789,1.0191,1.0095,1.0925,1.135,1.1253,1.1447,0.0,0.0,0.0,0.0,0.0,0.0,0.0,1.1253,1.1369,1.2714,1.4847,0.0,0.0,1.9204,2.1471,2.2605,0.0,0.0,2.518,2.5229,2.5047,2.5519,2.6106,2.5225,2.3968,0.0,0.0,2.0644,2.0252,1.8602,1.9292,0.0,1.9516,1.9902,0.0,0.0,2.0878,0.0,2.2869,2.2509,2.2325,0.0,2.4918,2.5152,2.6151,2.6332,2.6628,2.7514,2.7737,2.8607,3.0879,3.0546,3.0083,3.0125,2.9767,2.939,2.9034,2.9583,2.9985,2.9985,3.0586,3.0992,3.1077,3.1077,3.1116,3.1195,3.1195,3.1195,3.1195,3.1195,3.1195,3.1195,3.1195,3.1195,3.1195,3.1195,3.1195,3.1246,3.1899,3.2605,3.3333,3.3987,3.4793,3.56,3.56,3.56,3.56,3.56,3.56,3.56,0.0,0.0,1.162,1.2315,1.3117,1.367,1.367,1.367,1.4172,1.5562,1.7076,0.0,0.0,0.0,0.0,1.8279,1.5927,1.4153,1.3458,1.1981,1.0828,1.0133,1.0925,1.108,1.0365,1.1736,1.1756,1.0346,0.0,0.0,0.0,0.0,0.0,0.0,1.1099,1.2063,1.3295,0.0,0.0,1.9031,1.953,0.0,2.3865,2.4037,2.443,2.4883,2.4849,2.5267,2.5802,2.5781,2.5215,2.4349,0.0,2.2745,2.2103,2.1062,2.1505,2.2121,2.1252,2.1658,2.2353,2.2507,0.0,0.0,2.2457,2.1735,2.1289,0.0,2.1934,2.2109,2.4263,2.4667,2.5144,2.6591,2.7386,2.8298,2.9756,2.9544,2.9335,2.9593,2.933,2.9084,2.9006,2.9128,2.9204,2.9204,2.9344,2.9694,3.0284,3.0301,3.0594,3.1178,3.1195,3.1195,3.1195,3.1195,3.1195,3.1195,3.1195,3.1195,3.1195,3.1195,3.1195,3.1217,3.1352,3.1826,3.2525,3.2666,3.3868,3.56,3.56,3.56,3.56,3.56,3.56,3.56,0.0,1.2368,1.2923,1.3792,1.4636,1.5327,1.5732,1.5808,1.6252,1.7585,0.0,0.0,0.0,0.0,0.0,0.0,1.6426,1.4825,1.3956,1.2328,1.1215,1.0771,1.1176,1.1408,1.1408,1.1833,1.1833,1.1408,0.0,0.0,0.0,1.0095,1.0509,0.0,0.0,0.0,0.0,0.0,1.706,1.9119,2.0373,0.0,2.4114,2.4316,2.461,2.4942,2.5272,2.5849,2.6457,2.656,2.6188,0.0,0.0,2.4242,2.3888,0.0,2.3105,2.3356,2.2913,2.3124,2.3452,2.3452,0.0,0.0,0.0,2.2522,2.2256,2.2992,2.2405,2.2125,2.3377,2.3598,2.4004,2.5215,2.6085,2.6944,2.7964,2.8105,2.8248,2.8648,2.8026,2.7628,2.7838,2.8188,2.8573,2.8976,2.8993,2.9157,2.9537,2.9554,2.9893,3.0627,3.0649,3.0835,3.1195,3.1195,3.1195,3.1195,3.1195,3.1195,3.1195,3.1195,3.1195,3.1195,3.1195,3.1623,3.2293,3.2293,3.318,3.4545,3.4906,3.5273,3.56,3.56,3.56,3.56,0.0,0.0,1.3997,1.5019,1.6042,1.6948,1.7603,1.7833,1.8314,0.0,0.0,0.0,0.0,0.0,0.0,0.0,0.0,1.5649,0.0,0.0,1.2022,1.1886,1.1887,1.2139,1.2682,1.2159,1.1985,1.2199,0.0,0.0,1.0095,1.0269,1.101,1.2206,0.0,0.0,0.0,0.0,0.0,1.9843,0.0,2.3083,2.3689,2.4471,2.4737,2.483,2.5788,2.6624,2.7301,2.7186,2.684,2.6291,2.531,2.5106,0.0,0.0,0.0,0.0,0.0,0.0,0.0,0.0,0.0,2.4242,0.0,0.0,0.0,2.3921,2.3354,0.0,0.0,0.0,0.0,2.4045,0.0,0.0,0.0,2.6655,0.0,2.7383,2.6515,2.6044,2.6441,2.7038,2.7693,2.8497,2.843,2.8464,2.8747,2.8768,2.9119,2.9866,3.0035,3.0391,3.0975,3.1128,3.1195,3.1195,3.1195,3.1195,3.1195,3.1195,3.1195,3.1195,3.1195,3.1544,3.209,3.209,3.252,3.3271,3.4156,3.4861,3.5402,3.5554,3.56,3.56,1.3323,1.3194,0.0,1.4924,1.6503,1.7584,1.7699,1.8366,1.9421,0.0,0.0,0.0,0.0,0.0,0.0,0.0,0.0,0.0,1.7104,0.0,0.0,1.3645,1.3611,1.3327,1.2701,1.3308,1.2555,1.0404,1.0964,1.0867,1.0114,1.0886,1.1343,1.1578,1.2854,0.0,0.0,0.0,1.9121,0.0,2.2427,2.2241,0.0,2.3389,2.3833,2.3919,2.5836,2.7046,2.7656,0.0,2.7017,2.6847,0.0,2.5019,2.5057,2.5141,0.0,0.0,0.0,0.0,0.0,0.0,2.5723,0.0,0.0,0.0,2.3247,2.2443,0.0,0.0,0.0,0.0,0.0,0.0,0.0,0.0,2.5411,2.5585,2.5649,2.5759,2.5394,2.5276,2.5692,2.5799,2.6163,2.6919,2.6353,2.6564,2.7874,2.7942,2.8306,2.9107,2.9753,3.0132,3.0217,3.0869,3.1195,3.1195,3.1195,3.1195,3.1195,3.1195,3.1195,3.1195,3.1195,3.1246,3.1314,3.1314,3.1759,3.2559,3.3958,3.4545,3.4692,3.5352,3.56,3.56,1.2308,1.2962,0.0,1.4981,1.6195,1.7331,1.8309,2.0021,2.1272,0.0,0.0,0.0,0.0,0.0,0.0,0.0,0.0,1.987,0.0,0.0,0.0,1.5438,1.4439,1.3978,1.4157,1.304,1.2175,1.1601,1.0964,1.0462,0.0,0.0,1.2146,1.3542,1.4656,0.0,1.912,0.0,2.0463,0.0,0.0,0.0,0.0,2.3473,2.4664,2.5468,2.6828,2.7803,2.8385,0.0,2.7315,0.0,0.0,0.0,0.0,0.0,0.0,0.0,0.0,0.0,0.0,0.0,0.0,0.0,2.4921,0.0,2.4237,0.0,0.0,0.0,0.0,0.0,0.0,0.0,2.3199,0.0,0.0,0.0,2.4454,2.5646,0.0,0.0,2.5226,2.497,2.4959,2.5399,2.4878,2.5124,2.645,2.6522,2.7072,2.8277,2.9064,2.9673,3.0098,3.0835,3.1195,3.1195,3.1195,3.1195,3.1195,3.1195,3.1195,3.1195,3.1195,3.1195,3.1195,3.1195,3.1386,3.1764,3.2813,3.3743,3.4533,3.4844,3.5239,3.56,0.0,0.0,0.0,0.0,1.5925,1.7157,1.9055,2.1117,2.2391,2.2236,0.0,0.0,2.4724,2.4607,0.0,0.0,2.2662,2.1422,0.0,0.0,1.7945,1.7748,1.5941,1.5212,1.5791,1.3599,1.2524,1.2701,1.1427,1.0809,0.0,0.0,1.3019,1.4763,1.6259,1.8327,2.075,0.0,2.1727,2.2155,2.2765,2.2878,2.2811,2.4014,2.55,2.7016,2.7588,2.8316,2.8885,2.8126,2.7689,0.0,2.7761,0.0,2.5953,0.0,0.0,0.0,2.5583,0.0,0.0,0.0,0.0,0.0,0.0,0.0,0.0,0.0,0.0,0.0,0.0,0.0,0.0,0.0,0.0,2.2536,0.0,2.2446,0.0,0.0,0.0,0.0,0.0,2.4261,2.4103,2.4603,2.3937,2.4114,2.5515,2.5601,2.6171,2.7456,2.8264,2.903,2.9786,3.0531,3.1009,3.1195,3.1195,3.1195,3.1195,3.1195,3.1195,3.1195,3.1195,3.1195,3.1195,3.1195,3.1195,3.1246,3.1797,3.2779,3.3947,3.4347,3.4974,3.56,1.2663,1.3328,0.0,0.0,0.0,1.735,1.9866,2.0983,2.214,0.0,0.0,0.0,0.0,0.0,0.0,0.0,0.0,2.3785,2.3002,0.0,1.9994,2.0823,1.8759,1.7502,0.0,1.5855,1.4291,1.2701,1.2644,1.2624,0.0,0.0,1.3858,1.4082,1.7285,1.921,2.0123,2.1627,2.3098,2.4383,2.4341,2.5183,2.6271,0.0,2.5804,2.7756,2.7792,0.0,0.0,2.8306,2.8086,0.0,0.0,0.0,0.0,0.0,0.0,0.0,0.0,0.0,0.0,2.5652,0.0,0.0,0.0,0.0,2.6015,0.0,0.0,0.0,0.0,0.0,0.0,0.0,0.0,0.0,0.0,0.0,0.0,0.0,0.0,0.0,0.0,2.3596,2.3653,2.4884,2.3584,2.3566,2.5498,2.5601,2.5943,2.6712,2.7456,2.8221,2.9027,2.977,3.0492,3.1195,3.1195,3.1195,3.1195,3.1195,3.1195,3.1195,3.1195,3.1195,3.1195,3.1195,3.1195,3.1195,3.1234,3.1696,3.2547,3.3975,3.4974,3.56,0.0,0.0,0.0,0.0,0.0,1.7158,1.9702,2.1764,2.3418,0.0,0.0,0.0,0.0,2.7095,2.6967,0.0,0.0,2.5414,2.4056,2.3356,0.0,0.0,2.0772,1.9862,0.0,1.7624,1.6313,1.5217,1.406,1.3789,1.4349,0.0,0.0,0.0,1.8417,1.9991,0.0,0.0,0.0,0.0,0.0,2.5603,2.7339,0.0,2.7138,2.7866,2.8405,2.8769,0.0,2.8761,2.8426,2.8127,2.8333,2.7806,2.718,2.7666,2.7455,2.7058,0.0,0.0,2.7575,2.6235,0.0,0.0,0.0,0.0,0.0,0.0,0.0,0.0,0.0,0.0,0.0,0.0,0.0,0.0,0.0,0.0,0.0,0.0,0.0,0.0,0.0,0.0,2.2704,2.2686,2.2203,2.2554,2.4068,2.4601,2.5211,2.5943,2.7164,2.7925,2.8205,2.9477,3.0234,3.0475,3.0975,3.1195,3.1195,3.1195,3.1195,3.1195,3.1195,3.1195,3.1195,3.1195,3.1195,3.1195,3.1195,3.1657,3.2412,3.3411,3.4235,3.494,1.4566,0.0,0.0,0.0,0.0,0.0,2.0093,2.2597,0.0,0.0,2.6056,0.0,2.8269,0.0,2.7796,0.0,2.7734,2.6638,2.5268,2.5084,0.0,2.2961,2.2449,0.0,0.0,1.9533,1.8394,1.728,1.6229,1.5848,1.6079,0.0,0.0,0.0,0.0,2.0447,2.1171,0.0,2.4477,0.0,0.0,2.6658,0.0,0.0,2.8225,2.8295,0.0,2.9002,2.9002,2.9002,2.8732,2.8495,2.8876,2.8477,2.7925,2.8311,2.8133,2.7786,2.7575,2.779,0.0,2.6809,2.6872,0.0,2.5795,0.0,2.6541,0.0,0.0,0.0,0.0,0.0,0.0,0.0,0.0,0.0,0.0,2.077,0.0,0.0,0.0,0.0,0.0,0.0,2.1626,2.2239,2.1371,2.1636,0.0,2.4156,2.4838,2.5584,2.6784,2.7536,2.7802,2.9067,2.9837,3.012,3.0852,3.1195,3.1195,3.1195,3.1195,3.1195,3.1195,3.1195,3.1195,3.1195,3.1195,3.1195,3.1195,3.1488,3.2034,3.3034,3.4027,3.4962,0.0,0.0,0.0,0.0,1.7336,0.0,0.0,0.0,2.5225,0.0,2.6746,2.7554,2.8334,2.8257,2.8485,2.9307,2.8447,2.7514,2.6717,2.6077,0.0,0.0,2.3811,2.3068,2.2059,0.0,0.0,1.8814,1.8936,1.8558,1.7724,0.0,0.0,0.0,1.9551,0.0,2.1171,2.3703,2.5049,2.5597,2.7171,2.828,2.9002,2.9002,2.9002,2.9002,2.9002,2.9002,2.9002,2.9002,2.9002,2.9002,2.9002,2.9002,2.9002,2.9002,2.9002,2.8873,2.8298,2.8143,2.7994,2.7401,2.7248,0.0,0.0,0.0,2.7025,0.0,0.0,0.0,0.0,0.0,0.0,0.0,0.0,0.0,0.0,0.0,0.0,0.0,0.0,0.0,0.0,0.0,2.0587,2.3314,2.1149,0.0,0.0,2.4231,2.4775,2.5516,2.6302,2.7046,2.7739,2.8573,2.9356,3.0048,3.0835,3.1195,3.1195,3.1195,3.1195,3.1195,3.1195,3.1195,3.1195,3.1195,3.1195,3.1195,3.1195,3.1212,3.1432,3.2877,3.4326,3.56,1.6107,1.6954,1.79,0.0,1.8953,2.0145,0.0,0.0,0.0,0.0,2.7377,2.8126,2.8778,2.8802,2.8853,2.9082,2.8849,0.0,0.0,0.0,0.0,2.6033,2.5576,2.4832,2.3774,2.2603,2.1489,2.0419,0.0,0.0,1.8343,0.0,0.0,0.0,0.0,0.0,2.1161,2.3568,2.5247,2.6374,2.7386,2.828,2.9002,0.0,2.9002,2.9002,2.9002,2.9002,2.9002,2.9002,2.9002,2.9002,2.9002,2.9002,2.9002,2.9002,2.9002,2.8962,2.8812,2.8776,2.8618,2.8022,2.7879,2.7699,0.0,0.0,0.0,0.0,0.0,0.0,0.0,0.0,0.0,0.0,0.0,0.0,0.0,0.0,0.0,2.2038,0.0,0.0,0.0,2.0888,2.1493,2.1056,2.1054,2.1647,2.2937,2.3433,2.4026,2.4758,2.6023,2.6797,2.6979,2.8328,2.9094,2.9305,3.0591,3.1195,3.1195,3.1195,3.1195,3.1195,3.1195,3.1195,3.1195,3.1195,3.1195,3.1195,3.1195,3.1522,3.2136,3.3068,3.4326,3.56,1.7512,0.0,0.0,2.0948,0.0,0.0,2.351,2.4482,0.0,2.6613,2.7467,0.0,2.8441,2.8785,2.9002,2.9002,2.9002,0.0,2.7848,0.0,0.0,2.6667,2.6728,2.6175,2.4868,2.4143,0.0,2.1434,0.0,0.0,1.8588,0.0,0.0,0.0,0.0,2.1038,2.1112,2.4145,2.5878,2.6699,2.7858,2.8607,0.0,2.9002,2.9002,2.9002,2.9002,2.9002,2.9002,2.9002,2.9002,2.9002,2.9002,2.9002,2.9002,2.9002,2.9002,2.9002,2.9002,2.9002,2.8927,2.8584,2.8492,2.8307,2.7617,2.7813,2.8007,0.0,2.7536,2.7522,0.0,0.0,0.0,0.0,0.0,0.0,0.0,0.0,0.0,0.0,2.2148,0.0,0.0,1.9926,2.1032,2.0853,2.0917,2.1372,0.0,2.3171,2.3891,2.4481,2.5617,2.637,2.67,2.788,2.8658,2.901,3.0163,3.0886,3.1195,3.1195,3.1195,3.1195,3.1195,3.1195,3.1195,3.1195,3.1195,3.1195,3.1195,3.1657,3.239,3.3136,3.4128,3.5177,1.9734,0.0,0.0,0.0,0.0,0.0,0.0,2.5321,0.0,2.6673,0.0,2.7955,2.7955,2.8586,2.9002,2.9002,0.0,2.8693,2.7992,2.8604,2.8378,2.6971,2.7475,2.7153,2.5744,2.5574,2.4401,0.0,0.0,0.0,0.0,0.0,0.0,0.0,0.0,0.0,0.0,2.5032,2.6607,2.6735,2.8342,2.9002,2.9002,2.9002,2.9002,2.9002,2.9002,2.9002,2.9002,2.9002,2.9002,2.9002,2.9002,2.9002,2.9002,2.9002,2.9002,2.9002,2.9002,2.9002,2.9002,2.9002,2.9002,2.8824,2.812,2.7955,2.7955,2.7955,2.7399,2.7302,2.8599,0.0,0.0,0.0,0.0,0.0,0.0,0.0,0.0,0.0,0.0,0.0,0.0,0.0,0.0,0.0,2.0633,0.0,0.0,2.3006,2.3869,2.4472,2.522,2.5943,2.6695,2.7545,2.831,2.901,2.9854,3.0581,3.1195,3.1195,3.1195,3.1195,3.1195,3.1195,3.1195,3.1195,3.1195,3.1195,3.1195,3.1589,3.2259,3.3085,3.3812,3.4477,0.0,0.0,0.0,0.0,0.0,2.5256,2.609,2.6336,2.6715,2.7483,2.8295,2.8785,2.8785,2.8913,2.9002,2.9002,2.9002,0.0,0.0,0.0,0.0,2.8599,2.8081,2.7664,2.7391,2.5464,2.3918,0.0,0.0,0.0,1.7203,0.0,0.0,0.0,0.0,0.0,2.2785,2.5466,0.0,2.6735,2.8342,2.9002,2.9002,2.9002,2.9002,2.9002,2.9002,2.9002,2.9002,2.9002,2.9002,2.9002,2.9002,2.9002,2.9002,2.9002,2.9002,2.9002,2.9002,2.9002,2.9002,2.9002,2.9002,2.8968,2.8819,2.8785,2.8785,2.8785,2.8672,2.8455,2.8081,0.0,0.0,0.0,0.0,0.0,0.0,0.0,0.0,0.0,0.0,2.2958,0.0,0.0,0.0,0.0,0.0,2.0712,2.1928,2.1954,2.2712,2.4451,2.522,2.5943,2.6695,2.8091,2.8853,2.9027,3.0354,3.1077,3.1195,3.1195,3.1195,3.1195,3.1195,3.1195,3.1195,3.1195,3.1195,3.1195,3.1195,3.1285,3.1556,3.2899,3.3485,3.379,0.0,0.0,0.0,0.0,0.0,0.0,0.0,2.7577,2.7836,2.7808,2.8136,2.8371,2.8371,2.8748,2.9002,2.9002,2.9002,2.9002,2.9002,2.9002,2.9002,2.9002,2.8623,2.8225,2.7814,2.6245,2.4848,2.3618,0.0,1.9415,1.8135,1.7886,0.0,0.0,0.0,2.1392,0.0,0.0,0.0,2.6735,2.8342,2.9002,2.9002,2.9002,2.9002,2.9002,2.9002,2.9002,2.9002,2.9002,2.9002,2.9002,2.9002,2.9002,2.9002,2.9002,2.9299,2.9613,2.9613,2.9928,3.0133,2.9726,2.9613,2.9503,2.9097,2.9002,2.9002,2.9002,2.9002,2.8748,2.7958,2.7145,0.0,0.0,0.0,0.0,0.0,0.0,0.0,0.0,0.0,0.0,0.0,0.0,0.0,0.0,0.0,2.0589,2.1144,2.1534,2.2601,2.4442,2.4838,2.5562,2.6683,2.7824,2.8595,2.901,3.0113,3.0835,3.1195,3.1195,3.1195,3.1195,3.1195,3.1195,3.1195,3.1195,3.1195,3.1195,3.1195,3.1195,3.1381,3.286,3.3401,3.3604,0.0,2.4025,0.0,0.0,2.6321,2.7071,2.7698,2.8628,2.8971,2.8154,2.8062,2.8062,2.8062,2.8772,2.9189,2.9002,2.9152,2.9189,2.9002,2.9002,2.9002,2.9002,2.9002,2.8693,2.8065,2.727,2.6062,0.0,0.0,0.0,1.9297,1.8649,0.0,0.0,0.0,0.0,0.0,0.0,2.6867,2.6974,2.8418,2.9002,2.9002,2.9002,2.9002,2.9002,2.9002,2.9002,2.9002,2.9002,2.9002,2.9002,2.9002,2.9112,2.9262,2.9262,2.9818,3.0467,3.0467,3.091,3.1244,3.0613,3.0338,3.0023,2.9393,2.9112,2.9002,2.9002,2.9002,2.8748,2.7958,2.7417,0.0,0.0,0.0,0.0,0.0,0.0,0.0,0.0,0.0,0.0,2.0988,0.0,0.0,0.0,0.0,2.033,2.0477,2.135,2.2594,2.423,2.4486,2.5216,2.6442,2.7528,2.8378,2.901,2.991,3.0632,3.1195,3.1195,3.1195,3.1195,3.1195,3.1195,3.1195,3.1195,3.1195,3.1195,3.1195,3.1302,3.1589,3.291,3.3502,3.3824,0.0,0.0,0.0,0.0,0.0,2.7719,2.7792,2.9108,2.9803,2.8987,2.8895,2.8895,2.8895,2.9616,2.9782,2.9057,2.9671,2.9782,2.9057,2.9002,2.9002,2.9002,2.9002,2.8963,2.8895,2.8099,2.6896,0.0,0.0,2.1581,1.9297,1.9224,1.9546,0.0,0.0,0.0,0.0,2.6709,2.7682,2.7756,2.8641,2.9002,2.9002,2.9002,2.9002,2.9002,2.9002,2.9002,2.9002,2.9002,2.9002,2.9002,2.9002,2.95,3.0096,3.0096,3.0653,3.1283,3.1283,3.1338,3.1375,3.132,3.0745,3.017,3.0093,2.9522,2.9002,2.9002,2.9002,2.8748,2.7958,2.8332,2.8305,0.0,0.0,0.0,0.0,0.0,2.3896,2.31,0.0,0.0,0.0,2.1049,0.0,0.0,1.9671,1.981,2.0714,2.1156,2.2029,2.3463,2.4458,2.5192,2.5706,2.7816,2.8925,2.9027,3.0439,3.1128,3.1195,3.1195,3.1195,3.1195,3.1195,3.1195,3.1195,3.1195,3.1195,3.1195,3.1195,3.1611,3.2288,3.3102,3.3829,3.4506,0.0,0.0,0.0,0.0,0.0,0.0,0.0,3.0509,3.08,3.0485,3.0448,3.0448,3.0448,3.0727,3.0598,2.9782,3.0002,2.9855,2.9057,2.9002,2.9002,2.9002,2.9002,2.9002,2.9002,2.8209,2.748,0.0,0.0,2.3217,2.2212,2.1243,2.1498,0.0,0.0,2.5186,2.5747,2.7184,2.7792,2.7866,2.8675,2.9002,2.9002,2.9002,2.9299,2.9726,2.9726,3.0023,3.0448,3.0448,3.0115,2.9726,2.9726,3.0265,3.091,3.091,3.1494,3.2115,3.2115,3.2467,3.2727,3.2244,3.1513,3.08,3.0317,2.9577,2.9002,2.9002,2.9002,2.8892,2.8589,2.8387,2.8222,2.8069,0.0,0.0,0.0,0.0,0.0,0.0,0.0,0.0,0.0,0.0,0.0,0.0,0.0,1.9761,2.0807,2.0951,2.1828,2.3639,2.4358,2.4993,2.5584,2.785,2.8993,2.9027,3.0494,3.1195,3.1195,3.1195,3.1195,3.1195,3.1195,3.1195,3.1195,3.1195,3.1195,3.1195,3.1195,3.1657,3.239,3.3136,3.3863,3.4613,2.7265,0.0,2.8763,0.0,3.017,3.0745,3.132,3.1592,3.1754,3.1754,3.1867,3.1792,3.1436,3.1611,3.1424,3.0616,3.0775,3.0552,2.9763,2.9705,2.9705,2.9705,2.9485,0.0,2.9354,2.8552,2.8047,2.7792,2.6083,2.5021,2.4527,2.3391,2.3591,2.4942,2.5757,2.6416,2.7013,2.7805,2.8285,2.8561,2.9121,2.9485,2.9705,2.9705,3.006,3.0558,3.0558,3.091,3.1394,3.1394,3.1185,3.0864,3.0632,3.1109,3.1754,3.1754,3.2317,3.2953,3.2953,3.3363,3.366,3.3084,3.2173,3.1244,3.069,2.9745,2.9002,2.9002,2.9002,2.9002,2.9002,2.8531,2.8264,2.8586,0.0,0.0,0.0,2.5073,0.0,0.0,2.3988,2.3591,2.2927,2.2204,0.0,0.0,0.0,2.0282,2.1175,2.1049,2.1803,2.3691,2.4323,2.5057,2.5926,2.7973,2.9107,2.9344,3.0608,3.1195,3.1195,3.1195,3.1195,3.1195,3.1195,3.1195,3.1195,3.1195,3.1195,3.1195,3.1195,3.1657,3.239,3.3136,3.3863,3.4613,2.8803,2.9613,3.0411,3.1228,3.1375,3.1394,3.1394,3.206,3.2586,3.2586,3.2924,3.2715,3.1536,3.2115,3.2259,3.1467,3.2115,3.2222,3.1412,3.1375,3.1375,0.0,0.0,3.0188,3.0188,2.9393,2.8607,2.7792,0.0,2.6932,2.5398,2.5379,2.5794,2.6607,2.7404,2.7774,2.7848,2.8641,2.9445,3.017,3.017,3.0653,3.1375,3.1375,3.1375,3.1394,3.1394,3.1394,3.1394,3.1394,3.1916,3.2421,3.1647,3.1938,3.2586,3.2586,3.3161,3.3788,3.3788,3.3788,3.3807,3.3788,3.2584,3.1394,3.1394,3.0152,2.9002,2.9002,2.9002,2.9002,2.9002,2.8984,2.873,2.7937,0.0,0.0,0.0,2.4711,0.0,2.4192,2.3506,2.3182,2.3634,2.254,0.0,0.0,0.0,0.0,0.0,0.0,0.0,2.3365,2.4436,2.5548,2.6683,2.8231,2.9377,3.0098,3.0835,3.1195,3.1195,3.1195,3.1195,3.1195,3.1195,3.1195,3.1195,3.1195,3.1195,3.1195,3.1195,3.1657,3.239,3.3136,3.3863,3.4613,3.058,3.1286,3.1928,3.2167,3.2669,3.3043,3.3043,3.301,3.3012,3.3012,3.2841,3.2587,3.2189,3.2665,3.2806,0.0,3.2457,3.2259,0.0,3.1394,3.1277,3.0996,3.0743,3.0469,3.013,2.9883,2.9785,2.9842,0.0,2.8339,2.7042,2.7601,2.7692,2.7459,2.8259,2.8766,2.9033,2.9302,2.9689,3.0152,3.0487,3.0561,3.0546,3.0862,3.1131,3.1334,3.1334,3.1884,3.2574,3.2267,3.2716,3.3323,3.2785,3.2988,3.3418,3.3418,3.3605,3.3807,3.3807,3.3807,3.3807,3.3807,3.2996,3.206,3.1522,3.017,2.9002,2.9002,2.9002,2.9002,2.9002,2.9002,2.8929,2.8659,2.7488,0.0,2.6245,0.0,2.4192,2.4192,2.3969,2.3795,2.3706,2.3045,0.0,0.0,0.0,0.0,0.0,0.0,0.0,0.0,2.4821,0.0,2.6683,2.8231,2.9373,3.012,3.0852,3.1195,3.1195,3.1195,3.1195,3.1195,3.1195,3.1195,3.1195,3.1195,3.1195,3.1195,3.1195,3.1957,3.3085,3.3316,3.4173,3.5289,3.1843,3.2501,3.3005,3.2855,3.324,3.3522,3.3332,3.3102,3.2944,3.2944,3.2538,3.2294,3.248,3.2594,0.0,3.2567,3.2727,3.2547,3.1853,3.1806,3.1693,3.1448,3.115,3.0844,3.0566,3.0247,0.0,3.0538,3.003,2.9398,2.8668,2.9174,2.9156,2.8686,2.9192,2.955,2.9783,2.9783,3.0083,3.0586,3.0859,3.0988,3.1026,3.1334,3.1569,3.1741,3.1741,3.2254,3.288,3.2599,3.2864,3.3266,3.3022,3.3225,3.3596,3.3751,3.3807,3.3807,3.3807,3.3807,3.3807,3.3807,3.3195,3.2387,3.1571,3.0393,2.9448,2.9448,2.9207,2.9002,2.9002,2.9002,2.9002,2.9002,2.765,2.6607,2.6607,0.0,2.4192,0.0,0.0,2.4074,0.0,2.3681,2.3583,0.0,0.0,0.0,0.0,0.0,2.3374,2.45,2.5495,2.6509,2.755,2.8798,2.9786,3.0526,3.0975,3.1195,3.1195,3.1195,3.1195,3.1195,3.1195,3.1195,3.1195,3.1195,3.1195,3.1229,3.15,3.2182,3.3051,3.3609,3.4399,3.5222,3.2642,3.3231,3.3631,3.3266,3.3176,3.3002,3.2567,3.2472,3.2451,3.2451,3.2057,3.1911,3.2363,3.2035,3.1955,3.2375,3.2856,0.0,3.253,3.2501,3.2488,3.2455,3.1732,3.1323,3.1287,3.0563,3.0186,3.0213,3.0249,3.0243,3.0186,3.0186,3.0151,3.0098,3.0098,3.0114,3.0125,3.0125,3.0574,3.1295,3.1323,3.1768,3.2409,3.2442,3.2434,3.2409,3.2409,3.243,3.2447,3.2422,3.2447,3.2492,3.2463,3.2769,3.3236,3.3631,3.379,3.3807,3.3807,3.3807,3.3807,3.3807,3.3195,3.2402,3.1644,3.0855,3.0265,3.021,2.9595,2.9078,2.9002,2.9002,2.8984,2.8929,2.7611,2.6589,2.6515,2.5236,2.4284,2.4284,0.0,0.0,2.3884,2.4421,2.4284,0.0,0.0,0.0,0.0,0.0,2.4093,2.5638,2.6387,2.7529,2.9061,2.9753,3.0475,3.1195,3.1195,3.1195,3.1195,3.1195,3.1195,3.1195,3.1195,3.1195,3.1195,3.1195,3.1229,3.1331,3.2039,3.2361,3.2615,3.3992,3.4528,3.468,3.306,3.3205,3.331,3.3217,3.2895,3.2624,3.2517,3.2205,3.1977,3.1977,3.1593,3.1385,3.1508,3.1673,3.1724,3.1524,3.2227,3.2616,3.2509,3.2501,3.2346,3.1973,3.1777,3.1534,3.1222,3.104,3.1096,3.1403,3.1762,3.1623,3.1028,3.1028,3.069,3.0098,3.0098,3.024,3.0486,3.0486,3.0766,3.1246,3.1561,3.1614,3.1543,3.1843,3.1774,3.1501,3.1501,3.1704,3.1919,3.161,3.1946,3.2438,3.2074,3.2286,3.2753,3.3217,3.3557,3.3807,3.3807,3.3807,3.3807,3.3807,3.3195,3.2549,3.2369,3.1696,3.0947,3.0338,3.006,2.9726,2.9112,2.9002,2.8803,2.8172,2.7252,2.6389,2.5776,2.5359,2.512,0.0,2.566,2.5886,2.5497,2.5095,2.4861,0.0,0.0,2.4755,2.5429,2.5948,2.6297,2.6441,2.7156,2.8289,2.9816,3.0019,3.0475,3.1195,3.1195,3.1195,3.1195,3.1195,3.1195,3.1195,3.1195,3.1195,3.1195,3.1195,3.1522,3.2051,3.2226,3.2982,3.4026,3.4364,3.4861,3.5352,3.3165,3.3025,3.2809,3.2594,3.2367,3.2148,3.195,3.1691,3.1531,3.1531,3.1336,3.1195,3.1195,3.1387,3.1439,3.122,3.181,3.2105,3.1927,3.1914,3.1791,3.154,3.1531,3.142,3.12,3.1195,3.1315,3.1531,3.1782,3.1675,3.1241,3.1241,3.1019,3.0603,3.0603,3.07,3.0877,3.0877,3.0993,3.122,3.1439,3.1387,3.1225,3.1449,3.1399,3.1195,3.1195,3.1336,3.1488,3.1271,3.151,3.1864,3.1615,3.1829,3.2226,3.2483,3.3019,3.3561,3.3745,3.3673,3.3465,3.3259,3.2874,3.2611,3.2836,3.2255,3.1606,3.1347,3.0702,3.0075,2.9632,2.9244,2.8733,2.7939,2.7423,2.6869,2.6067,2.5957,2.5887,2.5706,2.6064,2.6173,2.5808,2.5588,2.5398,2.5274,2.5351,0.0,2.5858,2.6899,2.7385,2.7215,2.8268,2.9248,3.0094,3.0424,3.0801,3.1195,3.1195,3.1195,3.1195,3.1195,3.1195,3.1195,3.1195,3.1195,3.1195,3.1195,3.1623,3.2327,3.2672,3.3501,3.4545,3.4878,3.5256,3.56,3.2903,3.2669,3.226,3.1879,3.1791,3.1663,3.1264,3.1195,3.1195,3.1195,3.1195,3.1195,3.1195,3.1195,3.1195,3.1195,3.1517,3.1561,3.1225,3.1195,3.1195,3.1195,3.1195,3.1195,3.1195,3.1195,3.1195,3.1195,3.1195,3.1195,3.1195,3.1195,3.1195,3.1195,3.1195,3.1195,3.1195,3.1195,3.1195,3.1195,3.1195,3.1195,3.1195,3.1195,3.1195,3.1195,3.1195,3.1195,3.1195,3.1195,3.1195,3.1195,3.1195,3.1434,3.1716,3.1784,3.2366,3.3083,3.3486,3.3357,3.2999,3.2599,3.2501,3.2604,3.3002,3.2568,3.2141,3.2356,3.1322,3.0285,3.0057,2.9463,2.8675,2.7693,2.7589,2.7335,2.6456,0.0,2.6491,2.6147,2.6206,2.6145,2.5816,2.5982,2.5884,2.5295,2.615,2.6475,2.5956,2.7334,2.814,2.814,2.9422,3.0149,3.0251,3.0886,3.1195,3.1195,3.1195,3.1195,3.1195,3.1195,3.1195,3.1195,3.1195,3.1195,3.1195,3.1195,3.1708,3.2525,3.3152,3.3925,3.4748,3.5374,3.56,3.56,3.2,3.1951,3.1892,3.1803,3.1521,3.1271,3.1205,3.1195,3.1195,3.1195,3.1195,3.1195,3.1195,3.1195,3.1195,3.1195,3.1269,3.1266,3.12,3.1195,3.1195,3.1195,3.1195,3.1195,3.1195,3.1195,3.1195,3.1195,3.1195,3.1195,3.1195,3.1195,3.1195,3.1195,3.1195,3.1195,3.1195,3.1195,3.1195,3.1195,3.1195,3.1195,3.1195,3.1195,3.1195,3.1195,3.1195,3.1195,3.1195,3.1195,3.1195,3.1195,3.1195,3.1232,3.1361,3.1706,3.1897,3.2118,3.2574,3.2656,3.2591,3.2517,3.2501,3.2517,3.2591,3.2515,3.2243,3.1623,3.1307,3.0734,2.9436,2.9076,2.8398,2.6574,2.6613,2.6443,2.5249,0.0,2.6657,2.66,2.7188,2.7452,2.7057,2.6519,2.6255,2.6425,2.6598,2.6924,2.7435,2.891,2.9739,2.9739,2.998,3.0391,3.1026,3.1145,3.1195,3.1195,3.1195,3.1195,3.1195,3.1195,3.1195,3.1195,3.1195,3.1195,3.1195,3.1195,3.2002,3.3232,3.3367,3.4224,3.5436,3.5554,3.56,3.56,3.1757,3.1635,3.1474,3.1474,3.1317,3.1195,3.1195,3.1195,3.1195,3.1195,3.1195,3.1195,3.1195,3.1195,3.1195,3.1195,3.1195,3.1195,3.1195,3.1195,3.1195,3.1195,3.1195,3.1195,3.1195,3.1195,3.1195,3.1195,3.1195,3.1195,3.1195,3.1195,3.1195,3.1195,3.1195,3.1195,3.1195,3.1195,3.1432,3.1797,3.1797,3.2029,3.2374,3.2374,3.2374,3.2374,3.2374,3.2374,3.2374,3.2374,3.2374,3.2374,3.2374,3.2109,3.1825,3.2005,3.2117,3.2161,3.2127,3.2118,3.2074,3.1842,3.1796,3.186,3.2079,3.2118,3.2095,3.1961,3.1596,3.1079,3.0372,2.9563,2.8683,2.7725,2.7436,2.7136,2.6494,2.695,2.7264,2.7052,2.7346,2.7413,2.7028,2.704,2.7133,2.7287,2.7693,2.8091,2.8433,2.9494,3.0098,3.0098,3.0492,3.0857,3.1195,3.1195,3.1195,3.1195,3.1195,3.1195,3.1195,3.1195,3.1195,3.1195,3.1195,3.1195,3.1195,3.1195,3.207,3.3401,3.3401,3.4309,3.56,3.56,3.56,3.56,3.1603,3.1406,3.1195,3.1195,3.1195,3.1195,3.1195,3.1195,3.1195,3.1195,3.1195,3.1195,3.1195,3.1195,3.1195,3.1195,3.1195,3.1195,3.1195,3.1364,3.1386,3.1217,3.1364,3.1454,3.1454,3.1618,3.172,3.172,3.172,3.1618,3.1454,3.1454,3.1364,3.1217,3.1386,3.1454,3.1471,3.1635,3.2046,3.2559,3.2559,3.2887,3.3401,3.3401,3.3401,3.3401,3.3401,3.3401,3.3401,3.3401,3.3401,3.3401,3.3401,3.3005,3.2559,3.2559,3.2509,3.2332,3.179,3.1655,3.1589,3.1276,3.1195,3.1281,3.1593,3.1655,3.1765,3.2114,3.1719,3.1216,3.1045,3.0056,2.9092,2.8591,0.0,2.8032,2.7705,2.7956,2.8047,2.7729,2.7693,2.7563,2.7258,2.7752,2.8082,2.8082,2.8805,2.9259,2.9259,2.996,3.0357,3.0357,3.0903,3.1195,3.1195,3.1195,3.1195,3.1195,3.1195,3.1195,3.1195,3.1195,3.1195,3.119,3.105,3.1065,3.1185,3.1045,3.1941,3.3401,3.3401,3.4309,3.56,3.56,3.56,3.56,3.1244,3.1225,3.1195,3.1195,3.1195,3.1195,3.1195,3.1195,3.1195,3.1195,3.1195,3.1195,3.1195,3.1195,3.1195,3.1195,3.1195,3.1195,3.1195,3.1848,3.1916,3.1229,3.1843,3.2226,3.2226,3.2887,3.3232,3.3232,3.3232,3.2887,3.2226,3.2226,3.1843,3.1229,3.1916,3.2226,3.2259,3.2949,3.3266,3.3316,3.3316,3.335,3.3401,3.3401,3.3401,3.3401,3.3401,3.3401,3.3401,3.3401,3.3401,3.3401,3.3401,3.3362,3.3316,3.3316,3.2842,3.2161,3.1433,3.1232,3.1244,3.1205,3.1195,3.1205,3.1244,3.1232,3.1242,3.1286,3.1257,3.0997,3.0309,3.01,2.9433,2.7621,0.0,0.0,2.7392,2.8216,2.8909,2.8878,2.8869,2.886,2.8824,2.8887,2.8904,2.8904,2.96,3.0014,3.0014,3.0722,3.1128,3.1128,3.1161,3.1195,3.1195,3.1195,3.1195,3.1195,3.1195,3.1195,3.1195,3.1195,3.1195,3.1171,3.0617,3.0679,3.1161,3.0607,3.155,3.3401,3.3401,3.4309,3.56,3.56,3.56,3.56,3.1195,3.1195,3.1195,3.1195,3.1195,3.1195,3.1195,3.1195,3.1195,3.1195,3.1195,3.1195,3.1195,3.1195,3.1195,3.1195,3.1195,3.1381,3.1843,3.2136,3.2373,3.256,3.2831,3.2989,3.2989,3.3266,3.3401,3.3401,3.3401,3.3266,3.2989,3.2989,3.2831,3.2577,3.2865,3.2989,3.3,3.3288,3.3655,3.4083,3.4083,3.4365,3.476,3.476,3.476,3.476,3.476,3.476,3.476,3.476,3.476,3.476,3.476,3.4444,3.3981,3.3536,3.3203,3.2819,3.2085,3.1556,3.1195,3.1195,3.1195,3.1195,3.1195,3.1195,3.1195,3.1195,3.1195,3.1111,3.0835,3.0408,3.0015,2.9722,0.0,2.9004,2.8994,2.9007,2.8993,2.8993,2.8993,2.8993,2.8993,2.9407,2.969,2.969,3.0362,3.0784,3.0784,3.106,3.1195,3.1195,3.1195,3.1195,3.1195,3.1195,3.1195,3.1195,3.1195,3.1195,3.1195,3.1195,3.1195,3.1166,3.0554,3.0435,3.0635,3.044,3.134,3.2879,3.3295,3.4337,3.56,3.56,3.56,3.56,3.1195,3.1195,3.1195,3.1195,3.1195,3.1195,3.1195,3.1195,3.1195,3.1195,3.1195,3.1195,3.1195,3.1403,3.1556,3.1556,3.1754,3.2109,3.2605,3.2864,3.3107,3.3384,3.3621,3.3744,3.3744,3.3976,3.4089,3.4089,3.4089,3.3976,3.3744,3.3744,3.3621,3.3413,3.3638,3.3744,3.3756,3.3987,3.4376,3.4844,3.4844,3.516,3.56,3.56,3.56,3.56,3.56,3.56,3.56,3.56,3.56,3.56,3.56,3.5256,3.4754,3.4241,3.3925,3.3626,3.3129,3.2452,3.1787,3.1314,3.1195,3.1195,3.1195,3.1195,3.1195,3.1195,3.1195,3.1195,3.1195,3.0789,3.0543,3.0818,3.0197,2.9796,3.0069,2.9859,2.9682,2.9682,2.9682,2.9682,2.9682,3.0146,3.0441,3.0441,3.0908,3.1195,3.1195,3.1195,3.1195,3.1195,3.1195,3.1195,3.1195,3.1195,3.1195,3.1195,3.1195,3.1195,3.1195,3.1195,3.1107,3.0878,3.0277,3.0027,3.0044,3.0319,3.1246,3.2595,3.3476,3.456,3.56,3.56,3.56,3.56,3.1195,3.1195,3.1195,3.1195,3.1195,3.1195,3.1195,3.1195,3.1195,3.1195,3.1195,3.1195,3.1195,3.1865,3.2293,3.2293,3.2966,3.3401,3.3401,3.4105,3.4184,3.3452,3.4122,3.4511,3.4511,3.5222,3.56,3.56,3.56,3.5222,3.4511,3.4511,3.4122,3.3452,3.4184,3.4511,3.4562,3.5289,3.56,3.56,3.56,3.56,3.56,3.56,3.56,3.56,3.56,3.56,3.56,3.56,3.56,3.56,3.56,3.56,3.56,3.56,3.5075,3.4516,3.4494,3.3964,3.3041,3.1584,3.1217,3.1217,3.1195,3.1195,3.1195,3.1195,3.1195,3.1195,3.1195,3.1195,3.0954,3.0234,3.0717,3.0937,3.0217,3.0734,3.1195,3.1195,3.1195,3.1195,3.1195,3.1195,3.1195,3.1195,3.1195,3.1195,3.1195,3.1195,3.1195,3.1195,3.1195,3.1195,3.1195,3.1195,3.1195,3.1195,3.1195,3.1195,3.1195,3.1195,3.0868,3.0261,2.9662,2.9395,2.9459,3.0204,3.1292,3.2629,3.3972,3.4951,3.56,3.56,3.56,3.56,3.1195,3.1195,3.1195,3.1195,3.1195,3.1195,3.1195,3.1195,3.1195,3.1195,3.1195,3.1195,3.1195,3.1865,3.2293,3.2293,3.2966,3.3621,3.4139,3.4855,3.5166,3.4946,3.5149,3.5273,3.5273,3.5487,3.56,3.56,3.56,3.5487,3.5273,3.5273,3.5149,3.4946,3.5166,3.5273,3.5289,3.5504,3.56,3.56,3.56,3.56,3.56,3.56,3.56,3.56,3.56,3.56,3.56,3.56,3.56,3.56,3.56,3.56,3.56,3.56,3.5436,3.5154,3.4646,3.4342,3.3817,3.2339,3.1967,3.1848,3.1319,3.1195,3.1195,3.1195,3.1195,3.1195,3.1195,3.1195,3.1128,3.0908,3.106,3.1128,3.0903,3.106,3.1195,3.1195,3.1195,3.1195,3.1195,3.1195,3.1195,3.1195,3.1195,3.1195,3.1195,3.1195,3.1195,3.1195,3.1195,3.1195,3.1195,3.1195,3.1195,3.1195,3.1195,3.1195,3.1195,3.1195,3.0868,3.0261,2.9662,2.9431,2.9522,3.0262,3.1351,3.2704,3.4042,3.4989,3.56,3.56,3.56,3.56,3.1195,3.1195,3.1195,3.1195,3.1195,3.1195,3.1195,3.1195,3.1195,3.1195,3.1195,3.1314,3.1606,3.2283,3.2841,3.3134,3.3846,3.4461,3.4912,3.5357,3.56,3.56,3.56,3.56,3.56,3.56,3.56,3.56,3.56,3.56,3.56,3.56,3.56,3.56,3.56,3.56,3.56,3.56,3.56,3.56,3.56,3.56,3.56,3.56,3.56,3.56,3.56,3.56,3.56,3.56,3.56,3.56,3.56,3.56,3.56,3.56,3.56,3.5504,3.5058,3.494,3.4658,3.3473,3.2948,3.2621,3.2171,3.1838,3.164,3.164,3.1403,3.1195,3.1195,3.1195,3.1195,3.1195,3.1195,3.1195,3.1195,3.1195,3.1195,3.1195,3.1195,3.1195,3.1195,3.1195,3.1195,3.1195,3.1195,3.1195,3.1195,3.1195,3.1195,3.1195,3.1195,3.1195,3.1195,3.1195,3.1195,3.1195,3.0965,3.0848,3.0838,3.0607,3.0161,2.9584,2.9471,2.9334,2.9257,3.0773,3.1873,3.2755,3.4372,3.5242,3.56,3.56,3.5425,3.5207,3.1195,3.1195,3.1195,3.1195,3.1195,3.1195,3.1195,3.1195,3.1195,3.1195,3.1268,3.1556,3.2226,3.3022,3.3778,3.4443,3.5171,3.56,3.56,3.56,3.56,3.56,3.56,3.56,3.56,3.56,3.56,3.56,3.56,3.56,3.56,3.56,3.56,3.56,3.56,3.56,3.56,3.56,3.56,3.56,3.56,3.56,3.56,3.56,3.56,3.56,3.56,3.56,3.56,3.56,3.56,3.56,3.56,3.56,3.56,3.56,3.56,3.56,3.56,3.56,3.5436,3.4776,3.4094,3.3565,3.3429,3.2887,3.2378,3.231,3.1764,3.1285,3.1212,3.1195,3.1195,3.1195,3.1195,3.1195,3.1195,3.1195,3.1195,3.1195,3.1195,3.1195,3.1195,3.1195,3.1195,3.1195,3.1195,3.1195,3.1195,3.1195,3.1195,3.1195,3.1195,3.1195,3.1195,3.1151,3.1126,3.1116,3.0554,3.0294,3.0296,2.9742,2.9186,2.871,2.9317,2.9287,2.8965,3.1546,3.263,3.2888,3.4836,3.56,3.56,3.56,3.5184,3.4588,3.1195,3.1195,3.1195,3.1195,3.1195,3.1195,3.1195,3.1195,3.1195,3.1195,3.1696,3.2124,3.2276,3.3467,3.4325,3.4483,3.5171,3.56,3.56,3.56,3.56,3.56,3.56,3.56,3.56,3.56,3.56,3.56,3.56,3.56,3.56,3.56,3.56,3.56,3.56,3.56,3.56,3.56,3.56,3.56,3.56,3.56,3.56,3.56,3.56,3.56,3.56,3.56,3.56,3.56,3.56,3.56,3.56,3.56,3.56,3.56,3.56,3.56,3.56,3.56,3.5566,3.5408,3.5233,3.4827,3.3666,3.3288,3.3005,3.2424,3.2175,3.1887,3.1314,3.1195,3.1195,3.1195,3.1195,3.1195,3.1195,3.1195,3.1195,3.1195,3.1195,3.1195,3.1195,3.1195,3.1195,3.1195,3.1195,3.1195,3.1195,3.1195,3.1195,3.1195,3.1195,3.1195,3.1195,3.0725,3.0492,3.0492,3.0351,3.0332,3.0371,3.0239,3.0131,3.0063,3.0218,3.0206,3.022,3.1905,3.2906,3.3533,3.5019,3.56,3.56,3.56,3.5184,3.4522,3.0765,3.0539,3.0335,3.0335,3.0586,3.0765,3.0765,3.0765,3.0889,3.1209,3.1332,3.1649,3.2313,3.3082,3.3815,3.4497,3.4904,3.5115,3.5115,3.5115,3.4987,3.4663,3.4941,3.5115,3.5115,3.5447,3.56,3.56,3.56,3.56,3.56,3.56,3.56,3.56,3.56,3.56,3.56,3.56,3.56,3.56,3.56,3.56,3.56,3.56,3.56,3.56,3.56,3.56,3.56,3.56,3.56,3.56,3.56,3.56,3.56,3.56,3.56,3.56,3.56,3.56,3.56,3.56,3.56,3.5402,3.463,3.4179,3.3812,3.3439,3.3078,3.2701,3.2324,3.1957,3.1725,3.1725,3.1432,3.1195,3.1195,3.1195,3.1195,3.1195,3.1195,3.1195,3.1195,3.1195,3.1195,3.1195,3.1195,3.1195,3.1195,3.1195,3.1195,3.1195,3.1195,3.1214,3.1259,3.0611,3.0326,3.0387,2.9749,2.9626,2.996,2.9672,2.973,3.009,3.0381,3.0507,3.0606,3.2022,3.3009,3.3665,3.4374,3.4835,3.5081,3.4758,3.4227,3.3543,3.015,2.9745,2.9401,2.9401,2.981,3.015,3.015,3.015,3.0352,3.0898,3.0749,3.1029,3.2199,3.2534,3.3152,3.4333,3.4425,3.4425,3.4425,3.4425,3.418,3.362,3.4241,3.4594,3.4594,3.5253,3.56,3.56,3.56,3.56,3.56,3.5487,3.5492,3.5594,3.5481,3.5492,3.56,3.56,3.56,3.56,3.56,3.56,3.56,3.56,3.56,3.56,3.56,3.56,3.56,3.56,3.56,3.56,3.56,3.56,3.56,3.56,3.56,3.56,3.56,3.56,3.56,3.56,3.56,3.56,3.56,3.5126,3.4641,3.4528,3.4015,3.3553,3.3418,3.2904,3.2491,3.2491,3.1865,3.1386,3.1386,3.1285,3.1195,3.1195,3.1195,3.1195,3.1195,3.1195,3.1195,3.1195,3.1195,3.1195,3.1195,3.1195,3.1195,3.1195,3.1195,3.1225,3.1298,3.0658,3.0371,3.0496,2.9268,2.9027,2.9648,2.9147,2.9287,2.9945,3.044,3.0665,3.0773,3.2076,3.2935,3.3443,3.3566,3.3943,3.4352,3.3671,3.3079,3.2484,2.9524,2.9457,2.9401,2.9401,2.9468,2.9524,2.9524,2.9524,2.955,2.9647,3.0648,3.1418,3.161,3.2724,3.3524,3.3729,3.3735,3.3735,3.3735,3.3735,3.3691,3.3601,3.4241,3.4594,3.4594,3.5253,3.56,3.56,3.56,3.56,3.5588,3.5016,3.5046,3.5577,3.4982,3.5063,3.56,3.56,3.56,3.56,3.56,3.56,3.56,3.56,3.56,3.56,3.56,3.56,3.56,3.56,3.56,3.56,3.56,3.56,3.56,3.56,3.56,3.56,3.56,3.56,3.56,3.56,3.56,3.56,3.56,3.5521,3.5273,3.4629,3.4426,3.4156,3.3519,3.3316,3.3249,3.3249,3.2638,3.2158,3.2158,3.1606,3.1195,3.1195,3.1195,3.1195,3.1195,3.1195,3.1195,3.1195,3.1195,3.1195,3.1195,3.1195,3.1195,3.1195,3.1195,3.1225,3.1298,3.0693,3.0422,3.0483,2.9796,2.9766,3.0354,3.0279,3.0613,3.1249,3.1331,3.1354,3.1433,3.2269,3.2648,3.2788,3.3372,3.3668,3.3646,3.2973,3.2682,3.2484,2.8902,2.8632,2.8394,2.8394,2.8664,2.8902,2.8902,2.8902,2.9179,2.9925,3.026,3.0719,3.142,3.2043,3.2583,3.3006,3.3039,3.3039,3.3039,3.3039,3.2853,3.2448,3.311,3.3489,3.3489,3.4147,3.4477,3.4477,3.4853,3.5046,3.5034,3.4352,3.4192,3.4484,3.4552,3.4562,3.4526,3.5287,3.5167,3.4554,3.5299,3.515,3.4514,3.4894,3.5046,3.5092,3.547,3.56,3.56,3.56,3.56,3.56,3.56,3.56,3.56,3.56,3.56,3.56,3.56,3.56,3.56,3.56,3.56,3.56,3.56,3.56,3.5504,3.5177,3.5103,3.5019,3.4692,3.4297,3.4015,3.4015,3.305,3.2293,3.2293,3.1662,3.1195,3.1195,3.1195,3.1195,3.1195,3.1195,3.1195,3.1195,3.1195,3.1195,3.1195,3.1195,3.1215,3.1258,3.1253,3.1292,3.1363,3.0758,3.0657,3.105,3.0413,3.0238,3.05,3.05,3.0867,3.1503,3.1503,3.1503,3.1532,3.1853,3.2238,3.2586,3.2468,3.2427,3.2386,3.209,3.1986,3.1937]},{"header":{"parameterUnit":"m.s-1","parameterCategory":1,"la1":30.6,"la2":28.766,"lo1":-90.7593,"lo2":-88.6598,"dy":0.0162,"dx":0.0183,"nx":116,"ny":114,"refTime":"2024-06-10T18:00:00:Z","depth":0,"parameterNumber":3,"parameterNumberName":"V-component_of_WINDS"},"data":[0.0,0.0,0.0,0.0,0.0,0.0,0.0,0.0,0.0,0.0,0.0,0.0,0.0,0.0,0.0,0.0,0.0,0.0,0.0,0.0,0.0,0.0,0.0,0.0,0.0,0.0,0.0,0.0,0.0,0.0,0.0,0.0,0.0,0.0,0.0,0.0,0.0,0.0,0.0,0.0,0.0,0.0,0.0,0.0,0.0,0.0,0.0,0.0,0.0,0.0,0.0,0.0,0.0,0.0,0.0,0.0,0.0,0.0,0.0,0.0,0.0,0.0,0.0,0.0,0.0,0.0,0.0,0.0,0.0,0.0,0.0,0.0,0.0,0.0,0.0,0.0,0.0,0.0,0.0,0.0,0.0,0.0,0.0,0.0,0.0,0.0,0.0,0.0,0.0,0.0,0.0,0.0,0.0,0.0,0.0,0.0,0.0,0.0,0.0,0.0,0.0,0.0,0.0,0.0,0.0,0.0,0.0,0.0,0.0,0.0,0.0,0.0,0.0,0.0,0.0,0.0,0.0,0.0,0.0,0.0,0.0,0.0,0.0,0.0,0.0,0.0,0.0,0.0,0.0,0.0,0.0,0.0,0.0,0.0,0.0,0.0,0.0,0.0,0.0,0.0,0.0,0.0,0.0,0.0,0.0,0.0,0.0,0.0,0.0,0.0,0.0,0.0,0.0,0.0,0.0,0.0,0.0,0.0,0.0,0.0,0.0,0.0,0.0,0.0,0.0,0.0,0.0,0.0,0.0,0.0,0.0,0.0,0.0,0.0,0.0,0.0,0.0,0.0,0.0,0.0,0.0,0.0,0.0,0.0,0.0,0.0,0.0,0.0,0.0,0.0,0.0,0.0,0.0,0.0,0.0,0.0,0.0,0.0,0.0,0.0,0.0,0.0,0.0,0.0,0.0,0.0,0.0,0.0,0.0,0.0,0.0,0.0,0.0,0.0,0.0,0.0,0.0,0.0,0.0,0.0,0.0,0.0,0.0,0.0,0.0,0.0,0.0,0.0,0.0,0.0,0.0,0.0,0.0,0.0,0.0,0.0,0.0,0.0,0.0,0.0,0.0,0.0,0.0,0.0,0.0,0.0,0.0,0.0,0.0,0.0,0.0,0.0,0.0,0.0,0.0,0.0,0.0,0.0,0.0,0.0,0.0,0.0,0.0,0.0,0.0,0.0,0.0,0.0,0.0,0.0,0.0,0.0,0.0,0.0,0.0,0.0,0.0,0.0,0.0,0.0,0.0,0.0,0.0,0.0,0.0,0.0,0.0,0.0,0.0,0.0,0.0,0.0,0.0,0.0,0.0,0.0,0.0,0.0,0.0,0.0,0.0,0.0,0.0,0.0,0.0,0.0,0.0,0.0,0.0,0.0,0.0,0.0,0.0,0.0,0.0,0.0,0.0,0.0,0.0,0.0,0.0,0.0,0.0,0.0,0.0,0.0,0.0,0.0,0.0,0.0,0.0,0.0,0.0,0.0,0.0,0.0,0.0,0.0,0.0,0.0,0.0,0.0,0.0,0.0,0.0,0.0,0.0,0.0,0.0,0.0,0.0,0.0,0.0,0.0,0.0,0.0,0.0,0.0,0.0,0.0,0.0,0.0,0.0,0.0,0.0,0.0,0.0,0.0,0.0,0.0,0.0,0.0,0.0,0.0,0.0,0.0,0.0,0.0,0.0,0.0,0.0,0.0,0.0,0.0,0.0,0.0,0.0,0.0,0.0,0.0,0.0,0.0,0.0,0.0,0.0,0.0,0.0,0.0,0.0,0.0,0.0,0.0,0.0,0.0,0.0,0.0,0.0,0.0,0.0,0.0,0.0,0.0,0.0,0.0,0.0,0.0,0.0,0.0,0.0,0.0,0.0,0.0,0.0,0.0,0.0,0.0,0.0,0.0,0.0,0.0,0.0,0.0,0.0,0.0,0.0,0.0,0.0,0.0,0.0,0.0,0.0,0.0,0.0,0.0,0.0,0.0,0.0,0.0,0.0,0.0,0.0,0.0,0.0,0.0,0.0,0.0,0.0,0.0,0.0,0.0,0.0,0.0,0.0,0.0,0.0,0.0,0.0,0.0,0.0,0.0,0.0,0.0,0.0,0.0,0.0,0.0,0.0,0.0,0.0,0.0,0.0,0.0,0.0,0.0,0.0,0.0,0.0,0.0,0.0,0.0,0.0,0.0,0.0,0.0,0.0,0.0,0.0,0.0,0.0,0.0,0.0,0.0,0.0,0.0,0.0,0.0,0.0,0.0,0.0,0.0,0.0,0.0,0.0,0.0,0.0,0.0,0.0,0.0,0.0,0.0,0.0,0.0,0.0,0.0,0.0,0.0,0.0,0.0,0.0,0.0,0.0,0.0,0.0,0.0,0.0,0.0,0.0,0.0,0.0,0.0,0.0,0.0,0.0,0.0,0.0,0.0,0.0,0.0,0.0,0.0,0.0,0.0,0.0,0.0,0.0,0.0,0.0,0.0,0.0,0.0,0.0,0.0,0.0,0.0,0.0,0.0,0.0,0.0,0.0,0.0,0.0,0.0,0.0,0.0,0.0,0.0,0.0,0.0,0.0,0.0,0.0,0.0,0.0,0.0,0.0,0.0,0.0,0.0,0.0,0.0,0.0,0.0,0.0,0.0,0.0,0.0,0.0,0.0,0.0,0.0,0.0,0.0,0.0,0.0,0.0,0.0,0.0,0.0,0.0,0.0,0.0,0.0,0.0,0.0,0.0,0.0,0.0,0.0,0.0,0.0,0.0,0.0,0.0,0.0,0.0,0.0,0.0,0.0,0.0,0.0,0.0,0.0,0.0,0.0,0.0,0.0,0.0,0.0,0.0,0.0,0.0,0.0,0.0,0.0,0.0,0.0,0.0,0.0,0.0,0.0,0.0,0.0,0.0,0.0,0.0,0.0,0.0,0.0,0.0,0.0,0.0,0.0,0.0,0.0,0.0,0.0,0.0,0.0,0.0,0.0,0.0,0.0,0.0,0.0,0.0,0.0,0.0,0.0,0.0,0.0,0.0,0.0,0.0,0.0,0.0,0.0,0.0,0.0,0.0,0.0,0.0,0.0,0.0,0.0,0.0,0.0,0.0,0.0,0.0,0.0,0.0,0.0,0.0,0.0,0.0,0.0,0.0,0.0,0.0,0.0,0.0,0.0,0.0,0.0,0.0,0.0,0.0,0.0,0.0,0.0,0.0,0.0,0.0,0.0,0.0,0.0,0.0,0.0,0.0,0.0,0.0,0.0,0.0,0.0,0.0,0.0,0.0,0.0,0.0,0.0,0.0,0.0,0.0,0.0,0.0,0.0,0.0,0.0,0.0,0.0,0.0,0.0,0.0,0.0,0.0,0.0,0.0,0.0,0.0,0.0,0.0,0.0,0.0,0.0,0.0,0.0,0.0,0.0,0.0,0.0,0.0,0.0,0.0,0.0,0.0,0.0,0.0,0.0,0.0,0.0,0.0,0.0,0.0,0.0,0.0,0.0,0.0,0.0,0.0,0.0,0.0,0.0,0.0,0.0,0.0,0.0,0.0,0.0,0.0,0.0,0.0,0.0,0.0,0.0,0.0,0.0,0.0,0.0,0.0,0.0,0.0,0.0,0.0,0.0,0.0,0.0,0.0,0.0,0.0,0.0,0.0,0.0,0.0,0.0,0.0,0.0,0.0,0.0,0.0,0.0,0.0,0.0,0.0,0.0,0.0,0.0,0.0,0.0,0.0,0.0,0.0,0.0,0.0,0.0,0.0,0.0,0.0,0.0,0.0,0.0,0.0,0.0,0.0,0.0,0.0,0.0,0.0,0.0,0.0,0.0,0.0,0.0,0.0,0.0,0.0,0.0,0.0,0.0,0.0,0.0,0.0,0.0,0.0,0.0,0.0,0.0,0.0,0.0,0.0,0.0,0.0,0.0,0.0,0.0,0.0,0.0,0.0,0.0,0.0,0.0,0.0,0.0,0.0,0.0,0.0,0.0,0.0,0.0,0.0,0.0,0.0,0.0,0.0,0.0,0.0,0.0,0.0,0.0,0.0,0.0,0.0,0.0,0.0,0.0,0.0,0.0,0.0,0.0,0.0,0.0,0.0,0.0,0.0,0.0,0.0,0.0,0.0,0.0,0.0,0.0,0.0,0.0,0.0,0.0,0.0,0.0,0.0,0.0,0.0,0.0,0.0,0.0,0.0,0.0,0.0,0.0,0.0,0.0,0.0,0.0,0.0,0.0,0.0,0.0,0.0,0.0,0.0,0.0,0.0,0.0,0.0,0.0,0.0,0.0,0.0,0.0,0.0,0.0,0.0,0.0,0.0,0.0,0.0,0.0,0.0,0.0,0.0,0.0,0.0,0.0,0.0,0.0,0.0,0.0,0.0,0.0,0.0,0.0,0.0,0.0,0.0,0.0,0.0,0.0,0.0,0.0,0.0,0.0,0.0,0.0,0.0,0.0,0.0,0.0,0.0,0.0,0.0,0.0,0.0,0.0,0.0,0.0,0.0,0.0,0.0,0.0,0.0,0.0,0.0,0.0,0.0,0.0,0.0,0.0,0.0,0.0,0.0,0.0,0.0,0.0,0.0,0.0,0.0,0.0,0.0,0.0,0.0,0.0,0.0,0.0,0.0,0.0,0.0,0.0,0.0,0.0,0.0,0.0,0.0,0.0,0.0,0.0,0.0,0.0,0.0,0.0,0.0,0.0,0.0,0.0,0.0,0.0,0.0,0.0,0.0,0.0,0.0,0.0,0.0,0.0,0.0,0.0,0.0,0.0,0.0,0.0,0.0,0.0,0.0,0.0,0.0,0.0,0.0,0.0,0.0,0.0,0.0,0.0,0.0,0.0,0.0,0.0,0.0,0.0,0.0,0.0,0.0,0.0,0.0,0.0,0.0,0.0,0.0,0.0,0.0,0.0,0.0,0.0,0.0,0.0,0.0,0.0,0.0,0.0,0.0,0.0,0.0,0.0,0.0,0.0,0.0,0.0,0.0,0.0,0.0,0.0,0.0,0.0,0.0,0.0,0.0,0.0,0.0,0.0,0.0,0.0,0.0,0.0,0.0,0.0,0.0,0.0,0.0,0.0,0.0,0.0,0.0,0.0,0.0,0.0,0.0,0.0,0.0,0.0,0.0,0.0,0.0,0.0,0.0,0.0,0.0,0.0,0.0,0.0,0.0,0.0,0.0,0.0,0.0,0.0,0.0,0.0,0.0,0.0,0.0,0.0,0.0,0.0,0.0,0.0,0.0,0.0,0.0,0.0,0.0,0.0,0.0,0.0,0.0,0.0,0.0,0.0,0.0,0.0,0.0,0.0,0.0,0.0,0.0,0.0,0.0,0.0,0.0,0.0,0.0,0.0,0.0,0.0,0.0,0.0,0.0,0.0,0.0,0.0,0.0,0.0,0.0,0.0,0.0,0.0,0.0,0.0,0.0,0.0,0.0,0.0,0.0,0.0,0.0,0.0,0.0,0.0,0.0,0.0,0.0,0.0,0.0,0.0,0.0,0.0,0.0,0.0,0.0,0.0,0.0,0.0,0.0,0.0,0.0,0.0,0.0,0.0,0.0,0.0,0.0,0.0,0.0,0.0,0.0,0.0,0.0,0.0,0.0,0.0,0.0,0.0,0.0,0.0,0.0,0.0,0.0,0.0,0.0,0.0,0.0,0.0,0.0,0.0,0.0,0.0,0.0,0.0,0.0,0.0,0.0,0.0,0.0,0.0,0.0,0.0,0.0,0.0,0.0,0.0,0.0,0.0,0.0,0.0,0.0,0.0,0.0,0.0,0.0,0.0,0.0,0.0,0.0,0.0,0.0,0.0,0.0,0.0,0.0,0.0,0.0,0.0,0.0,0.0,0.0,0.0,0.0,0.0,0.0,0.0,0.0,0.0,0.0,0.0,0.0,0.0,0.0,0.0,0.0,0.0,0.0,0.0,0.0,0.0,0.0,0.0,0.0,0.0,0.0,0.0,0.0,0.0,0.0,0.0,0.0,0.0,0.0,0.0,0.0,0.0,0.0,0.0,0.0,0.0,0.0,0.0,0.0,0.0,0.0,0.0,0.0,0.0,0.0,0.0,0.0,0.0,0.0,0.0,0.0,0.0,0.0,0.0,0.0,0.0,0.0,0.0,1.0588,0.9834,0.0,0.0,0.0,0.0,0.0,0.0,0.0,0.0,0.0,0.0,0.0,0.0,0.0,0.0,0.0,0.0,0.0,0.0,0.0,0.0,0.0,0.0,0.0,0.491,0.4743,0.4354,0.4321,0.4143,0.3736,0.0,0.0,0.0,0.0,0.0,0.4507,0.4525,0.4664,0.4922,0.5472,0.6052,0.6654,0.6723,0.6744,0.6706,0.0,0.0,0.0,0.0,0.0,0.0,0.0,0.0,0.0,0.0,0.0,0.0,0.0,0.0,0.0,0.0,0.0,0.0,0.0,0.0,0.0,0.0,0.0,0.0,0.0,0.0,0.0,0.0,0.0,0.0,0.0,0.0,0.0,0.0,0.0,0.0,0.0,0.0,0.0,0.0,0.0,0.0,0.0,0.0,0.0,0.0,0.0,0.0,0.0,0.0,0.0,0.0,0.0,0.0,0.0,0.0,0.0,0.0,0.0,0.0,0.0,0.0,0.0,0.0,0.0,0.0,0.0,0.0,0.0,0.0,1.2268,1.1419,0.0,0.0,0.0,0.0,0.0,0.0,0.0,0.0,0.0,0.0,0.0,0.0,0.0,0.0,0.0,0.0,0.0,0.0,0.0,0.0,0.0,0.465,0.4711,0.4717,0.454,0.4096,0.406,0.3941,0.3675,0.4068,0.0,0.0,0.0,0.4543,0.4321,0.4632,0.5065,0.5613,0.6238,0.7212,0.8521,0.907,0.8986,0.8353,0.7786,0.0,0.0,0.0,0.0,0.0,0.0,0.0,0.0,0.0,0.0,0.0,0.0,0.0,0.0,0.0,0.0,0.0,0.0,0.0,0.0,0.0,0.0,0.0,0.0,0.0,0.0,0.0,0.0,0.0,0.0,0.0,0.0,0.0,0.0,0.0,0.0,0.0,0.0,0.0,0.0,0.0,0.0,0.0,0.0,0.0,0.0,0.0,0.0,0.0,0.0,0.0,0.0,0.0,0.0,0.0,0.0,0.0,0.0,0.0,0.0,0.0,0.0,0.0,1.4179,1.4644,1.5742,1.5398,1.5469,1.5747,1.3913,1.3152,1.3173,1.2373,0.0,0.0,0.0,0.0,0.0,0.0,0.0,0.0,0.0,0.0,0.0,0.0,0.0,0.0,0.0,0.0,0.0,0.0,0.0,0.4462,0.4754,0.4784,0.4759,0.4685,0.4686,0.4565,0.4301,0.4346,0.0,0.0,0.4398,0.4421,0.4391,0.4657,0.5089,0.5685,0.7419,0.904,1.0521,1.061,1.0811,1.1032,0.9815,0.927,0.9193,0.0,0.0,0.0,0.0,0.0,0.0,0.0,0.0,0.0,0.0,0.0,0.0,0.0,0.0,0.0,0.0,0.0,0.0,0.0,0.0,0.0,0.0,0.0,0.0,0.0,0.0,0.0,0.0,0.0,0.0,0.0,0.0,0.0,0.0,0.0,0.0,0.0,0.0,0.0,0.0,0.0,0.8942,0.9843,0.0,0.0,0.0,0.0,0.0,0.0,0.0,0.0,0.0,0.0,0.0,0.0,0.0,1.4144,1.4966,1.5362,1.5649,1.584,1.6135,1.6576,1.7127,1.7086,1.7284,1.7619,1.6982,0.0,1.4506,1.3987,0.0,0.0,0.0,0.0,0.0,0.0,0.0,0.0,0.0,0.0,0.0,0.0,0.0,0.0,0.0,0.0,0.0,0.0,0.0,0.0,0.0,0.4843,0.496,0.4809,0.4969,0.495,0.4646,0.4765,0.4711,0.4417,0.4546,0.4555,0.4403,0.5139,0.6328,0.7943,0.9516,1.0747,1.1628,1.1628,1.1879,1.2299,1.172,1.1034,1.0249,0.8967,0.0,0.0,0.0,0.0,0.0,0.0,0.0,0.0,0.0,0.0,0.0,0.0,0.0,0.0,0.0,0.0,0.0,0.0,0.0,0.0,0.0,0.0,0.0,0.0,0.0,0.0,0.0,0.0,0.0,0.0,0.0,0.0,0.0,0.0,0.0,0.0,0.0,0.0,0.0,0.8017,0.9254,0.9887,1.03,1.0285,0.0,0.0,0.0,0.0,0.0,0.0,0.0,0.0,0.0,1.3899,1.4998,1.5734,1.6129,1.6826,1.7284,1.751,1.768,1.801,1.8474,1.8474,1.8563,1.8721,1.8544,1.7881,1.6857,1.5703,1.486,1.4258,0.0,0.0,0.0,0.0,1.3655,1.3713,0.0,0.0,0.0,0.0,0.0,0.0,0.0,0.0,0.0,0.0,0.0,0.0,0.4484,0.4937,0.5202,0.5164,0.5386,0.5423,0.5179,0.52,0.5042,0.4646,0.4743,0.4749,0.4636,0.5897,0.765,0.9877,1.0969,1.1696,1.2103,1.2283,1.2568,1.2899,1.2899,1.2346,1.1338,1.0161,0.9369,0.0,0.0,0.0,0.0,0.0,0.0,0.0,0.0,0.0,0.0,0.0,0.0,0.0,0.0,0.0,0.0,0.0,0.0,0.0,0.0,0.0,0.0,0.0,0.0,0.0,0.0,0.0,0.0,0.0,0.0,0.0,0.0,0.0,0.0,0.0,0.0,0.0,0.0,0.8852,0.9833,0.9966,1.1315,1.1671,0.0,0.0,0.0,0.0,0.0,0.0,1.396,1.4493,1.4982,1.5458,1.6595,1.7233,1.7358,1.8009,1.8479,1.8772,1.8772,1.9024,1.9443,1.9443,1.9521,1.9628,1.9511,1.9258,1.8821,1.7352,1.6414,1.5881,1.5583,1.5566,1.5708,1.5525,1.5644,1.5977,0.0,0.0,0.0,0.0,0.0,0.0,0.0,0.0,0.0,0.0,0.0,0.4216,0.4722,0.5089,0.5521,0.6082,0.6147,0.6147,0.6133,0.5602,0.5286,0.5257,0.4963,0.494,0.525,0.6932,0.8647,1.0363,1.0936,1.1432,1.1837,1.2543,1.288,1.2899,1.2899,1.2854,1.2743,1.185,1.0978,1.0092,0.0,0.0,0.0,0.0,0.0,0.0,0.0,0.0,0.0,0.0,0.0,0.0,0.0,0.0,0.0,0.0,0.0,0.0,0.0,0.0,0.0,0.0,0.0,0.0,0.0,0.0,0.0,0.0,0.0,0.0,0.0,0.0,0.0,0.0,0.0,0.0,0.0,0.0,0.0,1.082,1.2319,0.0,0.0,0.0,0.0,1.3938,1.4719,1.5593,1.6474,1.6554,1.7129,1.8349,1.8463,1.8722,1.9159,1.9208,1.9247,1.9257,1.9257,1.9473,1.9873,1.9873,2.0107,2.0507,2.0059,1.9864,1.9757,1.885,1.801,1.7301,1.7282,1.7012,1.6685,1.7109,1.7282,1.736,0.0,0.0,0.0,0.0,0.0,0.3501,0.3501,0.3501,0.3501,0.3501,0.409,0.4585,0.478,0.56,0.622,0.6437,0.6616,0.6643,0.6466,0.6097,0.5959,0.6126,0.5858,0.6178,0.721,0.8093,0.932,1.0909,1.1366,1.1896,1.2507,1.278,1.2899,1.2899,1.2899,1.2899,1.286,1.2252,1.1661,1.1071,1.0312,0.9326,0.0,0.0,0.0,0.0,0.0,0.0,0.0,0.0,0.0,0.0,0.0,0.0,0.0,0.0,0.0,0.0,0.0,0.0,0.0,0.0,0.0,0.0,0.0,0.0,0.0,0.0,0.0,0.0,0.0,0.0,0.0,0.0,0.0,0.0,0.0,0.0,0.0,1.2678,1.4183,0.0,1.4191,1.4612,1.5174,1.5732,1.6054,1.6734,1.7867,1.7925,1.8265,1.9033,1.9298,1.9522,1.9678,1.999,2.0146,2.0146,2.0146,2.0205,2.0351,2.0351,2.0439,2.0586,2.042,2.0351,2.0332,2.0019,1.9393,1.8621,1.8621,1.8524,1.8389,1.8563,1.8621,1.8642,0.0,0.0,0.0,0.0,0.3501,0.3501,0.3501,0.3501,0.3539,0.365,0.4329,0.4877,0.508,0.6001,0.6632,0.6727,0.6892,0.6925,0.6747,0.6486,0.6415,0.659,0.6514,0.7109,0.847,0.865,0.9392,1.0735,1.1226,1.1705,1.22,1.2826,1.3102,1.3108,1.3242,1.3301,1.3278,1.2824,1.2313,1.1759,1.1319,1.0542,0.9581,0.0,0.0,0.0,0.0,0.0,0.0,0.0,0.0,0.0,0.0,0.0,0.0,0.0,0.0,0.0,0.0,0.0,0.0,0.0,0.0,0.0,0.0,0.0,0.0,0.0,0.0,0.0,0.0,0.0,0.0,0.0,0.0,0.0,0.0,0.0,1.2872,1.3581,1.5374,1.6266,1.557,1.6085,1.6715,1.7301,1.7493,1.8002,1.8987,1.9035,1.9249,1.9726,2.0,2.0195,2.0342,2.0644,2.0889,2.1045,2.1045,2.1045,2.1045,2.1045,2.1045,2.1045,2.1045,2.1045,2.1045,2.1045,2.0693,2.0146,1.9843,1.9735,1.9735,1.9735,1.9735,1.9716,0.0,0.0,0.0,0.3477,0.3482,0.3487,0.3487,0.3495,0.362,0.3954,0.4476,0.504,0.5634,0.6246,0.6713,0.6973,0.7,0.7,0.7,0.6754,0.661,0.6623,0.6904,0.7632,0.8867,0.8573,0.8873,0.9801,1.0455,1.0811,1.089,1.2658,1.3487,1.3538,1.3935,1.4097,1.4068,1.3682,1.3028,1.2217,1.1809,1.1359,1.0854,0.0,0.0,0.0,0.0,0.0,0.0,0.0,0.0,0.0,0.0,0.0,0.0,0.0,0.0,0.0,0.0,0.0,0.0,0.0,0.0,0.0,0.0,0.0,0.0,0.0,0.0,0.0,0.0,0.0,0.0,0.0,0.0,0.0,1.0254,1.1999,1.3323,1.3478,1.5829,1.7009,1.5915,1.7519,1.8627,1.8637,1.9063,1.9501,1.9903,1.9932,2.0146,2.0595,2.0625,2.083,2.122,2.122,2.1445,2.1895,2.1895,2.1895,2.1895,2.1895,2.1895,2.1895,2.1895,2.1895,2.1895,2.1895,2.1895,2.1817,2.0977,2.0625,2.0615,2.0615,2.0605,2.0537,0.0,0.0,0.3145,0.2955,0.3079,0.3213,0.3213,0.3372,0.362,0.3954,0.4677,0.5297,0.5659,0.6412,0.6918,0.6993,0.7,0.7,0.7,0.6754,0.6796,0.7235,0.7929,0.8466,0.8819,0.8741,0.9056,0.9801,1.0231,1.0982,1.2051,1.2742,1.3375,1.3938,1.4049,1.4097,1.4091,1.3977,1.3802,1.3519,1.2819,1.2256,1.1784,0.0,0.0,0.0,0.0,0.0,0.0,0.0,0.0,0.0,0.0,0.0,0.0,0.0,0.0,0.0,0.0,0.0,0.0,0.0,0.0,0.0,0.0,0.0,0.0,0.0,0.0,0.0,0.0,0.0,0.0,0.0,0.0,1.0684,1.1278,1.3475,1.5189,1.5654,1.7224,1.8281,1.8308,1.8798,1.9229,1.9523,1.9659,1.9932,2.0381,2.0684,2.0898,2.1025,2.1367,2.1602,2.1709,2.1709,2.1768,2.1895,2.1895,2.1895,2.1895,2.1895,2.1895,2.1895,2.1895,2.1895,2.1895,2.1895,2.1895,2.1886,2.1641,2.1328,2.1045,2.1045,2.085,2.0576,0.0,0.3009,0.2886,0.2724,0.2832,0.2971,0.3081,0.3234,0.3533,0.4092,0.4828,0.5458,0.5861,0.6563,0.7,0.7,0.7,0.7,0.7,0.6986,0.7243,0.7852,0.8363,0.8684,0.8798,0.8798,0.9043,0.9546,1.0049,1.0796,1.1756,1.2397,1.3124,1.3905,1.4067,1.4325,1.463,1.4462,1.4391,1.4339,1.3665,1.3138,1.2677,1.208,1.1674,1.132,1.0409,0.9706,0.9095,0.8409,0.0,0.0,0.0,0.0,0.0,0.0,0.0,0.0,0.0,0.0,0.0,0.0,0.0,0.0,0.0,0.0,0.0,0.0,0.0,0.0,0.0,0.0,0.0,0.0,1.0689,1.1949,1.2587,1.4355,1.5933,1.6937,1.8286,1.9249,1.9521,1.9735,2.0009,2.041,2.044,2.0654,2.1124,2.1367,2.1484,2.1484,2.1758,2.1983,2.2148,2.2148,2.2236,2.2401,2.2401,2.2401,2.2401,2.2401,2.2401,2.2401,2.2401,2.2401,2.2401,2.2401,2.2401,2.2362,0.0,0.0,0.0,0.0,2.122,2.085,0.0,0.2834,0.2632,0.2603,0.2624,0.2721,0.2963,0.303,0.3371,0.4238,0.4847,0.5439,0.6077,0.6632,0.6958,0.6958,0.7018,0.7066,0.71,0.7413,0.7838,0.8375,0.8429,0.8557,0.8791,0.8831,0.8964,0.9197,0.9922,1.045,1.0796,1.1841,1.2757,1.355,1.3912,1.451,1.5243,1.4882,1.4776,1.4828,1.4364,1.3913,1.3421,1.2642,1.2315,1.2142,1.1104,1.0422,0.9844,0.8815,0.0,0.0,0.0,0.0,0.0,0.0,0.0,0.0,0.0,0.0,0.0,0.0,0.0,0.0,0.0,0.0,0.0,0.0,0.0,0.0,0.0,0.0,0.0,0.0,1.1929,1.3392,1.3977,1.4931,1.612,1.7608,1.9042,1.9922,1.9971,2.04,2.082,2.1161,2.1249,2.1454,2.1876,0.0,0.0,0.0,0.0,2.2207,2.2557,2.2567,2.2752,2.3091,2.3091,2.3091,2.3091,2.3233,2.3222,2.3113,2.3244,2.3222,2.3113,2.3244,2.3365,2.3383,2.236,2.1963,2.1963,2.1925,2.1641,2.1278,0.0,0.2519,0.2226,0.2014,0.2154,0.2313,0.2365,0.2605,0.309,0.3961,0.4367,0.4886,0.5706,0.6319,0.6678,0.6678,0.7124,0.7494,0.0,0.0,0.8275,0.8395,0.8604,0.8751,0.8798,0.9011,0.9151,0.9197,0.9829,1.0496,1.1189,1.1684,1.2348,1.3121,1.3203,1.3681,1.4427,1.4354,1.4693,1.5254,1.4824,1.4199,1.348,1.3308,1.3057,1.2662,1.1859,1.1167,1.0506,0.9768,0.8946,0.8178,0.7774,0.0,0.0,0.0,0.0,0.0,0.0,0.0,0.0,0.0,0.0,0.0,0.0,0.0,0.0,0.0,0.0,0.0,0.0,0.0,0.0,1.1375,1.208,1.3093,1.4787,1.5945,1.7037,1.8207,1.9269,2.0049,2.0439,2.084,2.1123,2.119,2.1552,2.1797,2.1905,2.2207,2.2382,2.2382,2.2693,2.2918,2.2985,2.2985,2.3013,2.3091,2.3091,0.0,2.3124,2.4049,2.3963,2.3146,2.4071,2.3952,2.3167,2.4082,2.501,2.5607,2.329,2.2382,2.2343,2.2022,2.1846,2.1758,0.2394,0.2207,0.1959,0.1822,0.1913,0.2047,0.2181,0.234,0.2741,0.3545,0.3912,0.4344,0.4978,0.5644,0.5969,0.5771,0.6485,0.0,0.0,0.8062,0.8456,0.8597,0.8731,0.8798,0.8798,0.9064,0.9277,0.9445,0.9885,1.0386,1.0952,1.1124,1.1632,1.2397,1.2397,1.2848,1.3598,1.3598,1.3831,1.418,1.3982,1.3523,1.2957,1.2989,1.2871,1.2531,1.1255,1.058,1.0205,0.9523,0.899,0.8544,0.8243,0.8055,0.7832,0.0,0.0,0.0,0.0,0.0,0.0,0.0,0.0,0.0,0.0,0.0,0.0,0.0,0.0,0.9512,0.0,0.0,1.13,1.2201,1.2688,1.3502,1.508,1.6339,1.7511,1.862,1.9639,2.042,2.0859,2.1084,2.1386,2.1825,2.207,2.2295,2.2489,2.2693,2.2801,2.2801,2.2995,2.3091,2.3091,2.3091,2.3091,2.3091,2.3091,2.3091,2.3113,2.3692,2.3952,2.3952,2.3952,2.3952,2.3995,2.4574,2.5462,2.6367,2.5027,2.4147,2.3629,2.3427,2.2858,2.2197,0.2079,0.1948,0.18,0.18,0.18,0.1874,0.2091,0.212,0.2378,0.3089,0.3442,0.3795,0.4234,0.4886,0.5213,0.5033,0.6,0.0,0.0,0.7997,0.8577,0.8791,0.8798,0.8824,0.8878,0.9158,0.9458,0.9781,1.006,1.0343,1.0601,1.0601,1.095,1.157,1.157,1.2012,1.2772,1.2772,1.2864,1.3001,1.3001,1.2805,1.2491,1.2271,1.2219,1.2053,1.0388,0.9801,0.9697,0.9028,0.8798,0.8758,0.8543,0.8476,0.8369,0.7832,0.7671,0.0,0.0,0.0,0.0,0.0,0.0,0.0,0.0,0.0,0.9399,1.0002,1.0302,1.07,1.1521,1.1886,1.2268,1.2864,1.3317,1.4022,1.5217,1.6488,1.7646,1.8569,1.9805,2.0762,2.1161,2.1278,2.1659,2.2441,2.2566,2.2762,2.3081,2.3091,2.3091,2.3091,2.3091,2.3091,2.3091,2.3091,2.3091,2.3091,2.3091,2.3091,2.3113,2.3332,2.3811,2.4414,2.3496,2.3995,2.542,2.5221,2.5922,2.7139,2.7139,2.644,2.542,2.521,2.4345,2.3245,0.0,0.1822,0.18,0.18,0.18,0.1808,0.1838,0.1844,0.2065,0.2689,0.2904,0.3224,0.3802,0.4259,0.4767,0.5382,0.6628,0.0,0.7448,0.8274,0.8771,0.8798,0.8798,0.8911,0.9151,0.9472,0.978,1.0059,1.0383,1.0559,1.0601,1.0601,1.0648,1.0728,1.0728,1.1179,1.1927,1.1927,1.2351,1.3001,1.3001,1.2969,1.2801,1.1549,1.123,1.1283,1.0193,0.9801,0.9697,0.9028,0.8798,0.8791,0.8771,0.8751,0.8697,0.8389,0.0,0.8288,0.8255,0.8417,0.8658,0.8891,0.9231,0.97,0.0,0.0,1.0932,1.1529,1.1676,1.189,1.2532,1.2673,1.2884,1.3417,1.356,1.408,1.5462,1.6597,1.7352,1.7484,1.9333,2.0762,2.1161,2.1572,2.2012,2.247,2.2829,2.3053,2.3091,2.3091,2.3091,2.3091,2.3091,2.3091,2.3091,2.3091,2.3091,2.3091,2.3091,2.3091,2.3124,2.4146,2.4135,2.3278,2.3157,2.4861,2.7663,2.6697,2.7535,2.9427,2.9427,2.873,2.7622,2.6656,2.6201,2.5908,0.0,0.18,0.18,0.18,0.18,0.18,0.18,0.18,0.192,0.2247,0.2338,0.2549,0.2997,0.3261,0.3707,0.4445,0.5705,0.6537,0.6729,0.8036,0.8798,0.8798,0.8798,0.8924,0.919,0.9525,0.9834,1.0098,1.0438,1.0601,1.0601,1.0601,1.0601,1.0601,1.0601,1.0791,1.11,1.11,1.1303,1.16,1.16,1.16,1.1503,1.0557,1.0272,1.0267,0.9499,0.9218,0.0,0.0,0.8798,0.8798,0.8798,0.8798,0.8778,0.8664,0.8744,0.0,0.9105,0.9352,0.9585,0.0,1.0093,1.0549,1.0917,1.1273,1.1641,1.2056,1.2414,1.2779,1.3193,1.3267,1.3397,0.0,1.3891,1.4098,1.4688,1.569,1.6365,1.6365,1.8321,1.9826,2.0227,2.1263,2.2071,2.247,2.2868,2.3091,2.3091,2.3091,2.3091,2.3091,2.3091,2.3091,2.3091,2.3091,2.3091,2.3091,2.3091,2.3091,2.3113,2.3594,2.3909,2.4082,2.4082,2.5619,2.8014,2.6944,2.7799,2.9801,2.9801,2.9505,2.8947,2.7835,2.7036,2.6431,0.0,0.18,0.18,0.18,0.18,0.18,0.18,0.18,0.1835,0.1933,0.1978,0.2126,0.2463,0.2716,0.3052,0.3512,0.4767,0.5711,0.6116,0.7589,0.8547,0.8791,0.8798,0.8924,0.919,0.9525,0.9834,1.0098,1.0438,1.0601,1.0601,1.0601,1.0601,1.0601,1.0601,1.0601,1.0601,1.0601,1.0601,1.0601,1.0601,1.0546,1.0404,0.9895,0.9647,0.9499,0.8985,0.8798,0.0,0.0,0.8744,0.8784,0.8711,0.8744,0.8818,0.8891,0.9111,0.9391,0.9633,0.9961,0.0,1.0419,1.0907,1.1385,1.1482,1.1888,1.2334,1.2603,1.295,1.331,1.3663,1.366,1.371,1.4052,1.4155,1.4175,1.4105,1.5091,1.5665,1.53,1.7476,1.8985,1.8969,2.0632,2.1934,2.246,2.2771,2.2985,2.3091,2.3091,2.3091,2.3091,2.3091,2.3091,2.3091,2.3091,2.3091,2.3091,2.3091,2.3091,2.3091,2.3091,2.3897,2.5252,2.4935,2.6222,2.8488,2.7392,2.8069,2.9801,2.9801,2.9801,2.9702,2.8878,2.8079,2.7363,0.0,0.0,0.18,0.18,0.18,0.18,0.18,0.18,0.1801,0.1804,0.192,0.2126,0.2463,0.2967,0.3185,0.2949,0.4268,0.5371,0.5963,0.6974,0.7922,0.8758,0.8798,0.8924,0.919,0.9525,0.9834,1.0098,1.0438,1.0601,1.0601,1.0601,1.0601,1.0601,1.0601,1.0601,1.0601,1.0601,1.0601,1.0601,1.0601,1.0411,1.0085,0.9807,0.9499,0.9177,0.8905,0.0,0.0,0.8503,0.8583,0.8758,0.8496,0.859,0.0,0.9118,0.9425,0.9687,0.9694,0.0,1.0705,1.1226,1.1806,1.2347,1.2663,1.2959,1.3243,1.351,1.3373,1.3377,1.3978,1.382,1.371,1.4052,1.4322,1.4398,1.4139,1.5255,1.5606,1.4305,1.7027,1.8569,0.0,1.9718,2.1581,2.2441,2.2509,2.2693,2.3082,2.3091,2.3091,2.3091,2.3091,2.3091,2.3091,2.3091,2.3091,2.3091,2.3091,2.3091,2.3091,2.3091,2.4317,2.6389,2.5284,2.6676,2.9663,2.8527,2.8737,2.9801,2.9801,2.9801,2.9801,2.9763,2.9733,2.9534,0.0,0.0,0.0,0.18,0.18,0.18,0.18,0.18,0.18,0.18,0.1995,0.0,0.0,0.0,0.0,0.0,0.3886,0.4682,0.5113,0.6082,0.6809,0.7189,0.7293,0.7487,0.7797,0.7918,0.811,0.8377,0.8981,0.927,0.9292,0.9953,1.0275,1.0282,1.0506,1.0601,1.0587,1.0355,1.0404,1.0567,1.0156,1.0041,1.0045,0.9551,0.9184,0.8905,0.0,0.0,0.0,0.8435,0.8456,0.855,0.8637,0.0,0.0,0.9392,0.9613,0.986,1.062,0.0,1.1605,1.2185,1.2615,1.2933,1.3043,1.327,1.3437,1.3343,1.3397,1.347,1.3497,1.3417,1.3433,1.372,1.4031,1.4202,1.4112,1.4832,1.5053,1.4195,1.6524,0.0,0.0,0.0,0.0,2.206,2.2353,2.2685,2.3082,2.3091,2.3091,2.3091,2.3091,2.3091,2.3091,2.3091,2.3091,2.3091,2.3091,2.3091,2.3091,2.3091,2.393,2.5305,2.4167,2.5567,2.8587,2.7493,2.8119,2.9801,2.9801,2.9801,2.9801,2.9801,2.9801,2.9753,0.0,0.0,0.0,0.0,0.0,0.0,0.0,0.0,0.0,0.0,0.0,0.0,0.0,0.0,0.0,0.0,0.0,0.0,0.4488,0.5239,0.5839,0.624,0.6386,0.6557,0.6773,0.6877,0.7027,0.7249,0.7851,0.816,0.822,0.8872,0.9311,0.9571,0.9788,1.0033,1.0257,1.0048,1.0081,1.0244,0.9862,0.9733,0.9731,0.9237,0.8891,0.0,0.0,0.0,0.8074,0.8074,0.8227,0.8409,0.8464,0.0,0.9199,0.9587,0.9921,1.0369,1.1323,1.1813,1.2209,1.2912,1.3213,1.3373,1.349,1.3557,1.352,1.3263,1.3177,1.3077,1.291,1.2799,1.289,1.3377,1.3817,1.4132,1.4229,1.4685,1.4856,1.4464,1.6059,1.7325,0.0,0.0,0.0,2.1845,2.2275,2.2685,2.3082,2.3091,2.3091,2.3091,2.3091,2.3091,2.3091,2.3091,2.3091,2.3091,2.3091,2.3091,2.3091,2.3091,2.3725,2.4755,2.4027,2.5157,2.7491,2.7199,2.7907,2.9226,2.9643,2.9801,2.9801,2.9801,2.9801,2.9801,0.0,0.0,0.0,0.0,0.0,0.0,0.0,0.0,0.0,0.0,0.0,0.0,0.0,0.0,0.0,0.0,0.0,0.0,0.0,0.0,0.0,0.5844,0.6006,0.6082,0.6086,0.6336,0.6529,0.6657,0.701,0.7255,0.7387,0.7441,0.7843,0.8526,0.8575,0.8989,0.9643,0.963,0.963,0.963,0.959,0.9389,0.9089,0.8845,0.0,0.0,0.0,0.0,0.0,0.0,0.0,0.0,0.0,0.0,0.0,0.9774,1.0382,1.1177,1.1803,1.216,1.2569,1.3407,1.3626,1.3703,1.4012,1.3814,1.3493,1.3197,1.2656,1.2245,0.0,0.0,1.2156,1.301,1.3691,1.4188,1.4461,1.4814,1.503,0.0,0.0,0.0,0.0,0.0,0.0,2.1842,0.0,2.2685,2.3082,2.3091,2.3091,2.3091,2.3091,2.3091,2.3091,2.3091,2.3091,2.3091,2.3091,2.3091,2.3091,2.3091,2.3692,2.4713,2.4713,2.5389,2.6575,2.7604,2.8074,2.8285,2.9375,2.9801,2.9801,2.9801,2.9801,2.9801,0.0,0.0,0.0,0.0,0.0,0.0,0.0,0.0,0.0,0.0,0.0,0.0,0.0,0.0,0.0,0.0,0.0,0.0,0.0,0.0,0.0,0.0,0.434,0.4458,0.4559,0.4631,0.468,0.4716,0.5348,0.5731,0.5876,0.6632,0.7161,0.7512,0.8266,0.8705,0.8861,0.8665,0.8643,0.8684,0.0,0.7921,0.7946,0.0,0.0,0.0,0.0,0.0,0.0,0.0,0.0,0.0,0.0,0.9593,1.0126,0.0,0.0,1.185,1.2655,1.306,1.3377,1.3851,1.3975,1.3924,1.3757,1.3507,1.3096,1.2383,1.1911,1.1508,0.0,0.0,0.0,1.2416,1.3407,0.0,1.4461,1.5132,0.0,1.5051,0.0,1.7201,1.8291,1.9685,0.0,0.0,2.2441,2.2685,2.3082,2.3091,2.3091,2.3091,2.3091,2.3091,2.3091,2.3091,2.3091,2.3091,2.3091,2.3091,2.3091,2.3091,2.3266,2.3529,2.3529,2.4659,2.6513,2.6801,2.7889,2.9395,2.9682,2.9801,2.9801,2.9801,2.9801,2.9801,0.0,0.0,0.0,0.0,0.0,0.0,0.0,0.0,0.0,0.0,0.0,0.0,0.0,0.0,0.0,0.0,0.0,0.0,0.0,0.0,0.0,0.3285,0.3481,0.3613,0.3689,0.378,0.385,0.3915,0.0,0.0,0.4742,0.5304,0.5801,0.6248,0.6812,0.7243,0.7551,0.7665,0.0,0.0,0.0,0.0,0.0,0.0,0.0,0.0,0.0,0.0,0.0,0.0,0.0,0.9277,0.9732,1.024,1.0799,1.1428,0.0,1.2601,1.3207,1.3594,1.386,1.4048,1.3988,1.3771,1.3347,1.2926,1.2381,1.1509,1.1056,0.0,1.0284,1.0671,0.0,0.0,0.0,0.0,1.4431,1.5046,1.5424,0.0,1.5913,0.0,1.8706,1.9667,2.0671,0.0,2.2461,2.2858,2.3092,2.3091,2.3091,2.3091,2.3091,2.3091,2.3091,2.3091,2.3091,2.3091,2.3091,2.3091,2.3091,2.3091,2.3091,2.3091,2.3091,2.4103,2.5787,2.6286,2.7515,2.9096,2.9605,2.9801,2.9801,2.9801,2.9801,2.9801,0.0,0.0,0.0,0.0,0.0,0.0,0.0,0.0,0.0,0.0,0.0,0.0,0.0,0.0,0.0,0.0,0.0,0.0,0.0,0.0,0.0,0.2874,0.312,0.3285,0.3339,0.3511,0.3657,0.0,0.0,0.0,0.0,0.0,0.0,0.0,0.0,0.0,0.0,0.0,0.0,0.0,0.0,0.0,0.0,0.0,0.0,0.0,0.0,0.0,0.0,0.0,0.9324,0.9491,1.0092,1.0825,1.1548,1.1955,1.2608,1.327,1.3583,1.3884,1.4099,1.4099,1.3824,1.3397,1.2864,1.2241,1.1529,1.066,0.0,0.9898,0.9627,1.0069,1.0685,1.1299,0.0,1.3487,1.4431,1.4848,1.5235,1.5741,1.5593,1.6458,1.9007,1.9405,2.0,2.1203,2.2425,2.3025,2.2873,2.3014,2.3091,2.3091,2.3091,2.3091,2.3091,2.3091,2.3091,2.3091,2.3091,2.3091,2.3091,2.3091,2.3091,2.3091,2.3091,2.3833,2.5105,2.6099,2.7219,2.8416,2.9404,2.9801,2.9801,2.9801,2.9801,2.9801,0.0,0.0,0.0,0.0,0.0,0.0,0.0,0.0,0.0,0.0,0.1418,0.1515,0.0,0.0,0.0,0.0,0.0,0.0,0.0,0.0,0.0,0.0,0.2941,0.3205,0.3544,0.0,0.0,0.0,0.0,0.0,0.0,0.0,0.0,0.0,0.0,0.0,0.0,0.0,0.0,0.0,0.0,0.0,0.0,0.0,0.0,0.0,0.0,0.0,0.0,0.0,0.9948,1.045,1.0999,1.147,1.1969,1.2746,1.3076,1.3317,1.3872,1.4059,1.4099,1.4099,1.3687,1.3107,1.2518,1.1746,0.0,0.0,0.9585,0.9277,0.9005,0.9446,1.0195,1.1224,1.2229,1.3347,1.4718,1.5148,1.5444,0.0,1.5761,1.6324,1.7863,1.891,0.0,0.0,2.2425,2.2666,2.1678,2.2558,2.3091,2.3091,2.3091,2.3091,2.3091,2.3091,2.3091,2.3091,2.3091,2.3091,2.3091,2.3091,2.3091,2.3091,2.3091,2.4274,2.6224,2.642,2.7688,2.9524,2.9711,2.9801,2.9801,2.9801,2.9801,2.9801,0.0,0.0,0.0,0.0,0.0,0.0,0.0,0.1086,0.1117,0.1719,0.155,0.1349,0.1302,0.1293,0.0,0.0,0.0,0.0,0.0,0.0,0.0,0.0,0.0,0.2205,0.0,0.0,0.0,0.0,0.0,0.0,0.0,0.0,0.0,0.0,0.0,0.0,0.0,0.0,0.0,0.0,0.0,0.0,0.0,0.0,0.0,0.0,0.0,0.0,0.0,0.0,0.9612,1.0454,1.1179,1.1737,1.2254,1.2993,1.33,1.3507,1.3968,1.4099,1.4059,1.3884,1.3407,1.2751,1.1824,0.0,0.0,0.0,0.9105,0.8951,0.8824,0.9299,0.0,1.0612,1.1356,1.2379,1.3862,1.4291,0.0,1.5499,1.5715,1.6303,0.0,1.8795,1.9739,2.0316,2.2063,2.2851,2.2273,2.2796,2.3091,2.3091,2.3091,2.3091,2.3091,2.3091,2.3091,2.3091,2.3091,2.3091,2.3091,2.3091,2.3091,2.3091,2.3091,2.406,2.5661,2.6255,2.7454,2.8966,2.9563,2.9801,2.9801,2.9801,2.9801,2.9801,0.0,0.0,0.0,0.0,0.0,0.0,0.0,0.0873,0.0876,0.1353,0.1417,0.1199,0.0638,0.0234,0.0276,0.0,0.0,0.0,0.0,0.0,0.0,0.0,0.0,0.0,0.0,0.0,0.0,0.0,0.0,0.0,0.0,0.0,0.0,0.0,0.0,0.0,0.0,0.0,0.0,0.0,0.0,0.0,0.0,0.0,0.0,0.0,0.0,0.0,0.0,0.0,0.8886,0.98,1.0811,1.1541,1.2144,1.2736,1.3163,1.3507,1.3895,1.4052,1.4015,1.3673,1.314,1.2402,1.1259,1.0488,0.0,0.0,0.8798,0.8798,0.8798,0.0,0.964,0.0,1.0561,1.1452,1.2983,1.3494,1.4134,0.0,1.564,0.0,1.7201,1.8634,0.0,1.9131,2.1344,2.2829,2.309,2.3091,2.3091,2.3091,2.3091,2.3091,2.3091,2.3091,2.3091,2.3091,2.3091,2.3091,2.3091,2.3091,2.3091,2.3091,2.3091,2.3746,2.4872,2.5766,2.6779,2.7876,2.8998,2.9446,2.9475,2.9702,2.9801,2.9801,0.0,0.0,0.0,0.0,0.0,0.0,0.0,0.0786,0.0101,0.0159,0.0165,0.0748,0.2287,0.0985,0.0031,0.0,0.0,0.0,0.0,0.0,0.0,0.0,0.0,0.0,0.0,0.0,0.0,0.0,0.0,0.0,0.0,0.0,0.0,0.0,0.0,0.0,0.0,0.0,0.0,0.0,0.0,0.0,0.0,0.0,0.0,0.0,0.0,0.0,0.0,0.0,0.0,0.8349,0.9774,1.0633,1.1238,1.1841,0.0,0.0,1.3507,1.3871,1.4015,1.3673,1.2967,1.2104,1.1211,0.0,0.0,0.8931,0.8798,0.8798,0.8798,0.8844,0.9152,0.9965,0.0,1.1243,1.2966,1.3694,1.4393,1.5284,0.0,0.0,1.5955,1.8107,1.9047,1.7952,2.0102,2.1933,2.3036,2.3091,2.3091,2.3091,2.3091,2.3091,2.3091,2.3091,2.3091,2.3091,2.3091,2.3091,2.3091,2.3091,2.3091,2.3091,2.3091,2.3746,2.4808,2.4914,2.5619,2.6749,2.7835,2.8255,2.8377,2.9427,2.9801,2.9801,0.0,0.0,0.0,0.0,0.0,0.0,0.1742,0.0775,0.0,0.0,0.0,0.0273,0.0996,0.043,0.0,0.0,0.0,0.0,0.0,0.0,0.0,0.0,0.0,0.0,0.0,0.0,0.0,0.0,0.0,0.0,0.0,0.0,0.0,0.0,0.0,0.0,0.0,0.0,0.0,0.0,0.0,0.0,0.0,0.0,0.0,0.0,0.0,0.0,0.0,0.0,0.0,0.0,0.7659,0.8455,0.0,0.0,1.1908,1.2382,1.2959,1.3327,1.3487,1.319,1.2575,1.1828,1.096,0.0,0.9533,0.8918,0.8798,0.8798,0.8798,0.8798,0.8965,0.9477,0.9532,1.0068,1.165,1.2222,1.3003,1.4453,1.5035,0.0,0.0,0.0,1.9591,1.9852,2.0767,2.1513,2.1998,2.272,2.3091,2.3091,2.3091,2.3091,2.3091,2.3091,2.3091,2.3091,2.3091,2.3091,2.3091,2.3091,2.3091,2.3091,2.3091,2.3354,2.3823,2.4521,2.5073,2.5588,2.6697,2.7522,2.8144,2.8607,2.9216,2.9801,0.0,0.0,0.0,0.0,0.0,0.0985,0.1231,0.0545,0.0,0.0,0.0,0.0,0.0,0.0,0.0,0.0,0.0,0.0,0.0,0.0,0.0,0.0,0.0,0.0,0.0,0.0,0.0,0.0,0.0,0.0,0.0,0.0,0.0,0.0,0.0,0.0,0.0,0.0,0.0,0.0,0.0,0.0,0.0,0.0,0.0,0.0,0.0,0.0,0.0,0.0,0.0,0.0,0.0,0.0,0.0,0.0,1.1076,1.1772,1.2371,1.2801,1.3009,1.2721,1.2205,1.1527,0.0,0.9981,0.9412,0.8905,0.8798,0.8798,0.8798,0.8798,0.8865,0.9051,0.8991,0.9405,1.0802,1.1323,1.2151,0.0,0.0,1.5448,0.0,1.8367,1.9614,2.1181,2.0969,2.0924,2.1282,2.2448,2.3091,2.3091,2.3091,2.3091,2.3091,2.3091,2.3091,2.3091,2.3091,2.3091,2.3091,2.3091,2.3091,2.3091,2.3091,2.3091,2.3157,2.3963,2.4307,2.4404,2.5546,2.6656,2.7674,2.7974,2.8816,2.9801,0.0,0.0,0.0,0.0,0.0,0.0,0.0109,0.0007,0.0,0.0,0.0,0.0,0.0,0.0,0.0,0.0,0.0,0.0,0.0,0.0,0.0,0.0,0.0,0.0,0.0,0.0,0.0,0.0,0.0,0.0,0.0,0.0,0.0,0.0,0.0,0.0,0.0,0.0,0.0,0.0,0.0,0.0,0.0,0.0,0.0,0.0,0.0,0.0,0.0,0.0,0.0,0.0,0.0,0.0,0.0,0.0,0.9759,1.1137,1.1743,1.2351,1.2717,1.2387,1.1846,1.1186,1.0298,0.9637,0.9124,0.8858,0.8798,0.8798,0.8798,0.8798,0.8798,0.8804,0.9024,0.9617,1.0828,1.1522,1.2314,0.0,0.0,1.4822,1.6634,1.7364,1.8714,2.1125,2.0192,2.0045,2.1237,2.2448,2.3091,2.3091,2.3091,2.3091,2.3091,2.3091,2.3091,2.3091,2.3091,2.3091,2.3091,2.3091,2.3091,2.3091,2.3091,2.3091,2.3091,2.3113,2.3113,2.3233,2.4372,2.5504,2.6647,2.7703,2.8816,2.9801,0.0,0.0,0.0,0.0,0.0,0.0,0.0,0.0,0.0,0.0,0.0,0.0,0.0,0.0,0.0,0.0,0.0,0.0,0.0,0.0,0.0,0.0,0.0,0.0,0.0,0.0,0.0,0.0,0.0,0.0,0.0,0.0,0.0,0.0,0.0,0.0,0.0,0.0,0.0,0.0,0.0,0.0,0.0,0.0,0.0,0.0,0.0,0.0,0.0,0.0,0.0,0.0,0.0,0.0,0.0,0.0,0.0,0.0,1.0292,1.0605,1.0642,1.1044,1.0815,1.0392,0.9927,0.9505,0.9124,0.8858,0.8798,0.8798,0.8798,0.8798,0.8931,0.9346,0.9486,0.988,1.0863,0.0,0.0,1.346,1.6083,1.834,0.0,0.0,1.9588,2.1181,2.0181,2.0034,2.1237,2.2448,2.3091,2.3091,2.3091,2.3091,2.3091,2.3091,2.3091,2.3091,2.3091,2.3091,2.3091,2.3091,2.3091,2.3091,2.3091,2.3091,2.3091,2.3091,2.3091,2.3135,2.3496,2.4328,2.5473,2.6594,2.7695,2.8747,0.0,0.0,0.0,0.0,0.0,0.0,0.0,0.0,0.0,0.0,0.0,0.0,0.0,0.0,0.0,0.0,0.0,0.0,0.0,0.0,0.0,0.0,0.0,0.0,0.0,0.0,0.0,0.0,0.0,0.0,0.0,0.0,0.0,0.0,0.0,0.0,0.0,0.0,0.0,0.0,0.0,0.0,0.0,0.0,0.0,0.0,0.0,0.0,0.0,0.0,0.0,0.0,0.0,0.0,0.0,0.0,0.5637,0.6668,0.0,0.9627,0.9836,1.0294,1.0181,0.9872,0.9579,0.9271,0.8998,0.8838,0.8798,0.8798,0.8798,0.8798,0.8918,0.9299,0.9446,0.9826,0.0,0.0,0.0,1.364,0.0,0.0,0.0,2.022,2.0677,2.1889,2.0856,2.0711,2.1911,2.2688,2.3091,2.3091,2.3091,2.3091,2.3091,2.3091,2.3091,2.3091,2.3091,2.3091,2.3091,2.3091,2.3091,2.3091,2.3091,2.3091,0.0,2.3091,2.3091,2.3091,2.3091,2.38,2.4935,2.6079,2.7189,2.8255,0.0,0.0,0.0,0.0,0.0,0.0,0.0,0.0,0.0,0.0,0.0,0.0,0.0,0.0,0.0,0.0,0.0,0.0,0.0,0.0,0.0,0.0,0.0,0.0,0.0,0.0,0.0,0.0,0.0,0.0,0.0,0.0,0.0,0.0,0.0,0.0,0.0,0.0,0.0,0.0,0.0,0.0,0.0,0.0,0.0,0.0,0.0,0.0,0.0,0.0,0.0,0.0,0.0,0.0,0.0,0.0,0.0,0.0,0.0,0.9078,0.0,0.9903,0.9777,0.9553,0.9244,0.8984,0.0,0.8798,0.8798,0.8804,0.8824,0.8818,0.8824,0.8885,0.9124,0.0,0.0,1.1455,0.0,0.0,1.688,0.0,1.8781,2.0311,2.18,2.3014,2.1987,2.1823,2.3036,2.3091,2.3091,2.3091,2.3091,2.3091,2.3091,2.3091,2.3091,2.3091,2.3091,2.3091,2.3091,2.3091,2.3091,2.3091,2.3091,2.3091,2.3091,2.3091,2.3091,2.3091,2.3091,2.38,2.4935,2.6079,2.7189,2.8255,0.0,0.0,0.0,0.0,0.0,0.0,0.0,0.0,0.0,0.0,0.0,0.0,0.0,0.0,0.0,0.0,0.0,0.0,0.0,0.0,0.0,0.0,0.0,0.0,0.0,0.0,0.0,0.0,0.0,0.0,0.0,0.0,0.0,0.0,0.0,0.0,0.0,0.0,0.0,0.0,0.0,0.0,0.0,0.0,0.0,0.0,0.0,0.3374,0.0,0.0,0.0,0.0,0.0,0.0,0.0,0.0,0.4355,0.4873,0.5698,0.0,0.7408,0.7966,0.8564,0.8991,0.0,0.8844,0.8798,0.8798,0.0,0.0,0.9071,0.8938,0.9018,0.9685,0.0,1.049,1.1121,0.0,0.0,1.5965,1.8011,1.9648,2.0583,2.1051,2.18,2.3014,2.1987,2.1823,2.3036,2.3091,2.3091,2.3091,2.3091,2.3091,2.3091,2.3091,2.3091,2.3091,2.3091,2.3091,2.3091,2.3091,2.3091,2.3091,2.3091,2.3091,2.3091,2.3091,2.3091,2.3091,2.3091,2.38,2.4935,2.6079,2.7189,2.8255,0.0,0.0,0.0,0.0,0.0,0.0,0.0,0.0,0.0,0.0,0.0,0.0,0.0,0.0,0.0,0.0,0.0,0.0,0.0,0.0,0.0,0.0,0.0,0.0,0.0,0.0,0.0,0.0,0.0,0.0,0.0,0.0,0.0,0.0,0.0,0.0,0.0,0.0,0.0,0.0,0.0,0.0,0.0,0.0,0.0,0.0,0.3182,0.3269,0.0,0.3435,0.352,0.3604,0.0,0.0,0.0,0.0,0.3992,0.4321,0.4396,0.5632,0.7006,0.7399,0.8152,0.8798,0.8798,0.0,0.0,0.0,0.0,0.0,0.0,0.0,0.0,0.0,1.0304,0.0,0.0,0.0,1.4959,1.6762,1.8475,1.9977,0.0,2.18,2.2403,2.3047,2.2492,2.2414,2.3079,2.3091,2.3091,2.3091,2.3091,2.3091,2.3091,2.3091,2.3091,2.3091,2.3091,2.3091,2.3091,2.3091,2.3091,2.3091,2.3091,2.3091,2.3091,2.3091,2.3091,2.3091,2.3091,2.3475,2.4211,2.5891,2.6872,2.7604,0.0,0.0,0.0,0.0,0.0,0.0,0.0,0.0,0.0,0.0,0.0,0.0,0.0,0.0,0.0,0.0,0.0,0.0,0.0,0.0,0.0,0.0,0.0,0.0,0.0,0.0,0.0,0.0,0.0,0.0,0.0,0.0,0.0,0.0,0.0,0.0,0.0,0.0,0.0,0.0,0.0,0.0,0.0,0.0,0.0,0.0,0.0,0.0,0.0,0.3318,0.342,0.3559,0.3588,0.0,0.0,0.0,0.0,0.0,0.3622,0.5426,0.7302,0.7302,0.7972,0.8659,0.8771,0.0,0.0,0.0,0.0,0.0,0.0,0.9118,0.0,0.0,0.0,0.0,1.303,1.3974,1.5154,1.6933,1.8544,0.0,2.1181,2.2383,2.3091,2.3091,2.3091,2.3091,2.3091,2.3091,2.3091,2.3091,2.3091,2.3091,2.3091,2.3091,2.3091,2.3091,2.3091,2.3091,2.3091,2.3091,2.3091,2.3091,2.3091,2.3091,2.3091,2.3091,2.3091,2.3091,2.3091,2.3211,2.3594,2.5526,2.6451,2.7036,0.0,0.0,0.0,0.0,0.0,0.0,0.0,0.0,0.0,0.0,0.0,0.0,0.0,0.0,0.0,0.0,0.0,0.0,0.0,0.0,0.0,0.0,0.0,0.0,0.0,0.0,0.0,0.0,0.0,0.0,0.0,0.0,0.0,0.0,0.0,0.0,0.0,0.0,0.0,0.0,0.0,0.0,0.0,0.0,0.0,0.0,0.0,0.0,0.0,0.3291,0.3364,0.3377,0.3543,0.0,0.0,0.0,0.0,0.0,0.3739,0.5057,0.64,0.64,0.7142,0.8036,0.8659,0.0,0.0,0.0,0.0,0.0,0.0,0.9593,0.9808,0.0,0.0,1.2136,0.0,0.0,1.5089,1.6672,0.0,1.9977,2.1181,2.2383,2.3091,2.3091,2.3091,2.3091,2.3091,2.3091,2.3091,2.3091,2.3091,2.3091,2.3091,2.3091,2.3091,2.3091,2.3091,2.3091,2.3091,2.3091,2.3091,2.3091,2.3091,2.3091,2.3091,2.3091,2.3091,2.3091,2.3091,2.3692,2.4585,2.4925,2.6242,2.8036,0.0,0.0,0.0,0.0,0.0,0.0,0.0,0.0,0.0,0.0,0.0,0.0,0.0,0.0,0.0,0.0,0.0,0.0,0.0,0.0,0.0,0.0,0.0,0.0,0.0,0.0,0.0,0.0,0.0,0.0,0.0,0.0,0.0,0.0,0.0,0.0,0.0,0.0,0.0,0.0,0.0,0.0,0.0,0.0,0.0,0.0,0.0,0.0,0.0,0.0,0.3209,0.3314,0.3411,0.0,0.0,0.0,0.0,0.0,0.3676,0.4337,0.5201,0.6001,0.7365,0.8604,0.8936,0.0,0.0,0.0,0.0,0.0,0.0,0.0,1.0478,1.1373,0.0,1.3,1.3527,1.4117,1.5234,0.0,0.0,1.9615,2.1453,2.2314,2.2781,2.2781,2.2975,2.3014,2.2791,2.2781,2.2685,2.246,2.245,2.245,2.245,2.2664,2.2878,2.3091,2.3091,2.3091,2.3091,2.3091,2.3091,2.3091,2.3091,2.3091,2.3091,2.3091,2.3091,2.3091,2.3091,2.342,2.4027,2.5252,2.6727,2.8255,0.0,0.0,0.0,0.0,0.0,0.0,0.0,0.0,0.0,0.0,0.0,0.0,0.0,0.0,0.0,0.0,0.0,0.0,0.0,0.0,0.0,0.0,0.0,0.0,0.0,0.0,0.0,0.0,0.0,0.0,0.0,0.0,0.0,0.0,0.0,0.0,0.0,0.0,0.0,0.0,0.0,0.0,0.0,0.0,0.0,0.0,0.0,0.0,0.0,0.0,0.0,0.0,0.0,0.0,0.0,0.3604,0.3604,0.361,0.3639,0.3949,0.4534,0.5699,0.0,0.8724,0.9207,0.0,0.0,0.0,0.0,0.0,0.0,1.0551,0.0,1.2345,1.3123,1.3626,1.3703,1.4174,1.5372,1.7719,1.8243,1.9324,2.1668,2.2178,2.2363,2.2363,2.2645,2.2684,2.2383,2.2363,2.2217,2.1905,2.1895,2.1895,2.1895,2.2207,2.2508,2.2819,2.3014,2.3053,2.2956,2.2956,2.3014,2.3091,2.3004,2.3014,2.3091,2.3091,2.3091,2.3091,2.3091,2.3091,2.3343,2.5358,2.6625,2.7532,0.0,0.0,0.0,0.0,0.0,0.0,0.0,0.0,0.0,0.0,0.0,0.0,0.0,0.0,0.0,0.0,0.0,0.0,0.0,0.0,0.0,0.0,0.0,0.0,0.0,0.0,0.0,0.0,0.0,0.0,0.0,0.0,0.0,0.0,0.0,0.0,0.0,0.0,0.0,0.0,0.0,0.0,0.0,0.0,0.0,0.0,0.0,0.0,0.0,0.0,0.0,0.0,0.0,0.0,0.3604,0.3604,0.3604,0.3625,0.3752,0.4394,0.5072,0.5308,0.6079,0.0,0.9226,0.9681,0.0,1.0419,0.0,0.0,0.0,1.1597,1.2392,1.303,1.3397,1.371,1.4015,0.0,1.5372,1.7719,1.8243,1.9324,2.1668,2.1924,2.1944,2.1944,2.1973,2.1973,2.1944,2.1944,2.1924,2.1895,2.1895,2.1895,2.1895,2.1924,2.1963,2.1993,2.2731,2.2897,2.2537,2.2537,2.2752,2.3082,2.2713,2.2762,2.3091,2.3091,2.3091,2.3091,2.3091,2.3091,2.3255,2.4468,2.4978,2.5347,0.0,0.0,0.0,0.0,0.0,0.0,0.0,0.0,0.0,0.0,0.0,0.0,0.0,0.0,0.0,0.0,0.0,0.0,0.0,0.0,0.0,0.0,0.0,0.0,0.0,0.0,0.0,0.0,0.0,0.0,0.0,0.0,0.0,0.0,0.0,0.0,0.0,0.0,0.0,0.0,0.0,0.0,0.0,0.0,0.0,0.0,0.0,0.0,0.0,0.0,0.2958,0.3108,0.3149,0.3365,0.3578,0.3447,0.3501,0.3608,0.3663,0.4494,0.5318,0.5205,0.6523,0.0,0.0,0.9784,1.0479,1.1249,1.1246,0.0,0.0,0.0,1.2505,1.3103,1.3423,1.3717,1.4048,1.4192,1.5078,1.7302,1.7654,1.8603,2.0875,2.1318,2.1464,2.1464,2.1748,2.1768,2.1474,2.1464,2.1357,2.1094,2.1094,2.1094,2.1094,2.1348,2.1338,2.1094,2.1943,2.2265,2.2129,2.2129,2.2207,2.2353,2.2197,2.2207,2.2372,2.2625,2.2576,2.2372,2.2625,2.2878,2.3244,2.4382,2.4798,2.5115,0.0,0.0,0.0,0.0,0.0,0.0,0.0,0.0,0.0,0.0,0.0,0.0,0.0,0.0,0.0,0.0,0.0,0.0,0.0,0.0,0.0254,0.0829,0.0,0.0583,0.0014,0.0,0.0,0.0,0.0765,0.1037,0.0849,0.0,0.0,0.0,0.0,0.0,0.0,0.0,0.0,0.0,0.0,0.0,0.0,0.0,0.0,0.0,0.0,0.0,0.0,0.0,0.2886,0.3034,0.303,0.3244,0.3481,0.334,0.3474,0.3703,0.3899,0.4504,0.5177,0.0,0.0,0.0,0.9105,1.0028,1.1,1.198,1.2002,0.0,0.0,0.0,0.0,0.0,1.3514,1.3844,1.4065,1.4099,1.4908,1.7048,1.7302,1.8171,2.0391,2.085,2.1015,2.1015,2.1309,2.1348,2.1035,2.1015,2.0879,2.0605,2.0605,2.0605,2.0605,2.0869,2.0869,2.0615,2.1202,2.1553,2.168,2.168,2.1758,2.1885,2.1738,2.1758,2.1915,2.2197,2.2148,2.1924,2.2207,2.248,2.2829,2.3741,2.407,2.4366,0.0,0.0,0.0,0.0,0.0,0.0,0.0,0.0,0.0,0.0,0.0,0.0,0.0,0.0,0.0,0.0,0.0,0.0,0.0,0.0009,0.0,0.0,0.0,0.186,0.0064,0.0015,0.0016,0.0028,0.2402,0.3269,0.2691,0.2094,0.0,0.0,0.0,0.0,0.0,0.0,0.0,0.0,0.0,0.0,0.0,0.0,0.0,0.0,0.0,0.0,0.0,0.0,0.2898,0.2947,0.3209,0.3301,0.3304,0.3298,0.3532,0.3932,0.4526,0.4462,0.0,0.0,0.0,0.0,0.9474,1.0464,1.134,1.2552,0.0,1.281,1.28,1.3026,0.0,1.3203,1.3718,1.4103,1.4099,1.4099,1.4908,1.7048,1.7302,1.8171,2.0391,2.0605,2.0605,2.0605,2.0605,2.0605,2.0605,2.0605,2.0605,2.0605,2.0605,2.0605,2.0605,2.0605,2.0605,2.0605,2.0605,2.0811,2.119,2.119,2.1445,2.1856,2.1396,2.1464,2.1885,2.1885,2.1885,2.1895,2.1905,2.1905,2.1944,2.2353,2.2499,2.2708,0.0,0.0,0.0,0.0,0.0,0.0,0.0,0.0,0.0,0.0,0.0,0.0,0.0,0.0,0.0,0.0,0.0,0.0,0.0,0.0,0.0,0.0,0.0,0.0,0.0,0.0,0.1236,0.19,0.1342,0.1722,0.0,0.0,0.0,0.2707,0.0,0.0,0.0,0.0,0.0,0.0,0.0,0.0,0.0,0.0,0.0,0.0,0.0,0.0,0.0,0.0,0.0,0.0,0.2886,0.3171,0.3444,0.3119,0.339,0.3816,0.3906,0.4885,0.0,0.0,0.0,0.0,0.0,1.0464,0.0,0.0,1.3106,1.331,1.3123,1.3153,0.0,1.345,1.363,1.3827,1.4065,1.4099,1.4908,1.7048,1.7302,1.8171,2.0391,2.0605,2.0605,2.0605,2.0605,2.0605,2.0605,2.0605,2.0605,2.0605,2.0605,2.0605,2.0605,2.0605,2.0605,2.0605,2.0605,2.0664,2.0771,2.0771,2.085,2.0977,2.084,2.0859,2.0987,2.0987,2.1358,2.1866,2.1543,2.1611,2.1915,2.2031,2.2081,2.2257,0.0,0.0,0.0,0.0,0.0,0.0,0.0,0.0,0.0,0.0,0.0,0.0,0.0,0.0,0.0,0.0,0.0,0.0,0.0,0.0,0.0,0.0,0.0,0.0,0.0,0.2145,0.2132,0.0,0.0,0.0,0.0,0.0,0.0,0.3101,0.0,0.3024,0.0,0.0,0.0,0.0,0.0,0.2698,0.2671,0.0,0.0,0.0,0.0,0.0,0.0,0.0,0.0,0.0,0.279,0.0,0.3344,0.3461,0.3848,0.4361,0.4918,0.0,0.0,0.0,0.0,1.0263,1.0611,0.0,0.0,0.0,0.0,1.3423,1.3373,1.3367,0.0,1.3573,1.371,1.3871,1.4072,1.4099,1.4908,1.7048,1.7302,1.8171,2.0391,2.0605,2.0605,2.0605,2.0605,2.0605,2.0605,2.0605,2.0605,2.0605,2.0605,2.0605,2.0605,2.0605,2.0605,2.0605,2.0605,2.0605,2.0605,2.0605,2.0605,2.0605,2.0605,2.0605,2.0605,2.0605,2.0908,2.1358,2.1074,2.1123,2.1407,2.1562,2.1611,2.1742,0.0,0.0,0.0,0.0,0.0,0.0,0.0,0.0,0.0,0.0,0.0,0.0,0.0,0.0,0.0,0.0,0.0,0.0,0.0,0.0,0.0,0.2366,0.2409,0.2514,0.0,0.0,0.0,0.0,0.0,0.0,0.0,0.0,0.3224,0.3087,0.0,0.3212,0.0,0.0,0.0,0.0,0.268,0.2667,0.2555,0.201,0.0,0.0,0.0,0.0,0.0,0.0,0.0,0.0,0.2846,0.2898,0.3097,0.4,0.4565,0.522,0.6688,0.0,0.0,0.0,0.0,0.0,1.1587,1.2362,1.2831,1.3116,0.0,1.3267,1.3513,1.3586,1.36,1.36,1.3884,1.4099,1.4099,1.4099,1.4908,1.7048,1.7302,1.8171,2.0391,2.0605,2.0605,2.0605,2.0605,2.0605,2.0605,2.0605,2.0605,2.0605,2.0605,2.0605,2.0605,2.0605,2.0605,2.0605,2.0605,2.0605,2.0605,2.0605,2.0605,2.0605,2.0605,2.0605,2.0605,2.0605,2.0605,2.0605,2.0605,2.0605,2.0644,2.1015,2.1152,2.121,0.0,0.0,0.0,0.0,0.0,0.0,0.0,0.0,0.0,0.0,0.0,0.0,0.0,0.0,0.0,0.0,0.0,0.0,0.0,0.0,0.1931,0.2228,0.2497,0.2656,0.2697,0.2701,0.2701,0.2701,0.0,0.0,0.0,0.0,0.0,0.2952,0.0,0.3099,0.0,0.0,0.0,0.2036,0.2508,0.2417,0.1981,0.1849,0.2096,0.0,0.0,0.0,0.0,0.0,0.0,0.0,0.2733,0.289,0.308,0.3187,0.4017,0.4978,0.5321,0.6551,0.0,0.0,0.992,1.1206,1.2037,1.2305,1.2504,1.2824,1.3049,1.3217,1.3283,1.3457,1.36,1.36,1.3884,1.4099,1.4099,1.4099,1.4908,1.7048,1.7302,1.8171,2.0391,2.0605,2.0605,2.0605,2.0605,2.0605,2.0605,2.0605,2.0605,2.0605,2.0605,2.0605,2.0605,2.0605,2.0605,2.0605,2.0605,2.0605,2.0605,2.0605,2.0605,2.0605,2.0605,2.0605,2.0605,2.0605,2.0605,2.0605,2.0605,2.0605,2.0605,2.0703,2.0732,2.0742,0.0,0.0,0.0,0.0,0.0,0.0,0.0,0.0,0.0,0.0,0.0,0.0,0.0,0.0,0.0,0.0,0.0,0.0,0.0,0.0,0.1923,0.2187,0.2519,0.27,0.27,0.2636,0.2636,0.0,0.0,0.0,0.0,0.0,0.0,0.3095,0.0,0.3138,0.0,0.0,0.0,0.2257,0.2574,0.2454,0.2087,0.2087,0.2285,0.256,0.2593,0.0,0.0,0.0,0.0,0.0,0.0,0.0,0.2991,0.3404,0.406,0.4784,0.0,0.0,0.0,0.9638,0.0,0.0,1.2155,1.2305,1.2345,1.2517,1.2801,1.3043,1.318,1.3313,1.345,1.358,1.3754,1.3928,1.4079,1.4099,1.4908,1.7048,1.7302,1.8171,2.0391,2.0605,2.0605,2.0605,2.0605,2.0605,2.0605,2.0605,2.0605,2.0605,2.0605,2.0605,2.0605,2.0605,2.0605,2.0605,2.0605,2.0605,2.0605,2.0605,2.0605,2.0605,2.0605,2.0605,2.0605,2.0605,2.0605,2.0605,2.0605,2.0605,2.0605,2.0605,2.0605,2.0605,0.0,0.0,0.0,0.0,0.0,0.0,0.0,0.0,0.0,0.0,0.0,0.0,0.0,0.0,0.0,0.0,0.0,0.0,0.0,0.1824,0.1944,0.2187,0.25,0.2667,0.2667,0.2555,0.2552,0.0,0.0,0.0,0.0,0.0,0.0,0.3316,0.0,0.0,0.0,0.0,0.2376,0.265,0.266,0.2544,0.2364,0.2364,0.2364,0.2376,0.2468,0.2573,0.267,0.2693,0.0,0.0,0.0,0.0,0.2869,0.3724,0.4177,0.4617,0.0,0.0,0.8816,1.0768,1.1332,0.0,1.2095,1.2265,1.2305,1.2305,1.2517,1.2774,1.2996,1.3083,1.3197,1.3427,1.3503,1.3623,1.3912,1.3935,1.4728,1.6861,1.7104,1.7972,2.0159,2.038,2.04,2.0468,2.0478,2.0508,2.0595,2.0605,2.0605,2.0605,2.0605,2.0605,2.0605,2.0605,2.0605,2.0605,2.0605,2.0605,2.0605,2.0605,2.0605,2.0605,2.0605,2.0605,2.0605,2.0605,2.0605,2.0605,2.0605,2.0605,2.0605,2.0605,2.0605,2.0605,0.0,0.0,0.0,0.0,0.0,0.0,0.0,0.0,0.0,0.0,0.0,0.18,0.18,0.18,0.0,0.0,0.0,0.0,0.18,0.0,0.0,0.2194,0.2409,0.2529,0.2529,0.2508,0.2508,0.0,0.0,0.0,0.0,0.0,0.0,0.3379,0.0,0.0,0.0,0.0,0.0,0.2446,0.2505,0.2405,0.2227,0.2227,0.2227,0.2251,0.2434,0.2511,0.2546,0.266,0.27,0.0,0.0,0.0,0.2747,0.3002,0.3702,0.4434,0.0,0.0,0.8556,0.0,1.1064,1.1499,0.0,0.0,1.2305,0.0,1.2338,1.2378,1.2412,1.266,1.2867,1.2898,1.3103,1.327,1.331,1.3317,1.4074,1.6108,1.6349,1.7167,1.9278,1.9471,1.9619,1.9961,1.9991,2.0166,2.0576,2.0605,2.0605,2.0605,2.0605,2.0605,2.0605,2.0605,2.0605,2.0605,2.0605,2.0605,2.0605,2.0605,2.0605,2.0605,2.0605,2.0605,2.0605,2.0605,2.0605,2.0605,2.0605,2.0605,2.0605,2.0605,2.0605,2.0605,0.0,0.0,0.0,0.0,0.0,0.0,0.0,0.0,0.0,0.0,0.0,0.18,0.18,0.18,0.0,0.0,0.0,0.0,0.18,0.1926,0.0,0.0,0.0,0.2333,0.2333,0.2259,0.0,0.0,0.0,0.0,0.0,0.3177,0.3327,0.0,0.0,0.0,0.0,0.0,0.0,0.2459,0.2486,0.2492,0.2461,0.2274,0.2361,0.2585,0.252,0.2549,0.0,0.268,0.27,0.27,0.27,0.0,0.0,0.0,0.3152,0.0,0.5166,0.6429,0.789,0.0,1.0787,1.107,1.1516,0.0,1.2076,1.2076,1.22,1.2305,1.2305,1.2421,1.258,1.2766,1.2898,1.3032,1.3177,1.3203,1.3947,1.5962,1.6201,1.7021,1.9104,1.9296,1.9374,1.9551,1.9561,1.9648,1.9862,1.9872,1.9872,1.9872,1.9872,1.9872,1.9872,1.9872,1.998,2.0205,2.0205,2.0351,2.0605,2.0605,2.0605,2.0605,2.0605,2.0605,2.0605,2.0605,2.0605,2.0605,2.0605,2.0605,2.0605,2.0605,2.0605,2.0605,0.0,0.0,0.0,0.0,0.0,0.0,0.0,0.0,0.0,0.0,0.0,0.0,0.18,0.0,0.0,0.0,0.0,0.0,0.18,0.0,0.0,0.0,0.0,0.0,0.215,0.0,0.0,0.0,0.0,0.0,0.3301,0.3253,0.3547,0.0,0.3793,0.0,0.0,0.0,0.0,0.0,0.0,0.0,0.2682,0.2497,0.2644,0.2918,0.2687,0.0,0.0,0.0,0.0,0.0,0.0,0.0,0.0,0.0,0.0,0.0,0.0,0.0,0.6943,0.9318,1.005,1.0368,0.0,0.0,1.1696,0.0,1.1931,1.2104,1.2178,1.2251,1.2378,1.2627,1.267,1.2741,1.2936,1.297,1.3707,1.5712,1.5946,1.6735,1.8776,1.8974,1.9004,1.9102,1.9121,1.917,1.9286,1.9296,1.9296,1.9296,1.9296,1.9296,1.9296,1.9296,1.9443,1.9746,1.9746,1.998,2.042,2.042,2.0488,2.0605,2.0605,2.0605,2.0605,2.0605,2.0605,2.0605,2.0605,2.0605,2.0605,2.0605,2.0605,2.0605,0.0,0.0,0.0,0.0,0.0,0.0,0.0,0.0,0.0,0.0,0.0,0.0,0.0,0.0,0.0,0.0,0.0,0.0,0.0,0.0,0.0,0.0,0.0,0.0,0.0,0.0,0.0,0.0,0.0,0.0,0.3304,0.3485,0.3897,0.4453,0.3997,0.3608,0.3291,0.0,0.0,0.0,0.0,0.0,0.2727,0.2965,0.3071,0.3071,0.0,0.0,0.0,0.0,0.0,0.0,0.0,0.27,0.27,0.0,0.0,0.0,0.0,0.4985,0.0,0.7561,0.0,0.0,0.0,0.0,1.1116,1.1371,1.1437,1.1539,1.1855,1.2127,1.2305,1.2325,1.2334,1.2331,1.2336,1.2351,1.3068,1.5017,1.5256,1.5991,1.7878,1.8068,1.8234,1.8616,1.8637,1.883,1.9286,1.9296,1.9296,1.9296,1.9296,1.9296,1.9296,1.9296,1.9306,1.9325,1.9325,1.9541,1.9942,1.9942,2.0185,2.0605,2.0605,2.0605,2.0605,2.0605,2.0605,2.0605,2.0605,2.0605,2.0605,2.0605,2.0605,2.0605,0.0,0.0,0.0,0.0,0.0,0.0,0.0,0.0,0.0,0.0,0.0,0.0,0.0,0.18,0.18,0.18,0.0,0.0,0.0,0.0,0.0,0.0,0.0,0.0,0.0,0.0,0.0,0.0,0.0,0.2323,0.3042,0.3119,0.338,0.3795,0.3886,0.3814,0.3604,0.334,0.0,0.0,0.0,0.0,0.0,0.3241,0.3414,0.3649,0.0,0.0,0.0,0.0,0.0,0.0,0.2825,0.2769,0.27,0.27,0.2824,0.0,0.0,0.0,0.0,0.7306,0.8029,0.8602,0.9754,1.0399,1.0766,1.0873,1.1161,1.1439,1.1555,1.1824,1.2102,1.2271,1.2305,1.2305,1.2305,1.2305,1.3018,1.4977,1.5199,1.5939,1.7819,1.7999,1.8068,1.8205,1.8215,1.8283,1.8457,1.8467,1.8467,1.8467,1.8467,1.8467,1.8467,1.8467,1.8595,1.8849,1.8849,1.9074,1.9512,1.9512,1.9746,2.0146,2.0146,2.0322,2.0605,2.0605,2.0605,2.0605,2.0605,2.0605,2.0605,2.0605,2.0605,2.0605,0.0,0.0,0.0,0.0,0.0,0.0,0.0,0.0,0.0,0.0,0.0,0.0,0.0,0.0,0.1916,0.1871,0.0,0.0,0.0,0.0,0.0,0.0,0.0,0.0,0.0,0.0,0.0,0.0,0.0,0.0,0.0,0.2858,0.308,0.3408,0.3609,0.3711,0.0,0.0,0.0,0.3147,0.0,0.0,0.3673,0.0,0.3895,0.0,0.0,0.0,0.0,0.0,0.0,0.0,0.0,0.3045,0.27,0.27,0.2856,0.0,0.3633,0.0,0.0,0.0,0.0,0.7519,0.8889,0.9613,1.0076,1.0371,1.0722,1.1032,1.1226,1.1452,1.1721,1.21,1.2433,1.2558,1.2331,1.2574,1.3373,1.5012,1.5199,1.5939,1.7819,1.7999,1.7999,1.7999,1.7999,1.7999,1.7999,1.7999,1.7999,1.7999,1.7999,1.7999,1.7999,1.7999,1.8137,1.8402,1.8402,1.8626,1.9072,1.9072,1.9297,1.9707,1.9844,2.0175,2.0605,2.0605,2.0605,2.0605,2.0605,2.0605,2.0605,2.0605,2.0605,2.0605,0.0,0.0,0.0,0.0,0.0,0.0,0.0,0.0,0.0,0.1807,0.0,0.0,0.0,0.0,0.0,0.2016,0.1881,0.1804,0.1804,0.1803,0.0,0.0,0.0,0.0,0.0,0.0,0.0,0.0,0.0,0.0,0.0,0.0,0.3055,0.3363,0.3178,0.3275,0.3578,0.0,0.359,0.3615,0.0,0.3798,0.3865,0.0,0.0,0.0,0.497,0.511,0.0,0.553,0.0,0.0,0.0,0.3501,0.271,0.2706,0.2802,0.0,0.0,0.0,0.0,0.0,0.0,0.0,0.7798,0.0,0.9031,0.9898,1.0064,1.026,1.0855,1.0969,1.1171,1.1777,1.264,1.3029,1.2419,1.3111,1.4065,1.5119,1.5243,1.5974,1.7819,1.7999,1.7999,1.7999,1.7999,1.7999,1.7999,1.7999,1.7999,1.7999,1.7999,1.7999,1.7999,1.7999,1.7999,1.7999,1.7999,1.8205,1.8588,1.8588,1.884,1.9296,1.9688,2.0127,2.0576,2.0586,2.0605,2.0605,2.0605,2.0605,2.0605,2.0605,2.0605,2.0605,0.0,0.0,0.0,0.0,0.0,0.0,0.18,0.18,0.1835,0.0,0.0,0.0,0.0,0.0,0.2187,0.2147,0.2022,0.1944,0.1944,0.1853,0.18,0.18,0.18,0.18,0.0,0.0,0.0,0.0,0.0,0.0,0.0,0.0,0.0,0.0,0.2894,0.3006,0.3093,0.3093,0.0,0.0,0.368,0.3827,0.0,0.0,0.0,0.0,0.0,0.5325,0.5183,0.0,0.4329,0.3915,0.0,0.0,0.0,0.2872,0.3007,0.0,0.2954,0.0,0.0,0.0,0.0,0.0,0.0,0.0,0.8691,0.9317,0.9451,0.9637,1.0246,1.0353,1.0555,1.1144,1.1632,1.2183,1.2917,1.3244,1.4104,1.5983,1.621,1.668,1.7879,1.7999,1.7999,1.7999,1.7999,1.7999,1.7999,1.7999,1.7999,1.7999,1.7999,1.7999,1.7999,1.7999,1.7999,1.7999,1.7999,1.8068,1.8175,1.8175,1.8401,1.8801,1.8909,1.9396,2.0117,2.0468,2.0605,2.0605,2.0605,2.0605,2.0605,2.0605,2.0605,2.0605,0.0,0.0,0.0,0.0,0.0,0.1967,0.1967,0.1967,0.1995,0.0,0.0,0.0,0.0,0.0,0.247,0.2413,0.2157,0.2002,0.2002,0.1874,0.18,0.18,0.1853,0.1881,0.1881,0.0,0.0,0.0,0.0,0.0,0.0,0.0,0.0,0.0,0.2455,0.2635,0.2805,0.0,0.0,0.0,0.3721,0.0,0.0,0.4753,0.5014,0.0,0.0,0.0,0.5475,0.527,0.4819,0.0,0.0,0.3374,0.3264,0.3045,0.3197,0.0,0.0,0.0,0.0,0.0,0.0,0.0,0.6815,0.7641,0.8384,0.0,0.9197,0.935,0.9839,0.9933,1.0079,1.0555,1.076,1.1236,1.2349,1.3162,1.4113,1.5402,1.5852,1.6434,1.7372,1.7628,1.7744,1.7744,1.791,1.7999,1.7999,1.7999,1.7999,1.7999,1.7999,1.7999,1.7999,1.7999,1.7999,1.7999,1.7999,1.7999,1.7999,1.7999,1.8136,1.8363,1.8529,1.9005,1.9678,2.0127,2.042,2.0605,2.0605,2.0605,2.0605,2.0605,2.0605,2.0605,0.0,0.0,0.2005,0.2019,0.2137,0.2234,0.2234,0.2234,0.2244,0.0,0.2463,0.2695,0.0,0.0,0.2894,0.2776,0.2344,0.2069,0.2055,0.1911,0.1814,0.18,0.1926,0.1992,0.1978,0.2005,0.0,0.0,0.0,0.0,0.0,0.0,0.0,0.1978,0.1995,0.2242,0.263,0.0,0.0,0.3338,0.3756,0.396,0.0,0.0,0.4646,0.4811,0.541,0.5811,0.6132,0.6524,0.5997,0.0,0.0,0.3721,0.3582,0.3269,0.3402,0.0,0.348,0.3543,0.0,0.0,0.4545,0.0,0.6188,0.707,0.7988,0.0,0.9031,0.9131,0.9526,0.96,0.97,1.0006,1.0078,1.043,1.1382,1.2966,1.4098,1.4238,1.4973,1.5782,1.6626,1.708,1.7323,1.7323,1.7648,1.7882,1.7931,1.7931,1.7942,1.7999,1.7999,1.7999,1.7999,1.7999,1.7999,1.7999,1.7999,1.7999,1.7999,1.7999,1.7999,1.8029,1.8382,1.8801,1.9257,1.961,2.0088,2.0605,2.0605,2.0605,2.0605,2.0605,2.0605,2.0605,0.0,0.0,0.2033,0.214,0.2317,0.2441,0.2441,0.2441,0.2519,0.2735,0.3035,0.0,0.0,0.0,0.0,0.3187,0.2804,0.2515,0.2411,0.2123,0.1912,0.1807,0.1926,0.1951,0.1839,0.2053,0.2053,0.1839,0.0,0.0,0.0,0.0,0.0,0.0,0.1954,0.211,0.2318,0.0,0.0,0.3308,0.34,0.0,0.4235,0.4897,0.5577,0.6204,0.634,0.697,0.7658,0.7165,0.6404,0.558,0.0,0.4486,0.3885,0.3714,0.3786,0.3894,0.3759,0.3819,0.3929,0.3956,0.0,0.0,0.5913,0.6393,0.6975,0.0,0.7977,0.8068,0.8831,0.8978,0.9152,0.9687,0.9959,1.0589,1.2013,1.3067,1.408,1.5099,1.5935,1.6497,1.6673,1.6775,1.684,1.684,1.691,1.7122,1.7507,1.7516,1.7674,1.799,1.7999,1.7999,1.7999,1.7999,1.7999,1.7999,1.7999,1.7999,1.7999,1.7999,1.7999,1.8001,1.8079,1.8352,1.8743,1.8812,1.9542,2.0605,2.0605,2.0605,2.0605,2.0605,2.0605,2.0605,0.0,0.2181,0.2293,0.2428,0.2589,0.272,0.2787,0.2801,0.287,0.3076,0.0,0.0,0.0,0.0,0.0,0.0,0.2896,0.2643,0.2508,0.2184,0.1971,0.1902,0.1964,0.2002,0.2002,0.2066,0.2066,0.2002,0.0,0.0,0.0,0.18,0.2031,0.0,0.0,0.0,0.0,0.0,0.3013,0.3371,0.3569,0.0,0.4286,0.5092,0.5667,0.6125,0.6653,0.7283,0.7782,0.735,0.662,0.0,0.0,0.487,0.4219,0.0,0.4048,0.4086,0.4014,0.4051,0.4102,0.4102,0.0,0.0,0.0,0.6272,0.7031,0.7672,0.7879,0.808,0.8523,0.8603,0.8744,0.9185,0.9478,0.9973,1.0918,1.1867,1.2901,1.4108,1.4853,1.5462,1.6002,1.6254,1.6486,1.6687,1.6697,1.6802,1.7043,1.7052,1.7248,1.7694,1.7695,1.7803,1.7999,1.7999,1.7999,1.7999,1.7999,1.7999,1.7999,1.7999,1.7999,1.7999,1.7999,1.8235,1.8598,1.8598,1.9132,1.997,2.0166,2.039,2.0605,2.0605,2.0605,2.0605,0.0,0.0,0.25,0.2669,0.2829,0.2974,0.3084,0.3129,0.3214,0.0,0.0,0.0,0.0,0.0,0.0,0.0,0.0,0.3122,0.0,0.0,0.2228,0.2102,0.2096,0.213,0.2197,0.213,0.2103,0.2124,0.0,0.0,0.18,0.1825,0.2215,0.2871,0.0,0.0,0.0,0.0,0.0,0.3756,0.0,0.4174,0.4224,0.5118,0.5548,0.584,0.7137,0.7768,0.7958,0.7651,0.6988,0.6198,0.5669,0.5129,0.0,0.0,0.0,0.0,0.0,0.0,0.0,0.0,0.0,0.5063,0.0,0.0,0.0,0.7464,0.7942,0.0,0.0,0.0,0.0,0.8744,0.0,0.0,0.0,1.0349,0.0,1.2633,1.331,1.4086,1.5179,1.563,1.6019,1.6422,1.6383,1.6402,1.6576,1.6578,1.6791,1.7254,1.7352,1.7557,1.7872,1.796,1.7999,1.7999,1.7999,1.7999,1.7999,1.7999,1.7999,1.7999,1.7999,1.8177,1.8481,1.8481,1.8752,1.9209,1.9707,2.0127,2.0478,2.0566,2.0605,2.0605,0.2387,0.233,0.0,0.2644,0.291,0.3081,0.3101,0.3254,0.3457,0.0,0.0,0.0,0.0,0.0,0.0,0.0,0.0,0.0,0.4057,0.0,0.0,0.2471,0.2442,0.2365,0.2204,0.2361,0.2246,0.1846,0.1933,0.1916,0.1803,0.1923,0.2029,0.2156,0.2842,0.0,0.0,0.0,0.4261,0.0,0.4959,0.4519,0.0,0.4945,0.5729,0.657,0.8652,0.9577,0.9666,0.0,0.7955,0.7115,0.0,0.5447,0.5269,0.4645,0.0,0.0,0.0,0.0,0.0,0.0,0.4608,0.0,0.0,0.0,0.6433,0.6821,0.0,0.0,0.0,0.0,0.0,0.0,0.0,0.0,0.9217,0.9368,1.0079,1.1816,1.2713,1.3617,1.4758,1.4923,1.5115,1.5522,1.5215,1.5356,1.6134,1.6173,1.6363,1.6773,1.7178,1.7419,1.7468,1.7822,1.7999,1.7999,1.7999,1.7999,1.7999,1.7999,1.7999,1.7999,1.7999,1.8029,1.8068,1.8068,1.8313,1.8762,1.9581,1.9932,2.0029,2.0449,2.0605,2.0605,0.2181,0.23,0.0,0.2658,0.2856,0.3051,0.3244,0.3542,0.3757,0.0,0.0,0.0,0.0,0.0,0.0,0.0,0.0,0.4914,0.0,0.0,0.0,0.2766,0.2583,0.2496,0.2492,0.2307,0.215,0.2029,0.1933,0.1856,0.0,0.0,0.2309,0.2894,0.3459,0.0,0.4524,0.0,0.4701,0.0,0.0,0.0,0.0,0.6118,0.7372,0.846,0.955,1.0128,1.0296,0.0,0.8588,0.0,0.0,0.0,0.0,0.0,0.0,0.0,0.0,0.0,0.0,0.0,0.0,0.0,0.4858,0.0,0.5966,0.0,0.0,0.0,0.0,0.0,0.0,0.0,0.8444,0.0,0.0,0.0,0.9379,1.111,0.0,0.0,1.367,1.332,1.3464,1.4563,1.3977,1.4097,1.5281,1.5351,1.5649,1.6336,1.6769,1.7121,1.7399,1.7803,1.7999,1.7999,1.7999,1.7999,1.7999,1.7999,1.7999,1.7999,1.7999,1.7999,1.7999,1.7999,1.8098,1.8304,1.8909,1.9445,1.9913,2.0117,2.0371,2.0605,0.0,0.0,0.0,0.0,0.2813,0.3025,0.3397,0.3735,0.3936,0.3915,0.0,0.0,0.4645,0.5034,0.0,0.0,0.598,0.5778,0.0,0.0,0.4318,0.3772,0.3053,0.2807,0.3105,0.2509,0.2194,0.22,0.2005,0.1909,0.0,0.0,0.2527,0.3252,0.381,0.4564,0.5415,0.0,0.5379,0.5678,0.5815,0.6003,0.6326,0.7363,0.861,0.9833,1.0033,1.0315,1.0522,0.9977,0.8955,0.0,0.833,0.0,0.5746,0.0,0.0,0.0,0.5038,0.0,0.0,0.0,0.0,0.0,0.0,0.0,0.0,0.0,0.0,0.0,0.0,0.0,0.0,0.0,0.0,0.8209,0.0,0.817,0.0,0.0,0.0,0.0,0.0,1.1964,1.2149,1.3708,1.3014,1.3178,1.4713,1.4799,1.5139,1.5882,1.6318,1.675,1.7197,1.7627,1.7892,1.7999,1.7999,1.7999,1.7999,1.7999,1.7999,1.7999,1.7999,1.7999,1.7999,1.7999,1.7999,1.8029,1.8324,1.8889,1.9562,1.9805,2.0205,2.0605,0.2194,0.2358,0.0,0.0,0.0,0.3059,0.352,0.3712,0.3898,0.0,0.0,0.0,0.0,0.0,0.0,0.0,0.0,0.8371,0.7641,0.0,0.5592,0.5891,0.4089,0.3417,0.0,0.3185,0.252,0.22,0.219,0.2187,0.0,0.0,0.2502,0.2582,0.3694,0.4396,0.4785,0.5612,0.6603,0.7622,0.7755,0.851,0.9424,0.0,0.8806,1.0085,1.0098,0.0,0.0,0.9394,0.8999,0.0,0.0,0.0,0.0,0.0,0.0,0.0,0.0,0.0,0.0,0.4783,0.0,0.0,0.0,0.0,0.5738,0.0,0.0,0.0,0.0,0.0,0.0,0.0,0.0,0.0,0.0,0.0,0.0,0.0,0.0,0.0,0.0,1.1231,1.1608,1.3023,1.2433,1.2837,1.4703,1.4799,1.4988,1.5413,1.5882,1.6314,1.6716,1.7187,1.7616,1.7999,1.7999,1.7999,1.7999,1.7999,1.7999,1.7999,1.7999,1.7999,1.7999,1.7999,1.7999,1.7999,1.801,1.8265,1.8744,1.9591,2.0205,2.0605,0.0,0.0,0.0,0.0,0.0,0.3637,0.4064,0.4508,0.4904,0.0,0.0,0.0,0.0,0.7467,0.7988,0.0,0.0,0.8434,0.7874,0.6905,0.0,0.0,0.448,0.3866,0.0,0.3501,0.2863,0.2666,0.2483,0.2443,0.253,0.0,0.0,0.0,0.4004,0.4915,0.0,0.0,0.0,0.0,0.0,0.873,0.9917,0.0,0.9668,1.0125,1.0356,1.0498,0.0,1.0176,0.9589,0.9063,0.9437,0.8784,0.7954,0.8376,0.8198,0.7743,0.0,0.0,0.7639,0.5921,0.0,0.0,0.0,0.0,0.0,0.0,0.0,0.0,0.0,0.0,0.0,0.0,0.0,0.0,0.0,0.0,0.0,0.0,0.0,0.0,0.0,0.0,1.0512,1.1873,1.1743,1.2286,1.386,1.4186,1.4537,1.4988,1.5723,1.6163,1.6304,1.7029,1.7477,1.7606,1.7872,1.7999,1.7999,1.7999,1.7999,1.7999,1.7999,1.7999,1.7999,1.7999,1.7999,1.7999,1.7999,1.8254,1.8666,1.9278,1.9766,2.0185,0.3742,0.0,0.0,0.0,0.0,0.0,0.4478,0.5094,0.0,0.0,0.6421,0.0,0.7616,0.0,0.8283,0.0,0.907,0.8962,0.8562,0.7804,0.0,0.713,0.563,0.0,0.0,0.4386,0.3638,0.3432,0.2999,0.2803,0.284,0.0,0.0,0.0,0.0,0.4938,0.6027,0.0,0.7178,0.0,0.0,0.9326,0.0,0.0,1.0282,1.0316,0.0,1.0601,1.0601,1.0601,1.0139,0.969,1.0376,0.9684,0.8729,0.9378,0.9107,0.852,0.8135,0.8505,0.0,0.6949,0.702,0.0,0.5741,0.0,0.571,0.0,0.0,0.0,0.0,0.0,0.0,0.0,0.0,0.0,0.0,0.7579,0.0,0.0,0.0,0.0,0.0,0.0,0.9187,1.0719,1.0757,1.1436,0.0,1.3745,1.4322,1.4789,1.5483,1.5938,1.6102,1.6803,1.7227,1.7401,1.7812,1.7999,1.7999,1.7999,1.7999,1.7999,1.7999,1.7999,1.7999,1.7999,1.7999,1.7999,1.7999,1.8157,1.846,1.9072,1.9658,2.0185,0.0,0.0,0.0,0.0,0.3448,0.0,0.0,0.0,0.6202,0.0,0.741,0.7641,0.7824,0.858,0.9161,0.9346,0.983,1.0006,0.9741,0.8915,0.0,0.0,0.7422,0.6847,0.7321,0.0,0.0,0.4463,0.3713,0.3293,0.3185,0.0,0.0,0.0,0.3508,0.0,0.6027,0.6469,0.7651,0.9277,0.9864,1.0302,1.0601,1.0601,1.0601,1.0601,1.0601,1.0601,1.0601,1.0601,1.0601,1.0601,1.0601,1.0601,1.0601,1.0601,1.0601,1.0384,0.9357,0.9076,0.8835,0.7825,0.7573,0.0,0.0,0.0,0.7281,0.0,0.0,0.0,0.0,0.0,0.0,0.0,0.0,0.0,0.0,0.0,0.0,0.0,0.0,0.0,0.0,0.0,0.7845,0.9605,0.9638,0.0,0.0,1.3492,1.4277,1.475,1.5186,1.5615,1.6056,1.6486,1.6927,1.737,1.7803,1.7999,1.7999,1.7999,1.7999,1.7999,1.7999,1.7999,1.7999,1.7999,1.7999,1.7999,1.7999,1.8009,1.8136,1.8993,1.9843,2.0605,0.4833,0.5067,0.5382,0.0,0.5541,0.5848,0.0,0.0,0.0,0.0,0.8452,0.8936,0.9769,1.0058,1.0208,1.0263,1.0393,0.0,0.0,0.0,0.0,0.9451,0.7865,0.7216,0.7732,0.6415,0.5601,0.537,0.0,0.0,0.4414,0.0,0.0,0.0,0.0,0.0,0.6061,0.7016,0.8256,0.9599,0.9959,1.0302,1.0601,0.0,1.0601,1.0601,1.0601,1.0601,1.0601,1.0601,1.0601,1.0601,1.0601,1.0601,1.0601,1.0601,1.0601,1.0541,1.0265,1.019,0.9933,0.8877,0.8615,0.8402,0.0,0.0,0.0,0.0,0.0,0.0,0.0,0.0,0.0,0.0,0.0,0.0,0.0,0.0,0.0,0.8035,0.0,0.0,0.0,0.8149,0.8793,0.8829,1.0028,1.1119,1.1941,1.3039,1.3854,1.4267,1.5005,1.5461,1.5576,1.6324,1.6755,1.6898,1.764,1.7999,1.7999,1.7999,1.7999,1.7999,1.7999,1.7999,1.7999,1.7999,1.7999,1.7999,1.7999,1.8176,1.8519,1.9092,1.9843,2.0605,0.5642,0.0,0.0,0.7073,0.0,0.0,0.7533,0.7763,0.0,0.8977,0.9315,0.0,1.0316,1.0512,1.0601,1.0601,1.0601,0.0,1.0118,0.0,0.0,0.9706,0.8878,0.8434,0.8464,0.7475,0.0,0.6311,0.0,0.0,0.4883,0.0,0.0,0.0,0.0,0.5625,0.6366,0.7918,0.9013,0.9734,1.0148,1.043,0.0,1.0601,1.0601,1.0601,1.0601,1.0601,1.0601,1.0601,1.0601,1.0601,1.0601,1.0601,1.0601,1.0601,1.0601,1.0601,1.0601,1.0601,1.0466,0.9851,0.9698,0.9514,0.8799,0.8694,0.873,0.0,0.86,0.8711,0.0,0.0,0.0,0.0,0.0,0.0,0.0,0.0,0.0,0.0,0.8075,0.0,0.0,0.7661,0.8318,0.824,0.9347,1.0359,0.0,1.2377,1.338,1.4081,1.4771,1.5225,1.5396,1.6086,1.6535,1.6707,1.7404,1.7832,1.7999,1.7999,1.7999,1.7999,1.7999,1.7999,1.7999,1.7999,1.7999,1.7999,1.7999,1.8254,1.8665,1.9131,1.9716,2.0322,0.6388,0.0,0.0,0.0,0.0,0.0,0.0,0.8281,0.0,0.9634,0.0,1.0166,1.0166,1.0431,1.0601,1.0601,0.0,1.0479,1.0179,1.0438,1.0373,0.9842,1.0,0.9858,0.933,0.8635,0.7951,0.0,0.0,0.0,0.0,0.0,0.0,0.0,0.0,0.0,0.0,0.8887,0.9701,0.9747,1.0359,1.0601,1.0601,1.0601,1.0601,1.0601,1.0601,1.0601,1.0601,1.0601,1.0601,1.0601,1.0601,1.0601,1.0601,1.0601,1.0601,1.0601,1.0601,1.0601,1.0601,1.0601,1.0601,1.0518,1.0226,1.0166,1.0166,1.0166,0.9981,0.9962,1.0453,0.0,0.0,0.0,0.0,0.0,0.0,0.0,0.0,0.0,0.0,0.0,0.0,0.0,0.0,0.0,0.8212,0.0,0.0,1.1635,1.2893,1.4058,1.4561,1.4988,1.5403,1.5923,1.6355,1.6707,1.7236,1.7656,1.7999,1.7999,1.7999,1.7999,1.7999,1.7999,1.7999,1.7999,1.7999,1.7999,1.7999,1.8215,1.8578,1.9102,1.9521,1.9893,0.0,0.0,0.0,0.0,0.0,0.913,0.9351,0.9415,0.9575,0.9978,1.0316,1.0512,1.0512,1.0559,1.0601,1.0601,1.0601,0.0,0.0,0.0,0.0,1.0453,1.0221,1.0052,0.9944,0.9127,0.8521,0.0,0.0,0.0,0.595,0.0,0.0,0.0,0.0,0.0,0.8152,0.9237,0.0,0.9747,1.0359,1.0601,1.0601,1.0601,1.0601,1.0601,1.0601,1.0601,1.0601,1.0601,1.0601,1.0601,1.0601,1.0601,1.0601,1.0601,1.0601,1.0601,1.0601,1.0601,1.0601,1.0601,1.0601,1.0579,1.0534,1.0512,1.0512,1.0512,1.048,1.0392,1.0221,0.0,0.0,0.0,0.0,0.0,0.0,0.0,0.0,0.0,0.0,0.8363,0.0,0.0,0.0,0.0,0.0,0.8939,1.0327,1.1163,1.2364,1.4055,1.4561,1.4988,1.5403,1.6188,1.6627,1.6716,1.7503,1.7931,1.7999,1.7999,1.7999,1.7999,1.7999,1.7999,1.7999,1.7999,1.7999,1.7999,1.7999,1.804,1.8196,1.8994,1.9345,1.9521,0.0,0.0,0.0,0.0,0.0,0.0,0.0,1.0063,1.0149,1.0113,1.0241,1.0335,1.0335,1.0499,1.0601,1.0601,1.0601,1.0601,1.0601,1.0601,1.0601,1.0601,1.0444,1.0282,1.0098,0.9552,0.9052,0.8604,0.0,0.6786,0.6595,0.5882,0.0,0.0,0.0,0.7523,0.0,0.0,0.0,0.9747,1.0359,1.0601,1.0601,1.0601,1.0601,1.0601,1.0601,1.0601,1.0601,1.0601,1.0601,1.0601,1.0601,1.0601,1.0601,1.0601,1.07,1.0806,1.0806,1.0912,1.0977,1.0838,1.0806,1.0766,1.0626,1.0601,1.0601,1.0601,1.0601,1.0499,1.0158,0.988,0.0,0.0,0.0,0.0,0.0,0.0,0.0,0.0,0.0,0.0,0.0,0.0,0.0,0.0,0.0,0.868,1.0513,1.0781,1.1867,1.4032,1.4322,1.4749,1.5386,1.6064,1.6488,1.6707,1.7375,1.7803,1.7999,1.7999,1.7999,1.7999,1.7999,1.7999,1.7999,1.7999,1.7999,1.7999,1.7999,1.7999,1.8107,1.8984,1.9296,1.9413,0.0,0.8744,0.0,0.0,0.9572,0.9853,1.0073,1.0429,1.0572,1.0247,1.0214,1.0214,1.0214,1.049,1.066,1.0601,1.0646,1.066,1.0601,1.0601,1.0601,1.0601,1.0601,1.0479,1.0206,0.9934,0.9486,0.0,0.0,0.0,0.7,0.6782,0.0,0.0,0.0,0.0,0.0,0.0,0.9787,0.9834,1.0378,1.0601,1.0601,1.0601,1.0601,1.0601,1.0601,1.0601,1.0601,1.0601,1.0601,1.0601,1.0601,1.0641,1.0687,1.0687,1.0871,1.1089,1.1089,1.1241,1.1352,1.1142,1.1042,1.0937,1.0726,1.0641,1.0601,1.0601,1.0601,1.0499,1.0158,0.9987,0.0,0.0,0.0,0.0,0.0,0.0,0.0,0.0,0.0,0.0,0.7665,0.0,0.0,0.0,0.0,0.8337,1.049,1.0269,1.1281,1.3892,1.3915,1.433,1.5256,1.5913,1.6394,1.6707,1.7257,1.7686,1.7999,1.7999,1.7999,1.7999,1.7999,1.7999,1.7999,1.7999,1.7999,1.7999,1.7999,1.8049,1.8215,1.9013,1.9355,1.954,0.0,0.0,0.0,0.0,0.0,1.0072,1.0098,1.0595,1.0857,1.0586,1.0553,1.0553,1.0553,1.0798,1.0858,1.0621,1.0818,1.0858,1.0621,1.0601,1.0601,1.0601,1.0601,1.0595,1.0553,1.0227,0.9764,0.0,0.0,0.7862,0.7,0.6973,0.7114,0.0,0.0,0.0,0.0,0.9705,1.0058,1.0085,1.0451,1.0601,1.0601,1.0601,1.0601,1.0601,1.0601,1.0601,1.0601,1.0601,1.0601,1.0601,1.0601,1.0774,1.0964,1.0964,1.1147,1.1357,1.1357,1.1377,1.1391,1.1371,1.1181,1.099,1.0972,1.0772,1.0601,1.0601,1.0601,1.0499,1.0158,1.0329,1.0346,0.0,0.0,0.0,0.0,0.0,0.8697,0.8429,0.0,0.0,0.0,0.7668,0.0,0.0,0.7508,0.7903,0.988,0.9385,1.0434,1.3461,1.3323,1.3732,1.4851,1.6039,1.6658,1.6716,1.7552,1.796,1.7999,1.7999,1.7999,1.7999,1.7999,1.7999,1.7999,1.7999,1.7999,1.7999,1.7999,1.8216,1.8606,1.9111,1.9531,1.9922,0.0,0.0,0.0,0.0,0.0,0.0,0.0,1.1086,1.1201,1.1096,1.1082,1.1082,1.1082,1.1174,1.1127,1.0858,1.0938,1.0885,1.0621,1.0601,1.0601,1.0601,1.0601,1.0601,1.0601,1.0267,0.9985,0.0,0.0,0.845,0.8071,0.7706,0.7805,0.0,0.0,0.9151,0.9379,0.9886,1.0098,1.0125,1.0472,1.0601,1.0601,1.0601,1.07,1.0838,1.0838,1.0937,1.1082,1.1082,1.097,1.0838,1.0838,1.1015,1.1241,1.1241,1.1463,1.1699,1.1699,1.1817,1.1902,1.1746,1.147,1.1201,1.1044,1.0792,1.0601,1.0601,1.0601,1.0561,1.0423,1.035,1.0289,1.0251,0.0,0.0,0.0,0.0,0.0,0.0,0.0,0.0,0.0,0.0,0.0,0.0,0.0,0.7815,0.9682,0.9603,1.0536,1.2826,1.3424,1.4051,1.4789,1.6059,1.6697,1.6716,1.7573,1.7999,1.7999,1.7999,1.7999,1.7999,1.7999,1.7999,1.7999,1.7999,1.7999,1.7999,1.7999,1.8254,1.8665,1.9131,1.9551,1.9971,0.9949,0.0,1.046,0.0,1.099,1.1181,1.1371,1.1479,1.1548,1.1548,1.1865,1.1897,1.1452,1.1486,1.1428,1.1134,1.1211,1.1139,1.0851,1.0839,1.0839,1.0839,1.0759,0.0,1.072,1.041,1.0199,1.0098,0.9485,0.9091,0.8905,0.8485,0.8565,0.9078,0.9351,0.9598,0.984,1.012,1.0286,1.0386,1.0617,1.0759,1.0839,1.0839,1.095,1.1122,1.1122,1.1241,1.1397,1.1397,1.1341,1.1253,1.1149,1.1323,1.1548,1.1548,1.1772,1.2024,1.2024,1.2153,1.2251,1.2062,1.171,1.1352,1.1161,1.0845,1.0601,1.0601,1.0601,1.0601,1.0601,1.0411,1.0287,1.0431,0.0,0.0,0.0,0.9118,0.0,0.0,0.8731,0.8901,0.9467,0.8537,0.0,0.0,0.0,0.8246,0.9818,0.9717,1.059,1.273,1.3448,1.4176,1.4978,1.612,1.6773,1.691,1.7649,1.7999,1.7999,1.7999,1.7999,1.7999,1.7999,1.7999,1.7999,1.7999,1.7999,1.7999,1.7999,1.8254,1.8665,1.9131,1.9551,1.9971,1.0519,1.0806,1.1069,1.1337,1.1391,1.1397,1.1397,1.1679,1.189,1.189,1.2928,1.3083,1.1576,1.1699,1.1761,1.1424,1.1699,1.1748,1.1404,1.1391,1.1391,0.0,0.0,1.0997,1.0997,1.0726,1.043,1.0098,0.0,0.9778,0.9197,0.919,0.9364,0.9701,0.9966,1.0092,1.0118,1.0451,1.0754,1.099,1.099,1.1147,1.1391,1.1391,1.1391,1.1397,1.1397,1.1397,1.1397,1.1397,1.1617,1.183,1.1499,1.1615,1.189,1.189,1.208,1.2298,1.2298,1.2298,1.2305,1.2298,1.1839,1.1397,1.1397,1.0984,1.0601,1.0601,1.0601,1.0601,1.0601,1.0594,1.0492,1.0159,0.0,0.0,0.0,0.8971,0.0,0.8798,0.857,0.8768,0.9699,0.8645,0.0,0.0,0.0,0.0,0.0,0.0,0.0,1.3397,1.3242,1.3853,1.5386,1.6258,1.6929,1.7399,1.7803,1.7999,1.7999,1.7999,1.7999,1.7999,1.7999,1.7999,1.7999,1.7999,1.7999,1.7999,1.7999,1.8254,1.8665,1.9131,1.9551,1.9971,1.1121,1.1407,1.1641,1.1728,1.1891,1.2006,1.2006,1.2651,1.3129,1.3129,1.4056,1.454,1.4038,1.3468,1.2747,0.0,1.1844,1.1761,0.0,1.1397,1.1713,1.2386,1.2333,1.2592,1.3238,1.3168,1.2758,1.201,0.0,1.103,0.9818,1.0054,1.0088,0.9986,1.0303,1.0899,1.1666,1.1783,1.2383,1.3189,1.255,1.2727,1.3311,1.2665,1.2935,1.3655,1.3655,1.336,1.3068,1.3759,1.3187,1.2263,1.2801,1.2601,1.2174,1.2174,1.2231,1.2305,1.2305,1.2305,1.2305,1.2305,1.202,1.1679,1.1444,1.099,1.0601,1.0601,1.0601,1.0601,1.0601,1.0601,1.0574,1.0458,1.0022,0.0,0.9552,0.0,0.8798,0.8798,0.8724,0.8971,0.9729,0.8853,0.0,0.0,0.0,0.0,0.0,0.0,0.0,0.0,1.3758,0.0,1.5386,1.6258,1.6937,1.7401,1.7812,1.7999,1.7999,1.7999,1.7999,1.7999,1.7999,1.7999,1.7999,1.7999,1.7999,1.7999,1.7999,1.8439,1.9102,1.9247,1.9755,2.04,1.159,1.1839,1.2166,1.2509,1.2708,1.2952,1.333,1.3891,1.4261,1.4261,1.5119,1.5588,1.5243,1.4951,0.0,1.3241,1.2788,1.2657,1.2819,1.283,1.3108,1.3735,1.3635,1.3844,1.4447,1.4346,0.0,1.3427,1.3223,1.2621,1.1683,1.1889,1.1882,1.169,1.1896,1.241,1.3105,1.3105,1.3631,1.4405,1.381,1.4,1.4571,1.3992,1.4231,1.4886,1.4886,1.4614,1.436,1.4985,1.4396,1.3493,1.4081,1.3593,1.276,1.2399,1.2305,1.2305,1.2305,1.2305,1.2305,1.2305,1.2102,1.1808,1.1481,1.1062,1.0746,1.0746,1.0667,1.0601,1.0601,1.0601,1.0601,1.0601,1.0089,0.9701,0.9701,0.0,0.8798,0.0,0.0,0.9061,0.0,0.9425,0.9566,0.0,0.0,0.0,0.0,0.0,1.216,1.3328,1.4433,1.5295,1.5876,1.6605,1.7197,1.7635,1.7872,1.7999,1.7999,1.7999,1.7999,1.7999,1.7999,1.7999,1.7999,1.7999,1.7999,1.8019,1.8175,1.8557,1.9082,1.9404,1.9873,2.0361,1.2022,1.2229,1.2668,1.3546,1.3763,1.4126,1.5057,1.5261,1.5305,1.5305,1.6114,1.6358,1.549,1.6114,1.6271,1.5464,1.4414,0.0,1.5136,1.5199,1.5225,1.5296,1.4997,1.4857,1.4933,1.468,1.4519,1.4462,1.4387,1.4354,1.4337,1.4337,1.4321,1.4296,1.4296,1.4353,1.4419,1.4419,1.4614,1.4916,1.4857,1.5057,1.5393,1.5322,1.534,1.5393,1.5393,1.5349,1.5314,1.5367,1.5314,1.5216,1.5278,1.4611,1.3618,1.2668,1.2351,1.2305,1.2305,1.2305,1.2305,1.2305,1.2102,1.1824,1.1508,1.1221,1.1015,1.0995,1.0799,1.062,1.0601,1.0601,1.0594,1.0574,1.0084,0.9694,0.9667,0.9185,0.8831,0.8831,0.0,0.0,0.9809,1.0248,1.086,0.0,0.0,0.0,0.0,0.0,1.2342,1.4774,1.5234,1.5874,1.6736,1.7178,1.7606,1.7999,1.7999,1.7999,1.7999,1.7999,1.7999,1.7999,1.7999,1.7999,1.7999,1.7999,1.8019,1.8077,1.8451,1.8637,1.8783,1.9601,1.9922,2.001,1.3273,1.3331,1.3437,1.3664,1.4325,1.4932,1.5163,1.5816,1.6271,1.6271,1.7087,1.7587,1.7364,1.6896,1.6801,1.7295,1.5816,1.495,1.5181,1.5199,1.5526,1.6236,1.6191,1.6492,1.7196,1.7162,1.6774,1.6065,1.5342,1.4862,1.4613,1.4613,1.4505,1.4296,1.4296,1.481,1.567,1.567,1.6273,1.7153,1.644,1.6633,1.726,1.6532,1.6706,1.7338,1.7338,1.688,1.6384,1.7096,1.6376,1.5331,1.6035,1.5605,1.4647,1.3664,1.2861,1.2305,1.2305,1.2305,1.2305,1.2305,1.2102,1.1877,1.1801,1.1536,1.1254,1.1042,1.095,1.0838,1.0641,1.0601,1.0519,1.0254,0.9927,0.9613,0.9358,0.9191,0.9104,0.0,0.9332,0.9791,1.0561,1.0459,1.081,0.0,0.0,1.2418,1.3663,1.3643,1.4111,1.5218,1.5698,1.6353,1.7225,1.7342,1.7606,1.7999,1.7999,1.7999,1.7999,1.7999,1.7999,1.7999,1.7999,1.7999,1.7999,1.7999,1.8176,1.847,1.8559,1.9006,1.962,1.9815,2.0127,2.0449,1.379,1.4072,1.4522,1.4951,1.5482,1.5974,1.6411,1.6906,1.7243,1.7243,1.7673,1.7999,1.7999,1.7544,1.7449,1.7957,1.6681,1.6018,1.6455,1.6481,1.6715,1.7225,1.7243,1.7484,1.7991,1.7999,1.7751,1.7243,1.6733,1.639,1.6209,1.6209,1.6126,1.5995,1.5995,1.6356,1.6973,1.6973,1.7368,1.7957,1.7449,1.7544,1.7948,1.7432,1.7562,1.7999,1.7999,1.7673,1.732,1.7828,1.7321,1.6576,1.7088,1.6602,1.5728,1.519,1.4037,1.2851,1.2418,1.2611,1.3045,1.3511,1.3523,1.329,1.2831,1.2493,1.2113,1.1526,1.1184,1.0965,1.0813,1.068,1.0484,1.0152,0.9973,0.978,0.9471,0.9431,0.9566,0.9932,1.0144,1.0558,1.1373,1.172,1.208,1.2515,1.3013,0.0,1.4223,1.4843,1.5336,1.5713,1.6351,1.6918,1.7407,1.7577,1.7783,1.7999,1.7999,1.7999,1.7999,1.7999,1.7999,1.7999,1.7999,1.7999,1.7999,1.7999,1.8235,1.8617,1.884,1.9318,1.9932,2.0137,2.0381,2.0605,1.4307,1.4834,1.5658,1.6463,1.6715,1.708,1.788,1.7999,1.7999,1.7999,1.7999,1.7999,1.7999,1.7999,1.7999,1.7999,1.7268,1.7147,1.7948,1.7999,1.7999,1.7999,1.7999,1.7999,1.7999,1.7999,1.7999,1.7999,1.7999,1.7999,1.7999,1.7999,1.7999,1.7999,1.7999,1.7999,1.7999,1.7999,1.7999,1.7999,1.7999,1.7999,1.7999,1.7999,1.7999,1.7999,1.7999,1.7999,1.7999,1.7999,1.7999,1.7999,1.7999,1.7458,1.6775,1.6645,1.5438,1.3936,1.2991,1.3319,1.4135,1.4985,1.5199,1.4977,1.4126,1.3751,1.3354,1.2501,1.1926,1.1521,1.1406,1.1209,1.0864,1.0311,1.0367,1.0322,0.9883,0.0,1.0393,1.1082,1.1191,1.153,1.2339,1.3238,1.3681,1.3458,1.4663,1.5276,1.5004,1.5821,1.6298,1.6298,1.7008,1.7429,1.7487,1.7832,1.7999,1.7999,1.7999,1.7999,1.7999,1.7999,1.7999,1.7999,1.7999,1.7999,1.7999,1.7999,1.8283,1.8743,1.9141,1.9599,2.0049,2.0449,2.0605,2.0605,1.6184,1.628,1.6437,1.6567,1.726,1.7828,1.7982,1.7999,1.7999,1.7999,1.7999,1.7999,1.7999,1.7999,1.7999,1.7999,1.7872,1.7836,1.7991,1.7999,1.7999,1.7999,1.7999,1.7999,1.7999,1.7999,1.7999,1.7999,1.7999,1.7999,1.7999,1.7999,1.7999,1.7999,1.7999,1.7999,1.7999,1.7999,1.7999,1.7999,1.7999,1.7999,1.7999,1.7999,1.7999,1.7999,1.7999,1.7999,1.7999,1.7999,1.7999,1.7999,1.7999,1.7896,1.763,1.6836,1.6384,1.5948,1.4995,1.4861,1.5003,1.5163,1.5199,1.5163,1.5003,1.4936,1.4779,1.4349,1.4195,1.3946,1.3308,1.3155,1.2616,1.1024,1.158,1.1773,1.0547,0.0,1.2201,1.2324,1.2543,1.2993,1.3796,1.3731,1.4024,1.497,1.526,1.5554,1.588,1.6723,1.7202,1.7202,1.7331,1.7557,1.7902,1.797,1.7999,1.7999,1.7999,1.7999,1.7999,1.7999,1.7999,1.7999,1.7999,1.7999,1.7999,1.7999,1.8477,1.9198,1.9277,1.9784,2.0498,2.0566,2.0605,2.0605,1.6697,1.7009,1.7346,1.7346,1.7707,1.7999,1.7999,1.7999,1.7999,1.7999,1.7999,1.7999,1.7999,1.7999,1.7999,1.7999,1.7999,1.7999,1.7999,1.7999,1.7999,1.7999,1.7999,1.7999,1.7999,1.7999,1.7999,1.7999,1.7999,1.7999,1.7999,1.7999,1.7999,1.7999,1.7999,1.7999,1.7999,1.7999,1.8136,1.8324,1.8324,1.8469,1.8691,1.8691,1.8691,1.8691,1.8691,1.8691,1.8691,1.8691,1.8691,1.8691,1.8691,1.8526,1.8236,1.7798,1.6808,1.586,1.593,1.5948,1.6079,1.6576,1.6707,1.6585,1.607,1.5948,1.5773,1.5106,1.4828,1.4596,1.4264,1.3874,1.3356,1.2589,1.2657,1.2609,1.2039,1.2451,1.2977,1.3414,1.3569,1.3958,1.4771,1.4911,1.5186,1.5744,1.5979,1.6188,1.6416,1.7039,1.7399,1.7399,1.7616,1.7804,1.7999,1.7999,1.7999,1.7999,1.7999,1.7999,1.7999,1.7999,1.7999,1.7999,1.7999,1.7999,1.7999,1.7999,1.8516,1.9296,1.9296,1.9833,2.0605,2.0605,2.0605,2.0605,1.707,1.7509,1.7999,1.7999,1.7999,1.7999,1.7999,1.7999,1.7999,1.7999,1.7999,1.7999,1.7999,1.7999,1.7999,1.7999,1.7999,1.7999,1.7999,1.8097,1.8098,1.8001,1.8097,1.8137,1.8137,1.8243,1.8302,1.8302,1.8302,1.8243,1.8137,1.8137,1.8097,1.8001,1.8098,1.8137,1.8147,1.8253,1.8479,1.8762,1.8762,1.8975,1.9296,1.9296,1.9296,1.9296,1.9296,1.9296,1.9296,1.9296,1.9296,1.9296,1.9296,1.9044,1.8762,1.8762,1.7445,1.6131,1.6759,1.6931,1.7095,1.7819,1.7999,1.7811,1.7087,1.6931,1.6723,1.6,1.5653,1.5436,1.5341,1.4873,1.4356,1.4003,0.0,1.3767,1.3503,1.3701,1.4089,1.4705,1.4773,1.5014,1.5639,1.6033,1.6244,1.6244,1.6631,1.6861,1.6861,1.7287,1.7538,1.7538,1.7842,1.7999,1.7999,1.7999,1.7999,1.7999,1.7999,1.7999,1.7999,1.7999,1.7999,1.8008,1.821,1.8185,1.8016,1.8219,1.8698,1.9296,1.9296,1.9833,2.0605,2.0605,2.0605,2.0605,1.7914,1.7948,1.7999,1.7999,1.7999,1.7999,1.7999,1.7999,1.7999,1.7999,1.7999,1.7999,1.7999,1.7999,1.7999,1.7999,1.7999,1.7999,1.7999,1.8353,1.8392,1.8019,1.8361,1.8559,1.8559,1.8975,1.9198,1.9198,1.9198,1.8975,1.8559,1.8559,1.8361,1.8019,1.8392,1.8559,1.8578,1.9023,1.9218,1.9247,1.9247,1.9267,1.9296,1.9296,1.9296,1.9296,1.9296,1.9296,1.9296,1.9296,1.9296,1.9296,1.9296,1.9286,1.9247,1.9247,1.8818,1.8277,1.7977,1.7896,1.7914,1.7982,1.7999,1.7982,1.7914,1.7896,1.7879,1.7802,1.7774,1.7638,1.7268,1.716,1.6515,1.4658,0.0,0.0,1.4507,1.553,1.645,1.6505,1.6521,1.6536,1.6599,1.6646,1.6656,1.6656,1.709,1.735,1.735,1.7726,1.796,1.796,1.798,1.7999,1.7999,1.7999,1.7999,1.7999,1.7999,1.7999,1.7999,1.7999,1.7999,1.8042,1.8854,1.8754,1.8059,1.8871,1.9239,1.9296,1.9296,1.9833,2.0605,2.0605,2.0605,2.0605,1.7999,1.7999,1.7999,1.7999,1.7999,1.7999,1.7999,1.7999,1.7999,1.7999,1.7999,1.7999,1.7999,1.7999,1.7999,1.7999,1.7999,1.8107,1.8361,1.8519,1.8655,1.8799,1.8955,1.9034,1.9034,1.9218,1.9296,1.9296,1.9296,1.9218,1.9034,1.9034,1.8955,1.8809,1.8975,1.9034,1.9053,1.9219,1.9443,1.9678,1.9678,1.9853,2.0107,2.0107,2.0107,2.0107,2.0107,2.0107,2.0107,2.0107,2.0107,2.0107,2.0107,1.9911,1.9619,1.9374,1.917,1.8936,1.8489,1.8196,1.7999,1.7999,1.7999,1.7999,1.7999,1.7999,1.7999,1.7999,1.7999,1.795,1.7803,1.7567,1.7231,1.6719,0.0,1.6598,1.63,1.6516,1.6697,1.6697,1.6697,1.6697,1.6697,1.6957,1.7131,1.7131,1.7529,1.7773,1.7773,1.7921,1.7999,1.7999,1.7999,1.7999,1.7999,1.7999,1.7999,1.7999,1.7999,1.7999,1.7999,1.7999,1.7999,1.805,1.8919,1.911,1.89,2.0112,2.0413,2.0136,2.0466,2.0594,2.0605,2.0605,2.0605,2.0605,1.7999,1.7999,1.7999,1.7999,1.7999,1.7999,1.7999,1.7999,1.7999,1.7999,1.7999,1.7999,1.7999,1.8108,1.8196,1.8196,1.8321,1.8526,1.8801,1.8938,1.9102,1.9286,1.9423,1.9482,1.9482,1.9628,1.9706,1.9706,1.9706,1.9628,1.9482,1.9482,1.9423,1.9315,1.9433,1.9482,1.9501,1.9647,1.9872,2.0117,2.0117,2.0312,2.0605,2.0605,2.0605,2.0605,2.0605,2.0605,2.0605,2.0605,2.0605,2.0605,2.0605,2.0381,2.0078,1.9794,1.9599,1.9414,1.9103,1.8713,1.8341,1.8068,1.7999,1.7999,1.7999,1.7999,1.7999,1.7999,1.7999,1.7999,1.7999,1.7765,1.7645,1.7793,1.7423,1.7181,1.7371,1.7228,1.7105,1.7105,1.7105,1.7105,1.7105,1.7394,1.7586,1.7586,1.7833,1.7999,1.7999,1.7999,1.7999,1.7999,1.7999,1.7999,1.7999,1.7999,1.7999,1.7999,1.7999,1.7999,1.7999,1.7999,1.8152,1.8462,1.9323,1.971,1.9791,2.0886,2.1051,2.0628,2.0842,2.0791,2.0605,2.0605,2.0605,2.0605,1.7999,1.7999,1.7999,1.7999,1.7999,1.7999,1.7999,1.7999,1.7999,1.7999,1.7999,1.7999,1.7999,1.8363,1.8598,1.8598,1.9033,1.9296,1.9296,1.9678,1.9736,1.9325,1.9688,1.9912,1.9912,2.0361,2.0605,2.0605,2.0605,2.0361,1.9912,1.9912,1.9688,1.9325,1.9736,1.9912,1.9942,2.04,2.0605,2.0605,2.0605,2.0605,2.0605,2.0605,2.0605,2.0605,2.0605,2.0605,2.0605,2.0605,2.0605,2.0605,2.0605,2.0605,2.0605,2.0605,2.0263,1.9903,1.9903,1.9609,1.91,1.8224,1.8001,1.8001,1.7999,1.7999,1.7999,1.7999,1.7999,1.7999,1.7999,1.7999,1.7871,1.7477,1.7734,1.7861,1.7468,1.7744,1.7999,1.7999,1.7999,1.7999,1.7999,1.7999,1.7999,1.7999,1.7999,1.7999,1.7999,1.7999,1.7999,1.7999,1.7999,1.7999,1.7999,1.7999,1.7999,1.7999,1.7999,1.7999,1.7999,1.7999,1.8479,1.9348,2.022,2.0606,2.0651,2.1051,2.0983,2.0575,2.0099,2.0205,2.0605,2.0605,2.0605,2.0605,1.7999,1.7999,1.7999,1.7999,1.7999,1.7999,1.7999,1.7999,1.7999,1.7999,1.7999,1.7999,1.7999,1.8363,1.8598,1.8598,1.9033,1.9423,1.9698,2.0136,2.0341,2.0214,2.0331,2.039,2.039,2.0527,2.0605,2.0605,2.0605,2.0527,2.039,2.039,2.0331,2.0214,2.0341,2.039,2.04,2.0537,2.0605,2.0605,2.0605,2.0605,2.0605,2.0605,2.0605,2.0605,2.0605,2.0605,2.0605,2.0605,2.0605,2.0605,2.0605,2.0605,2.0605,2.0605,2.0498,2.0322,1.9991,1.9815,1.9512,1.8636,1.8421,1.8353,1.8059,1.7999,1.7999,1.7999,1.7999,1.7999,1.7999,1.7999,1.796,1.7833,1.7921,1.796,1.7842,1.7921,1.7999,1.7999,1.7999,1.7999,1.7999,1.7999,1.7999,1.7999,1.7999,1.7999,1.7999,1.7999,1.7999,1.7999,1.7999,1.7999,1.7999,1.7999,1.7999,1.7999,1.7999,1.7999,1.7999,1.7999,1.8479,1.9348,2.022,2.1163,2.2095,2.2508,2.244,2.2033,2.1557,2.1063,2.0605,2.0605,2.0605,2.0605,1.7999,1.7999,1.7999,1.7999,1.7999,1.7999,1.7999,1.7999,1.7999,1.7999,1.7999,1.8068,1.8225,1.8615,1.8937,1.9094,1.9541,1.9921,2.0156,2.0439,2.0605,2.0605,2.0605,2.0605,2.0605,2.0605,2.0605,2.0605,2.0605,2.0605,2.0605,2.0605,2.0605,2.0605,2.0605,2.0605,2.0605,2.0605,2.0605,2.0605,2.0605,2.0605,2.0605,2.0605,2.0605,2.0605,2.0605,2.0605,2.0605,2.0605,2.0605,2.0605,2.0605,2.0605,2.0605,2.0605,2.0605,2.0537,2.0254,2.0185,2.001,1.9289,1.8987,1.881,1.8574,1.837,1.8244,1.8244,1.8108,1.7999,1.7999,1.7999,1.7999,1.7999,1.7999,1.7999,1.7999,1.7999,1.7999,1.7999,1.7999,1.7999,1.7999,1.7999,1.7999,1.7999,1.7999,1.7999,1.7999,1.7999,1.7999,1.7999,1.7999,1.7999,1.7999,1.7999,1.7999,1.7999,1.8354,1.8512,1.8529,1.8871,1.9505,2.0368,2.1107,2.2118,2.3207,2.3097,2.2919,2.2617,2.1766,2.1097,2.0605,2.0605,2.0828,2.1155,1.7999,1.7999,1.7999,1.7999,1.7999,1.7999,1.7999,1.7999,1.7999,1.7999,1.803,1.8196,1.8559,1.9053,1.9502,1.9873,2.0332,2.0605,2.0605,2.0605,2.0605,2.0605,2.0605,2.0605,2.0605,2.0605,2.0605,2.0605,2.0605,2.0605,2.0605,2.0605,2.0605,2.0605,2.0605,2.0605,2.0605,2.0605,2.0605,2.0605,2.0605,2.0605,2.0605,2.0605,2.0605,2.0605,2.0605,2.0605,2.0605,2.0605,2.0605,2.0605,2.0605,2.0605,2.0605,2.0605,2.0605,2.0605,2.0605,2.0605,2.0498,2.0078,1.9697,1.9403,1.9325,1.8975,1.8646,1.8607,1.8304,1.804,1.8009,1.7999,1.7999,1.7999,1.7999,1.7999,1.7999,1.7999,1.7999,1.7999,1.7999,1.7999,1.7999,1.7999,1.7999,1.7999,1.7999,1.7999,1.7999,1.7999,1.7999,1.7999,1.7999,1.7999,1.7999,1.8076,1.8118,1.8135,1.8919,1.9369,1.9511,2.031,2.1168,2.2067,2.2559,2.3296,2.4063,2.3104,2.2729,2.263,2.1165,2.0605,2.0605,2.0605,2.1193,2.2008,1.7999,1.7999,1.7999,1.7999,1.7999,1.7999,1.7999,1.7999,1.7999,1.7999,1.8265,1.85,1.8588,1.9298,1.9805,1.9883,2.0332,2.0605,2.0605,2.0605,2.0605,2.0605,2.0605,2.0605,2.0605,2.0605,2.0605,2.0605,2.0605,2.0605,2.0605,2.0605,2.0605,2.0605,2.0605,2.0605,2.0605,2.0605,2.0605,2.0605,2.0605,2.0605,2.0605,2.0605,2.0605,2.0605,2.0605,2.0605,2.0605,2.0605,2.0605,2.0605,2.0605,2.0605,2.0605,2.0605,2.0605,2.0605,2.0605,2.0605,2.0586,2.0468,2.038,2.0146,1.9462,1.9219,1.9044,1.8684,1.8529,1.8364,1.8068,1.7999,1.7999,1.7999,1.7999,1.7999,1.7999,1.7999,1.7999,1.7999,1.7999,1.7999,1.7999,1.7999,1.7999,1.7999,1.7999,1.7999,1.7999,1.7999,1.7999,1.7999,1.7999,1.7999,1.7999,1.8679,1.9019,1.9019,1.9208,1.9886,2.0947,2.1137,2.1929,2.3159,2.3279,2.4054,2.512,2.3407,2.2947,2.3141,2.1315,2.0605,2.0605,2.0605,2.1193,2.2112,1.8612,1.8944,1.9233,1.9233,1.8904,1.8612,1.8612,1.8612,1.8709,1.8973,1.9555,2.0114,2.0598,2.1063,2.122,2.0933,2.1128,2.1269,2.1269,2.1269,2.148,2.1963,2.1517,2.1269,2.1269,2.0828,2.0605,2.0605,2.0605,2.0605,2.0605,2.0605,2.0605,2.0605,2.0605,2.0605,2.0605,2.0605,2.0605,2.0605,2.0605,2.0605,2.0605,2.0605,2.0605,2.0605,2.0605,2.0605,2.0605,2.0605,2.0605,2.0605,2.0605,2.0605,2.0605,2.0605,2.0605,2.0605,2.0605,2.0605,2.0605,2.0605,2.0605,2.0478,2.0019,1.9746,1.9521,1.9269,1.9074,1.8868,1.8662,1.8439,1.8293,1.8293,1.8136,1.7999,1.7999,1.7999,1.7999,1.7999,1.7999,1.7999,1.7999,1.7999,1.7999,1.7999,1.7999,1.7999,1.7999,1.7999,1.7999,1.7999,1.7999,1.8317,1.9003,1.9198,1.9966,2.1302,2.0782,2.1059,2.203,2.2448,2.3175,2.4136,2.4397,2.4925,2.5511,2.4295,2.3681,2.3395,2.2376,2.1688,2.1327,2.1812,2.2601,2.3569,1.9521,2.0098,2.0598,2.0598,2.0001,1.9521,1.9521,1.9521,1.9676,2.0126,2.0949,2.1815,2.2664,2.29,2.2798,2.2296,2.2262,2.2262,2.2262,2.2262,2.2637,2.3459,2.2543,2.1999,2.1999,2.1078,2.0605,2.0605,2.0605,2.0605,2.0605,2.076,2.075,2.0615,2.077,2.075,2.0605,2.0605,2.0605,2.0605,2.0605,2.0605,2.0605,2.0605,2.0605,2.0605,2.0605,2.0605,2.0605,2.0605,2.0605,2.0605,2.0605,2.0605,2.0605,2.0605,2.0605,2.0605,2.0605,2.0605,2.0605,2.0605,2.0605,2.0605,2.0605,2.0293,2.0,1.9922,1.9639,1.9384,1.9306,1.8985,1.8723,1.8723,1.8363,1.8098,1.8098,1.804,1.7999,1.7999,1.7999,1.7999,1.7999,1.7999,1.7999,1.7999,1.7999,1.7999,1.7999,1.7999,1.7999,1.7999,1.7999,1.8681,2.0083,1.9815,2.0947,2.3493,2.2751,2.2678,2.3216,2.3934,2.4561,2.5113,2.5557,2.5745,2.5707,2.5216,2.451,2.3745,2.3571,2.299,2.2375,2.3386,2.4282,2.5137,2.0422,2.0518,2.0598,2.0598,2.0502,2.0422,2.0422,2.0422,2.0452,2.0519,2.1336,2.1974,2.2108,2.29,2.3392,2.3303,2.3294,2.3294,2.3294,2.3294,2.3358,2.3487,2.2543,2.1999,2.1999,2.1078,2.0605,2.0605,2.0605,2.0605,2.0625,2.1432,2.1384,2.0644,2.145,2.1355,2.0605,2.0605,2.0605,2.0605,2.0605,2.0605,2.0605,2.0605,2.0605,2.0605,2.0605,2.0605,2.0605,2.0605,2.0605,2.0605,2.0605,2.0605,2.0605,2.0605,2.0605,2.0605,2.0605,2.0605,2.0605,2.0605,2.0605,2.0605,2.0605,2.0547,2.039,1.9981,1.9864,1.9707,1.9365,1.9247,1.9208,1.9208,1.882,1.852,1.852,1.8225,1.7999,1.7999,1.7999,1.7999,1.7999,1.7999,1.7999,1.7999,1.7999,1.7999,1.7999,1.7999,1.7999,1.7999,1.7999,1.8681,2.0083,2.0788,2.1926,2.351,2.4128,2.4688,2.5203,2.5323,2.5716,2.6264,2.6348,2.6382,2.6317,2.5381,2.4924,2.4707,2.3845,2.3425,2.3423,2.4427,2.488,2.5137,2.1325,2.1686,2.1997,2.1997,2.1612,2.1325,2.1325,2.1325,2.1542,2.2143,2.2998,2.3812,2.4438,2.4909,2.4945,2.4382,2.4337,2.4337,2.4337,2.4337,2.4588,2.5152,2.4208,2.3681,2.3681,2.2722,2.2217,2.2217,2.166,2.1384,2.1403,2.2375,2.2618,2.2207,2.2065,2.2085,2.2141,2.1059,2.1222,2.2133,2.104,2.1251,2.216,2.1593,2.1384,2.1308,2.0789,2.0605,2.0605,2.0605,2.0605,2.0605,2.0605,2.0605,2.0605,2.0605,2.0605,2.0605,2.0605,2.0605,2.0605,2.0605,2.0605,2.0605,2.0605,2.0605,2.0537,2.0322,2.0293,2.0244,2.0067,1.9814,1.9639,1.9639,1.9045,1.8598,1.8598,1.8246,1.7999,1.7999,1.7999,1.7999,1.7999,1.7999,1.7999,1.7999,1.7999,1.7999,1.7999,1.7999,1.8353,1.9155,1.9163,2.0237,2.2423,2.2527,2.3444,2.5186,2.5224,2.5372,2.5607,2.5607,2.5929,2.6508,2.6508,2.6508,2.6473,2.6025,2.5515,2.5004,2.5125,2.5179,2.5232,2.5669,2.583,2.5891]}]]